<?xml version="1.0" encoding="UTF-8" standalone="no" ?>
<gpx xmlns="http://www.topografix.com/GPX/1/1" xmlns:xsi="http://www.w3.org/2001/XMLSchema-instance" xsi:schemaLocation="http://www.topografix.com/GPX/1/1 http://www.topografix.com/GPX/1/1/gpx.xsd" version="1.1" creator="VisuGPX - https://www.visugpx.com">
  <metadata>
    <name>Course à pied le midi</name>
  </metadata>
  <trk>
    <name><![CDATA[Course à pied le midi_1]]></name>
    <trkseg>
      <trkpt lat="43.63386" lon="1.38351">
        <ele>141</ele>
        <time>2025-04-09T10:29:11Z</time>
      </trkpt>
      <trkpt lat="43.63385" lon="1.38353">
        <ele>141</ele>
        <time>2025-04-09T10:29:12Z</time>
      </trkpt>
      <trkpt lat="43.63381" lon="1.38357">
        <ele>141</ele>
        <time>2025-04-09T10:29:13Z</time>
      </trkpt>
      <trkpt lat="43.63381" lon="1.38357">
        <ele>139</ele>
        <time>2025-04-09T10:29:14Z</time>
      </trkpt>
      <trkpt lat="43.6338" lon="1.38359">
        <ele>139</ele>
        <time>2025-04-09T10:29:15Z</time>
      </trkpt>
      <trkpt lat="43.63379" lon="1.3836">
        <ele>139</ele>
        <time>2025-04-09T10:29:16Z</time>
      </trkpt>
      <trkpt lat="43.63378" lon="1.38362">
        <ele>139</ele>
        <time>2025-04-09T10:29:17Z</time>
      </trkpt>
      <trkpt lat="43.6337" lon="1.38369">
        <ele>140</ele>
        <time>2025-04-09T10:29:18Z</time>
      </trkpt>
      <trkpt lat="43.63367" lon="1.38371">
        <ele>140</ele>
        <time>2025-04-09T10:29:19Z</time>
      </trkpt>
      <trkpt lat="43.63363" lon="1.38372">
        <ele>140</ele>
        <time>2025-04-09T10:29:20Z</time>
      </trkpt>
      <trkpt lat="43.63352" lon="1.38376">
        <ele>140</ele>
        <time>2025-04-09T10:29:21Z</time>
      </trkpt>
      <trkpt lat="43.63352" lon="1.38376">
        <ele>139</ele>
        <time>2025-04-09T10:29:22Z</time>
      </trkpt>
      <trkpt lat="43.63345" lon="1.38377">
        <ele>139</ele>
        <time>2025-04-09T10:29:23Z</time>
      </trkpt>
      <trkpt lat="43.63338" lon="1.38379">
        <ele>139</ele>
        <time>2025-04-09T10:29:24Z</time>
      </trkpt>
      <trkpt lat="43.63332" lon="1.3838">
        <ele>139</ele>
        <time>2025-04-09T10:29:25Z</time>
      </trkpt>
      <trkpt lat="43.63332" lon="1.3838">
        <ele>139</ele>
        <time>2025-04-09T10:29:26Z</time>
      </trkpt>
      <trkpt lat="43.63327" lon="1.38379">
        <ele>139</ele>
        <time>2025-04-09T10:29:27Z</time>
      </trkpt>
      <trkpt lat="43.63322" lon="1.38378">
        <ele>139</ele>
        <time>2025-04-09T10:29:28Z</time>
      </trkpt>
      <trkpt lat="43.6332" lon="1.38378">
        <ele>140</ele>
        <time>2025-04-09T10:29:30Z</time>
      </trkpt>
      <trkpt lat="43.63317" lon="1.38378">
        <ele>141</ele>
        <time>2025-04-09T10:29:31Z</time>
      </trkpt>
      <trkpt lat="43.63306" lon="1.38377">
        <ele>142</ele>
        <time>2025-04-09T10:29:32Z</time>
      </trkpt>
      <trkpt lat="43.633" lon="1.38375">
        <ele>142</ele>
        <time>2025-04-09T10:29:33Z</time>
      </trkpt>
      <trkpt lat="43.633" lon="1.38375">
        <ele>142</ele>
        <time>2025-04-09T10:29:34Z</time>
      </trkpt>
      <trkpt lat="43.633" lon="1.38375">
        <ele>143</ele>
        <time>2025-04-09T10:29:35Z</time>
      </trkpt>
      <trkpt lat="43.63298" lon="1.38374">
        <ele>143</ele>
        <time>2025-04-09T10:29:36Z</time>
      </trkpt>
      <trkpt lat="43.63298" lon="1.38374">
        <ele>143</ele>
        <time>2025-04-09T10:29:37Z</time>
      </trkpt>
      <trkpt lat="43.63298" lon="1.38374">
        <ele>143</ele>
        <time>2025-04-09T10:29:38Z</time>
      </trkpt>
      <trkpt lat="43.63298" lon="1.38374">
        <ele>143</ele>
        <time>2025-04-09T10:29:39Z</time>
      </trkpt>
      <trkpt lat="43.63298" lon="1.38374">
        <ele>143</ele>
        <time>2025-04-09T10:29:40Z</time>
      </trkpt>
      <trkpt lat="43.63297" lon="1.38377">
        <ele>143</ele>
        <time>2025-04-09T10:29:41Z</time>
      </trkpt>
      <trkpt lat="43.63297" lon="1.38377">
        <ele>143</ele>
        <time>2025-04-09T10:29:42Z</time>
      </trkpt>
      <trkpt lat="43.63298" lon="1.3838">
        <ele>143</ele>
        <time>2025-04-09T10:29:43Z</time>
      </trkpt>
      <trkpt lat="43.63302" lon="1.38389">
        <ele>143</ele>
        <time>2025-04-09T10:29:44Z</time>
      </trkpt>
      <trkpt lat="43.63305" lon="1.38394">
        <ele>143</ele>
        <time>2025-04-09T10:29:45Z</time>
      </trkpt>
      <trkpt lat="43.63307" lon="1.38399">
        <ele>143</ele>
        <time>2025-04-09T10:29:46Z</time>
      </trkpt>
      <trkpt lat="43.63307" lon="1.38399">
        <ele>143</ele>
        <time>2025-04-09T10:29:47Z</time>
      </trkpt>
      <trkpt lat="43.63311" lon="1.38407">
        <ele>143</ele>
        <time>2025-04-09T10:29:48Z</time>
      </trkpt>
      <trkpt lat="43.63312" lon="1.3841">
        <ele>143</ele>
        <time>2025-04-09T10:29:49Z</time>
      </trkpt>
      <trkpt lat="43.63315" lon="1.38414">
        <ele>144</ele>
        <time>2025-04-09T10:29:50Z</time>
      </trkpt>
      <trkpt lat="43.63317" lon="1.3842">
        <ele>144</ele>
        <time>2025-04-09T10:29:51Z</time>
      </trkpt>
      <trkpt lat="43.63318" lon="1.38426">
        <ele>144</ele>
        <time>2025-04-09T10:29:52Z</time>
      </trkpt>
      <trkpt lat="43.63319" lon="1.38432">
        <ele>144</ele>
        <time>2025-04-09T10:29:53Z</time>
      </trkpt>
      <trkpt lat="43.6332" lon="1.38438">
        <ele>143</ele>
        <time>2025-04-09T10:29:54Z</time>
      </trkpt>
      <trkpt lat="43.6332" lon="1.38438">
        <ele>143</ele>
        <time>2025-04-09T10:29:55Z</time>
      </trkpt>
      <trkpt lat="43.6332" lon="1.38455">
        <ele>143</ele>
        <time>2025-04-09T10:29:56Z</time>
      </trkpt>
      <trkpt lat="43.6332" lon="1.38455">
        <ele>143</ele>
        <time>2025-04-09T10:29:58Z</time>
      </trkpt>
      <trkpt lat="43.63319" lon="1.38472">
        <ele>142</ele>
        <time>2025-04-09T10:29:59Z</time>
      </trkpt>
      <trkpt lat="43.63319" lon="1.38472">
        <ele>142</ele>
        <time>2025-04-09T10:30:00Z</time>
      </trkpt>
      <trkpt lat="43.63319" lon="1.38475">
        <ele>142</ele>
        <time>2025-04-09T10:30:01Z</time>
      </trkpt>
      <trkpt lat="43.63319" lon="1.38478">
        <ele>142</ele>
        <time>2025-04-09T10:30:02Z</time>
      </trkpt>
      <trkpt lat="43.63319" lon="1.38481">
        <ele>142</ele>
        <time>2025-04-09T10:30:03Z</time>
      </trkpt>
      <trkpt lat="43.63319" lon="1.38492">
        <ele>142</ele>
        <time>2025-04-09T10:30:04Z</time>
      </trkpt>
      <trkpt lat="43.6332" lon="1.38494">
        <ele>142</ele>
        <time>2025-04-09T10:30:05Z</time>
      </trkpt>
      <trkpt lat="43.6332" lon="1.38495">
        <ele>141</ele>
        <time>2025-04-09T10:30:06Z</time>
      </trkpt>
      <trkpt lat="43.63325" lon="1.38514">
        <ele>141</ele>
        <time>2025-04-09T10:30:08Z</time>
      </trkpt>
      <trkpt lat="43.63327" lon="1.38522">
        <ele>141</ele>
        <time>2025-04-09T10:30:09Z</time>
      </trkpt>
      <trkpt lat="43.63329" lon="1.3853">
        <ele>141</ele>
        <time>2025-04-09T10:30:10Z</time>
      </trkpt>
      <trkpt lat="43.63331" lon="1.38538">
        <ele>141</ele>
        <time>2025-04-09T10:30:11Z</time>
      </trkpt>
      <trkpt lat="43.63331" lon="1.38538">
        <ele>141</ele>
        <time>2025-04-09T10:30:12Z</time>
      </trkpt>
      <trkpt lat="43.63333" lon="1.38543">
        <ele>142</ele>
        <time>2025-04-09T10:30:13Z</time>
      </trkpt>
      <trkpt lat="43.63335" lon="1.38548">
        <ele>142</ele>
        <time>2025-04-09T10:30:14Z</time>
      </trkpt>
      <trkpt lat="43.63337" lon="1.38553">
        <ele>142</ele>
        <time>2025-04-09T10:30:15Z</time>
      </trkpt>
      <trkpt lat="43.63338" lon="1.38558">
        <ele>142</ele>
        <time>2025-04-09T10:30:16Z</time>
      </trkpt>
      <trkpt lat="43.6334" lon="1.38564">
        <ele>142</ele>
        <time>2025-04-09T10:30:17Z</time>
      </trkpt>
      <trkpt lat="43.63342" lon="1.38569">
        <ele>142</ele>
        <time>2025-04-09T10:30:18Z</time>
      </trkpt>
      <trkpt lat="43.63342" lon="1.38569">
        <ele>142</ele>
        <time>2025-04-09T10:30:19Z</time>
      </trkpt>
      <trkpt lat="43.63345" lon="1.38584">
        <ele>142</ele>
        <time>2025-04-09T10:30:20Z</time>
      </trkpt>
      <trkpt lat="43.63345" lon="1.38584">
        <ele>142</ele>
        <time>2025-04-09T10:30:22Z</time>
      </trkpt>
      <trkpt lat="43.6335" lon="1.386">
        <ele>142</ele>
        <time>2025-04-09T10:30:23Z</time>
      </trkpt>
      <trkpt lat="43.63351" lon="1.38602">
        <ele>142</ele>
        <time>2025-04-09T10:30:24Z</time>
      </trkpt>
      <trkpt lat="43.63353" lon="1.38607">
        <ele>143</ele>
        <time>2025-04-09T10:30:25Z</time>
      </trkpt>
      <trkpt lat="43.63353" lon="1.38607">
        <ele>143</ele>
        <time>2025-04-09T10:30:27Z</time>
      </trkpt>
      <trkpt lat="43.6336" lon="1.38616">
        <ele>143</ele>
        <time>2025-04-09T10:30:28Z</time>
      </trkpt>
      <trkpt lat="43.6336" lon="1.38616">
        <ele>143</ele>
        <time>2025-04-09T10:30:29Z</time>
      </trkpt>
      <trkpt lat="43.63362" lon="1.38616">
        <ele>143</ele>
        <time>2025-04-09T10:30:30Z</time>
      </trkpt>
      <trkpt lat="43.63363" lon="1.38617">
        <ele>143</ele>
        <time>2025-04-09T10:30:31Z</time>
      </trkpt>
      <trkpt lat="43.63365" lon="1.38617">
        <ele>143</ele>
        <time>2025-04-09T10:30:32Z</time>
      </trkpt>
      <trkpt lat="43.63374" lon="1.38616">
        <ele>143</ele>
        <time>2025-04-09T10:30:33Z</time>
      </trkpt>
      <trkpt lat="43.63377" lon="1.38614">
        <ele>143</ele>
        <time>2025-04-09T10:30:34Z</time>
      </trkpt>
      <trkpt lat="43.6338" lon="1.38613">
        <ele>143</ele>
        <time>2025-04-09T10:30:35Z</time>
      </trkpt>
      <trkpt lat="43.63384" lon="1.38611">
        <ele>143</ele>
        <time>2025-04-09T10:30:36Z</time>
      </trkpt>
      <trkpt lat="43.63389" lon="1.38607">
        <ele>142</ele>
        <time>2025-04-09T10:30:37Z</time>
      </trkpt>
      <trkpt lat="43.63393" lon="1.38604">
        <ele>141</ele>
        <time>2025-04-09T10:30:38Z</time>
      </trkpt>
      <trkpt lat="43.63397" lon="1.38601">
        <ele>141</ele>
        <time>2025-04-09T10:30:39Z</time>
      </trkpt>
      <trkpt lat="43.634" lon="1.38599">
        <ele>141</ele>
        <time>2025-04-09T10:30:40Z</time>
      </trkpt>
      <trkpt lat="43.63404" lon="1.38598">
        <ele>140</ele>
        <time>2025-04-09T10:30:41Z</time>
      </trkpt>
      <trkpt lat="43.63407" lon="1.38596">
        <ele>140</ele>
        <time>2025-04-09T10:30:42Z</time>
      </trkpt>
      <trkpt lat="43.63414" lon="1.38591">
        <ele>140</ele>
        <time>2025-04-09T10:30:43Z</time>
      </trkpt>
      <trkpt lat="43.63417" lon="1.38588">
        <ele>140</ele>
        <time>2025-04-09T10:30:44Z</time>
      </trkpt>
      <trkpt lat="43.63419" lon="1.38584">
        <ele>140</ele>
        <time>2025-04-09T10:30:46Z</time>
      </trkpt>
      <trkpt lat="43.63422" lon="1.38581">
        <ele>140</ele>
        <time>2025-04-09T10:30:47Z</time>
      </trkpt>
      <trkpt lat="43.63424" lon="1.38576">
        <ele>139</ele>
        <time>2025-04-09T10:30:48Z</time>
      </trkpt>
      <trkpt lat="43.63426" lon="1.38572">
        <ele>139</ele>
        <time>2025-04-09T10:30:49Z</time>
      </trkpt>
      <trkpt lat="43.63427" lon="1.38561">
        <ele>139</ele>
        <time>2025-04-09T10:30:50Z</time>
      </trkpt>
      <trkpt lat="43.63427" lon="1.38561">
        <ele>139</ele>
        <time>2025-04-09T10:30:51Z</time>
      </trkpt>
      <trkpt lat="43.63427" lon="1.38554">
        <ele>140</ele>
        <time>2025-04-09T10:30:52Z</time>
      </trkpt>
      <trkpt lat="43.63426" lon="1.38546">
        <ele>140</ele>
        <time>2025-04-09T10:30:53Z</time>
      </trkpt>
      <trkpt lat="43.63426" lon="1.38546">
        <ele>140</ele>
        <time>2025-04-09T10:30:54Z</time>
      </trkpt>
      <trkpt lat="43.63424" lon="1.38536">
        <ele>140</ele>
        <time>2025-04-09T10:30:55Z</time>
      </trkpt>
      <trkpt lat="43.63424" lon="1.38536">
        <ele>140</ele>
        <time>2025-04-09T10:30:56Z</time>
      </trkpt>
      <trkpt lat="43.63422" lon="1.38527">
        <ele>139</ele>
        <time>2025-04-09T10:30:57Z</time>
      </trkpt>
      <trkpt lat="43.63422" lon="1.38527">
        <ele>139</ele>
        <time>2025-04-09T10:30:58Z</time>
      </trkpt>
      <trkpt lat="43.6342" lon="1.3852">
        <ele>139</ele>
        <time>2025-04-09T10:30:59Z</time>
      </trkpt>
      <trkpt lat="43.63419" lon="1.38517">
        <ele>140</ele>
        <time>2025-04-09T10:31:00Z</time>
      </trkpt>
      <trkpt lat="43.63417" lon="1.38513">
        <ele>140</ele>
        <time>2025-04-09T10:31:01Z</time>
      </trkpt>
      <trkpt lat="43.63412" lon="1.38501">
        <ele>140</ele>
        <time>2025-04-09T10:31:02Z</time>
      </trkpt>
      <trkpt lat="43.63412" lon="1.38498">
        <ele>140</ele>
        <time>2025-04-09T10:31:03Z</time>
      </trkpt>
      <trkpt lat="43.63411" lon="1.38494">
        <ele>140</ele>
        <time>2025-04-09T10:31:05Z</time>
      </trkpt>
      <trkpt lat="43.63412" lon="1.38488">
        <ele>140</ele>
        <time>2025-04-09T10:31:06Z</time>
      </trkpt>
      <trkpt lat="43.63412" lon="1.38483">
        <ele>140</ele>
        <time>2025-04-09T10:31:07Z</time>
      </trkpt>
      <trkpt lat="43.63415" lon="1.38474">
        <ele>140</ele>
        <time>2025-04-09T10:31:08Z</time>
      </trkpt>
      <trkpt lat="43.63416" lon="1.38469">
        <ele>140</ele>
        <time>2025-04-09T10:31:09Z</time>
      </trkpt>
      <trkpt lat="43.63416" lon="1.38464">
        <ele>139</ele>
        <time>2025-04-09T10:31:10Z</time>
      </trkpt>
      <trkpt lat="43.63416" lon="1.38464">
        <ele>139</ele>
        <time>2025-04-09T10:31:11Z</time>
      </trkpt>
      <trkpt lat="43.63417" lon="1.3846">
        <ele>139</ele>
        <time>2025-04-09T10:31:12Z</time>
      </trkpt>
      <trkpt lat="43.63416" lon="1.38455">
        <ele>139</ele>
        <time>2025-04-09T10:31:13Z</time>
      </trkpt>
      <trkpt lat="43.63415" lon="1.38451">
        <ele>140</ele>
        <time>2025-04-09T10:31:14Z</time>
      </trkpt>
      <trkpt lat="43.63339" lon="1.38611">
        <ele>142</ele>
        <time>2025-04-09T10:34:08Z</time>
      </trkpt>
      <trkpt lat="43.63339" lon="1.38611">
        <ele>142</ele>
        <time>2025-04-09T10:34:09Z</time>
      </trkpt>
      <trkpt lat="43.63337" lon="1.38606">
        <ele>142</ele>
        <time>2025-04-09T10:34:10Z</time>
      </trkpt>
      <trkpt lat="43.63335" lon="1.38601">
        <ele>142</ele>
        <time>2025-04-09T10:34:12Z</time>
      </trkpt>
      <trkpt lat="43.63333" lon="1.38595">
        <ele>142</ele>
        <time>2025-04-09T10:34:13Z</time>
      </trkpt>
      <trkpt lat="43.63331" lon="1.38589">
        <ele>142</ele>
        <time>2025-04-09T10:34:14Z</time>
      </trkpt>
      <trkpt lat="43.6333" lon="1.38583">
        <ele>142</ele>
        <time>2025-04-09T10:34:15Z</time>
      </trkpt>
      <trkpt lat="43.63328" lon="1.38578">
        <ele>142</ele>
        <time>2025-04-09T10:34:16Z</time>
      </trkpt>
      <trkpt lat="43.63327" lon="1.38572">
        <ele>142</ele>
        <time>2025-04-09T10:34:17Z</time>
      </trkpt>
      <trkpt lat="43.63326" lon="1.38569">
        <ele>142</ele>
        <time>2025-04-09T10:34:18Z</time>
      </trkpt>
      <trkpt lat="43.63326" lon="1.38567">
        <ele>142</ele>
        <time>2025-04-09T10:34:19Z</time>
      </trkpt>
      <trkpt lat="43.63325" lon="1.38564">
        <ele>142</ele>
        <time>2025-04-09T10:34:20Z</time>
      </trkpt>
      <trkpt lat="43.63322" lon="1.38552">
        <ele>142</ele>
        <time>2025-04-09T10:34:21Z</time>
      </trkpt>
      <trkpt lat="43.6332" lon="1.38546">
        <ele>142</ele>
        <time>2025-04-09T10:34:22Z</time>
      </trkpt>
      <trkpt lat="43.63319" lon="1.38541">
        <ele>142</ele>
        <time>2025-04-09T10:34:23Z</time>
      </trkpt>
      <trkpt lat="43.63317" lon="1.38536">
        <ele>142</ele>
        <time>2025-04-09T10:34:24Z</time>
      </trkpt>
      <trkpt lat="43.63314" lon="1.38526">
        <ele>142</ele>
        <time>2025-04-09T10:34:25Z</time>
      </trkpt>
      <trkpt lat="43.63314" lon="1.38524">
        <ele>142</ele>
        <time>2025-04-09T10:34:26Z</time>
      </trkpt>
      <trkpt lat="43.63311" lon="1.38514">
        <ele>143</ele>
        <time>2025-04-09T10:34:28Z</time>
      </trkpt>
      <trkpt lat="43.63311" lon="1.38514">
        <ele>143</ele>
        <time>2025-04-09T10:34:29Z</time>
      </trkpt>
      <trkpt lat="43.6331" lon="1.38512">
        <ele>143</ele>
        <time>2025-04-09T10:34:30Z</time>
      </trkpt>
      <trkpt lat="43.6331" lon="1.38509">
        <ele>142</ele>
        <time>2025-04-09T10:34:31Z</time>
      </trkpt>
      <trkpt lat="43.63309" lon="1.38506">
        <ele>142</ele>
        <time>2025-04-09T10:34:32Z</time>
      </trkpt>
      <trkpt lat="43.63307" lon="1.38498">
        <ele>142</ele>
        <time>2025-04-09T10:34:33Z</time>
      </trkpt>
      <trkpt lat="43.63304" lon="1.38483">
        <ele>142</ele>
        <time>2025-04-09T10:34:34Z</time>
      </trkpt>
      <trkpt lat="43.63304" lon="1.38483">
        <ele>142</ele>
        <time>2025-04-09T10:34:36Z</time>
      </trkpt>
      <trkpt lat="43.63301" lon="1.38481">
        <ele>142</ele>
        <time>2025-04-09T10:34:37Z</time>
      </trkpt>
      <trkpt lat="43.63298" lon="1.38479">
        <ele>142</ele>
        <time>2025-04-09T10:34:38Z</time>
      </trkpt>
      <trkpt lat="43.63295" lon="1.38477">
        <ele>142</ele>
        <time>2025-04-09T10:34:39Z</time>
      </trkpt>
      <trkpt lat="43.63293" lon="1.38479">
        <ele>143</ele>
        <time>2025-04-09T10:34:40Z</time>
      </trkpt>
      <trkpt lat="43.63292" lon="1.3848">
        <ele>143</ele>
        <time>2025-04-09T10:34:41Z</time>
      </trkpt>
      <trkpt lat="43.6329" lon="1.38481">
        <ele>143</ele>
        <time>2025-04-09T10:34:42Z</time>
      </trkpt>
      <trkpt lat="43.63281" lon="1.38487">
        <ele>143</ele>
        <time>2025-04-09T10:34:43Z</time>
      </trkpt>
      <trkpt lat="43.63277" lon="1.38489">
        <ele>143</ele>
        <time>2025-04-09T10:34:44Z</time>
      </trkpt>
      <trkpt lat="43.63273" lon="1.38491">
        <ele>143</ele>
        <time>2025-04-09T10:34:45Z</time>
      </trkpt>
      <trkpt lat="43.63268" lon="1.38495">
        <ele>143</ele>
        <time>2025-04-09T10:34:47Z</time>
      </trkpt>
      <trkpt lat="43.63263" lon="1.38498">
        <ele>143</ele>
        <time>2025-04-09T10:34:48Z</time>
      </trkpt>
      <trkpt lat="43.63258" lon="1.38502">
        <ele>143</ele>
        <time>2025-04-09T10:34:49Z</time>
      </trkpt>
      <trkpt lat="43.63253" lon="1.38505">
        <ele>143</ele>
        <time>2025-04-09T10:34:50Z</time>
      </trkpt>
      <trkpt lat="43.63253" lon="1.38505">
        <ele>143</ele>
        <time>2025-04-09T10:34:51Z</time>
      </trkpt>
      <trkpt lat="43.63253" lon="1.38507">
        <ele>143</ele>
        <time>2025-04-09T10:34:52Z</time>
      </trkpt>
      <trkpt lat="43.63253" lon="1.3851">
        <ele>143</ele>
        <time>2025-04-09T10:34:53Z</time>
      </trkpt>
      <trkpt lat="43.63253" lon="1.38512">
        <ele>143</ele>
        <time>2025-04-09T10:34:54Z</time>
      </trkpt>
      <trkpt lat="43.63254" lon="1.38524">
        <ele>142</ele>
        <time>2025-04-09T10:34:55Z</time>
      </trkpt>
      <trkpt lat="43.63255" lon="1.38529">
        <ele>142</ele>
        <time>2025-04-09T10:34:56Z</time>
      </trkpt>
      <trkpt lat="43.63256" lon="1.38534">
        <ele>142</ele>
        <time>2025-04-09T10:34:57Z</time>
      </trkpt>
      <trkpt lat="43.63257" lon="1.38536">
        <ele>142</ele>
        <time>2025-04-09T10:34:58Z</time>
      </trkpt>
      <trkpt lat="43.63258" lon="1.38539">
        <ele>142</ele>
        <time>2025-04-09T10:34:59Z</time>
      </trkpt>
      <trkpt lat="43.63259" lon="1.38541">
        <ele>142</ele>
        <time>2025-04-09T10:35:00Z</time>
      </trkpt>
      <trkpt lat="43.63263" lon="1.38554">
        <ele>142</ele>
        <time>2025-04-09T10:35:01Z</time>
      </trkpt>
      <trkpt lat="43.63265" lon="1.38558">
        <ele>142</ele>
        <time>2025-04-09T10:35:02Z</time>
      </trkpt>
      <trkpt lat="43.63267" lon="1.38563">
        <ele>142</ele>
        <time>2025-04-09T10:35:03Z</time>
      </trkpt>
      <trkpt lat="43.63269" lon="1.38568">
        <ele>142</ele>
        <time>2025-04-09T10:35:04Z</time>
      </trkpt>
      <trkpt lat="43.63272" lon="1.38577">
        <ele>142</ele>
        <time>2025-04-09T10:35:06Z</time>
      </trkpt>
      <trkpt lat="43.63273" lon="1.38582">
        <ele>142</ele>
        <time>2025-04-09T10:35:07Z</time>
      </trkpt>
      <trkpt lat="43.63274" lon="1.38587">
        <ele>142</ele>
        <time>2025-04-09T10:35:08Z</time>
      </trkpt>
      <trkpt lat="43.63276" lon="1.38592">
        <ele>142</ele>
        <time>2025-04-09T10:35:09Z</time>
      </trkpt>
      <trkpt lat="43.63276" lon="1.38594">
        <ele>142</ele>
        <time>2025-04-09T10:35:10Z</time>
      </trkpt>
      <trkpt lat="43.63277" lon="1.38597">
        <ele>142</ele>
        <time>2025-04-09T10:35:11Z</time>
      </trkpt>
      <trkpt lat="43.63278" lon="1.38599">
        <ele>142</ele>
        <time>2025-04-09T10:35:12Z</time>
      </trkpt>
      <trkpt lat="43.6328" lon="1.38611">
        <ele>142</ele>
        <time>2025-04-09T10:35:13Z</time>
      </trkpt>
      <trkpt lat="43.63282" lon="1.38616">
        <ele>142</ele>
        <time>2025-04-09T10:35:14Z</time>
      </trkpt>
      <trkpt lat="43.63283" lon="1.38621">
        <ele>142</ele>
        <time>2025-04-09T10:35:15Z</time>
      </trkpt>
      <trkpt lat="43.63284" lon="1.38627">
        <ele>143</ele>
        <time>2025-04-09T10:35:16Z</time>
      </trkpt>
      <trkpt lat="43.63286" lon="1.38634">
        <ele>142</ele>
        <time>2025-04-09T10:35:17Z</time>
      </trkpt>
      <trkpt lat="43.63286" lon="1.38634">
        <ele>142</ele>
        <time>2025-04-09T10:35:18Z</time>
      </trkpt>
      <trkpt lat="43.63289" lon="1.38634">
        <ele>142</ele>
        <time>2025-04-09T10:35:19Z</time>
      </trkpt>
      <trkpt lat="43.63293" lon="1.38635">
        <ele>142</ele>
        <time>2025-04-09T10:35:20Z</time>
      </trkpt>
      <trkpt lat="43.63296" lon="1.38635">
        <ele>142</ele>
        <time>2025-04-09T10:35:21Z</time>
      </trkpt>
      <trkpt lat="43.63299" lon="1.38636">
        <ele>142</ele>
        <time>2025-04-09T10:35:22Z</time>
      </trkpt>
      <trkpt lat="43.63301" lon="1.38634">
        <ele>142</ele>
        <time>2025-04-09T10:35:23Z</time>
      </trkpt>
      <trkpt lat="43.63308" lon="1.38629">
        <ele>142</ele>
        <time>2025-04-09T10:35:25Z</time>
      </trkpt>
      <trkpt lat="43.6331" lon="1.38628">
        <ele>142</ele>
        <time>2025-04-09T10:35:26Z</time>
      </trkpt>
      <trkpt lat="43.63312" lon="1.38627">
        <ele>142</ele>
        <time>2025-04-09T10:35:27Z</time>
      </trkpt>
      <trkpt lat="43.63313" lon="1.38626">
        <ele>143</ele>
        <time>2025-04-09T10:35:28Z</time>
      </trkpt>
      <trkpt lat="43.63322" lon="1.3862">
        <ele>143</ele>
        <time>2025-04-09T10:35:29Z</time>
      </trkpt>
      <trkpt lat="43.63326" lon="1.38617">
        <ele>143</ele>
        <time>2025-04-09T10:35:30Z</time>
      </trkpt>
      <trkpt lat="43.63329" lon="1.38615">
        <ele>143</ele>
        <time>2025-04-09T10:35:31Z</time>
      </trkpt>
      <trkpt lat="43.63333" lon="1.38612">
        <ele>142</ele>
        <time>2025-04-09T10:35:32Z</time>
      </trkpt>
      <trkpt lat="43.63337" lon="1.3861">
        <ele>142</ele>
        <time>2025-04-09T10:35:33Z</time>
      </trkpt>
      <trkpt lat="43.63337" lon="1.3861">
        <ele>142</ele>
        <time>2025-04-09T10:35:34Z</time>
      </trkpt>
      <trkpt lat="43.63337" lon="1.38608">
        <ele>142</ele>
        <time>2025-04-09T10:35:35Z</time>
      </trkpt>
      <trkpt lat="43.63337" lon="1.38606">
        <ele>143</ele>
        <time>2025-04-09T10:35:36Z</time>
      </trkpt>
      <trkpt lat="43.63337" lon="1.38604">
        <ele>143</ele>
        <time>2025-04-09T10:35:37Z</time>
      </trkpt>
      <trkpt lat="43.63337" lon="1.38602">
        <ele>143</ele>
        <time>2025-04-09T10:35:38Z</time>
      </trkpt>
      <trkpt lat="43.63336" lon="1.38593">
        <ele>143</ele>
        <time>2025-04-09T10:35:39Z</time>
      </trkpt>
      <trkpt lat="43.63335" lon="1.38591">
        <ele>143</ele>
        <time>2025-04-09T10:35:40Z</time>
      </trkpt>
      <trkpt lat="43.63334" lon="1.38589">
        <ele>143</ele>
        <time>2025-04-09T10:35:41Z</time>
      </trkpt>
      <trkpt lat="43.63329" lon="1.38575">
        <ele>142</ele>
        <time>2025-04-09T10:35:42Z</time>
      </trkpt>
      <trkpt lat="43.63327" lon="1.38568">
        <ele>142</ele>
        <time>2025-04-09T10:35:44Z</time>
      </trkpt>
      <trkpt lat="43.63325" lon="1.38561">
        <ele>143</ele>
        <time>2025-04-09T10:35:45Z</time>
      </trkpt>
      <trkpt lat="43.63323" lon="1.38554">
        <ele>143</ele>
        <time>2025-04-09T10:35:46Z</time>
      </trkpt>
      <trkpt lat="43.63323" lon="1.38554">
        <ele>142</ele>
        <time>2025-04-09T10:35:47Z</time>
      </trkpt>
      <trkpt lat="43.63323" lon="1.38552">
        <ele>142</ele>
        <time>2025-04-09T10:35:48Z</time>
      </trkpt>
      <trkpt lat="43.63322" lon="1.38549">
        <ele>142</ele>
        <time>2025-04-09T10:35:49Z</time>
      </trkpt>
      <trkpt lat="43.63321" lon="1.38547">
        <ele>142</ele>
        <time>2025-04-09T10:35:50Z</time>
      </trkpt>
      <trkpt lat="43.63317" lon="1.38536">
        <ele>142</ele>
        <time>2025-04-09T10:35:51Z</time>
      </trkpt>
      <trkpt lat="43.63316" lon="1.38532">
        <ele>142</ele>
        <time>2025-04-09T10:35:52Z</time>
      </trkpt>
      <trkpt lat="43.63315" lon="1.38527">
        <ele>142</ele>
        <time>2025-04-09T10:35:53Z</time>
      </trkpt>
      <trkpt lat="43.63314" lon="1.38522">
        <ele>142</ele>
        <time>2025-04-09T10:35:54Z</time>
      </trkpt>
      <trkpt lat="43.63313" lon="1.38518">
        <ele>142</ele>
        <time>2025-04-09T10:35:55Z</time>
      </trkpt>
      <trkpt lat="43.63312" lon="1.38513">
        <ele>142</ele>
        <time>2025-04-09T10:35:56Z</time>
      </trkpt>
      <trkpt lat="43.63312" lon="1.38513">
        <ele>142</ele>
        <time>2025-04-09T10:35:57Z</time>
      </trkpt>
      <trkpt lat="43.63308" lon="1.38498">
        <ele>142</ele>
        <time>2025-04-09T10:35:58Z</time>
      </trkpt>
      <trkpt lat="43.63308" lon="1.38498">
        <ele>142</ele>
        <time>2025-04-09T10:36:00Z</time>
      </trkpt>
      <trkpt lat="43.63307" lon="1.38494">
        <ele>143</ele>
        <time>2025-04-09T10:36:01Z</time>
      </trkpt>
      <trkpt lat="43.63306" lon="1.3849">
        <ele>143</ele>
        <time>2025-04-09T10:36:02Z</time>
      </trkpt>
      <trkpt lat="43.63305" lon="1.38485">
        <ele>143</ele>
        <time>2025-04-09T10:36:03Z</time>
      </trkpt>
      <trkpt lat="43.63304" lon="1.38484">
        <ele>143</ele>
        <time>2025-04-09T10:36:04Z</time>
      </trkpt>
      <trkpt lat="43.63302" lon="1.38482">
        <ele>142</ele>
        <time>2025-04-09T10:36:05Z</time>
      </trkpt>
      <trkpt lat="43.63301" lon="1.38481">
        <ele>142</ele>
        <time>2025-04-09T10:36:06Z</time>
      </trkpt>
      <trkpt lat="43.63293" lon="1.38479">
        <ele>142</ele>
        <time>2025-04-09T10:36:07Z</time>
      </trkpt>
      <trkpt lat="43.6329" lon="1.38481">
        <ele>142</ele>
        <time>2025-04-09T10:36:08Z</time>
      </trkpt>
      <trkpt lat="43.63287" lon="1.38484">
        <ele>143</ele>
        <time>2025-04-09T10:36:09Z</time>
      </trkpt>
      <trkpt lat="43.63285" lon="1.38485">
        <ele>143</ele>
        <time>2025-04-09T10:36:10Z</time>
      </trkpt>
      <trkpt lat="43.63283" lon="1.38486">
        <ele>143</ele>
        <time>2025-04-09T10:36:11Z</time>
      </trkpt>
      <trkpt lat="43.63282" lon="1.38488">
        <ele>143</ele>
        <time>2025-04-09T10:36:12Z</time>
      </trkpt>
      <trkpt lat="43.63274" lon="1.38493">
        <ele>143</ele>
        <time>2025-04-09T10:36:13Z</time>
      </trkpt>
      <trkpt lat="43.63271" lon="1.38495">
        <ele>143</ele>
        <time>2025-04-09T10:36:14Z</time>
      </trkpt>
      <trkpt lat="43.63269" lon="1.38497">
        <ele>143</ele>
        <time>2025-04-09T10:36:15Z</time>
      </trkpt>
      <trkpt lat="43.63266" lon="1.38498">
        <ele>143</ele>
        <time>2025-04-09T10:36:16Z</time>
      </trkpt>
      <trkpt lat="43.63264" lon="1.385">
        <ele>143</ele>
        <time>2025-04-09T10:36:17Z</time>
      </trkpt>
      <trkpt lat="43.63261" lon="1.38501">
        <ele>143</ele>
        <time>2025-04-09T10:36:18Z</time>
      </trkpt>
      <trkpt lat="43.63255" lon="1.38507">
        <ele>143</ele>
        <time>2025-04-09T10:36:19Z</time>
      </trkpt>
      <trkpt lat="43.63253" lon="1.38509">
        <ele>143</ele>
        <time>2025-04-09T10:36:20Z</time>
      </trkpt>
      <trkpt lat="43.63252" lon="1.38512">
        <ele>143</ele>
        <time>2025-04-09T10:36:21Z</time>
      </trkpt>
      <trkpt lat="43.63251" lon="1.38514">
        <ele>143</ele>
        <time>2025-04-09T10:36:22Z</time>
      </trkpt>
      <trkpt lat="43.63252" lon="1.3852">
        <ele>143</ele>
        <time>2025-04-09T10:36:23Z</time>
      </trkpt>
      <trkpt lat="43.63254" lon="1.38526">
        <ele>143</ele>
        <time>2025-04-09T10:36:24Z</time>
      </trkpt>
      <trkpt lat="43.63255" lon="1.3853">
        <ele>142</ele>
        <time>2025-04-09T10:36:25Z</time>
      </trkpt>
      <trkpt lat="43.63256" lon="1.38533">
        <ele>142</ele>
        <time>2025-04-09T10:36:26Z</time>
      </trkpt>
      <trkpt lat="43.63257" lon="1.38537">
        <ele>142</ele>
        <time>2025-04-09T10:36:27Z</time>
      </trkpt>
      <trkpt lat="43.63258" lon="1.3854">
        <ele>143</ele>
        <time>2025-04-09T10:36:28Z</time>
      </trkpt>
      <trkpt lat="43.63261" lon="1.38546">
        <ele>143</ele>
        <time>2025-04-09T10:36:29Z</time>
      </trkpt>
      <trkpt lat="43.63263" lon="1.38553">
        <ele>143</ele>
        <time>2025-04-09T10:36:30Z</time>
      </trkpt>
      <trkpt lat="43.63264" lon="1.38557">
        <ele>143</ele>
        <time>2025-04-09T10:36:31Z</time>
      </trkpt>
      <trkpt lat="43.63266" lon="1.38562">
        <ele>143</ele>
        <time>2025-04-09T10:36:32Z</time>
      </trkpt>
      <trkpt lat="43.63268" lon="1.38566">
        <ele>143</ele>
        <time>2025-04-09T10:36:33Z</time>
      </trkpt>
      <trkpt lat="43.63269" lon="1.38568">
        <ele>143</ele>
        <time>2025-04-09T10:36:34Z</time>
      </trkpt>
      <trkpt lat="43.63269" lon="1.3857">
        <ele>143</ele>
        <time>2025-04-09T10:36:35Z</time>
      </trkpt>
      <trkpt lat="43.6327" lon="1.38572">
        <ele>143</ele>
        <time>2025-04-09T10:36:36Z</time>
      </trkpt>
      <trkpt lat="43.63273" lon="1.38583">
        <ele>143</ele>
        <time>2025-04-09T10:36:37Z</time>
      </trkpt>
      <trkpt lat="43.63275" lon="1.38587">
        <ele>143</ele>
        <time>2025-04-09T10:36:38Z</time>
      </trkpt>
      <trkpt lat="43.63276" lon="1.38591">
        <ele>143</ele>
        <time>2025-04-09T10:36:39Z</time>
      </trkpt>
      <trkpt lat="43.63277" lon="1.38595">
        <ele>143</ele>
        <time>2025-04-09T10:36:41Z</time>
      </trkpt>
      <trkpt lat="43.63278" lon="1.38599">
        <ele>143</ele>
        <time>2025-04-09T10:36:42Z</time>
      </trkpt>
      <trkpt lat="43.63279" lon="1.38604">
        <ele>143</ele>
        <time>2025-04-09T10:36:43Z</time>
      </trkpt>
      <trkpt lat="43.63283" lon="1.38617">
        <ele>143</ele>
        <time>2025-04-09T10:36:44Z</time>
      </trkpt>
      <trkpt lat="43.63283" lon="1.38617">
        <ele>143</ele>
        <time>2025-04-09T10:36:45Z</time>
      </trkpt>
      <trkpt lat="43.63284" lon="1.38621">
        <ele>143</ele>
        <time>2025-04-09T10:36:46Z</time>
      </trkpt>
      <trkpt lat="43.63285" lon="1.38626">
        <ele>143</ele>
        <time>2025-04-09T10:36:47Z</time>
      </trkpt>
      <trkpt lat="43.63286" lon="1.3863">
        <ele>143</ele>
        <time>2025-04-09T10:36:48Z</time>
      </trkpt>
      <trkpt lat="43.63288" lon="1.38633">
        <ele>143</ele>
        <time>2025-04-09T10:36:49Z</time>
      </trkpt>
      <trkpt lat="43.6329" lon="1.38636">
        <ele>143</ele>
        <time>2025-04-09T10:36:50Z</time>
      </trkpt>
      <trkpt lat="43.63292" lon="1.38639">
        <ele>143</ele>
        <time>2025-04-09T10:36:51Z</time>
      </trkpt>
      <trkpt lat="43.63298" lon="1.38636">
        <ele>143</ele>
        <time>2025-04-09T10:36:52Z</time>
      </trkpt>
      <trkpt lat="43.63298" lon="1.38636">
        <ele>143</ele>
        <time>2025-04-09T10:36:53Z</time>
      </trkpt>
      <trkpt lat="43.63302" lon="1.38634">
        <ele>143</ele>
        <time>2025-04-09T10:36:54Z</time>
      </trkpt>
      <trkpt lat="43.63305" lon="1.38631">
        <ele>143</ele>
        <time>2025-04-09T10:36:55Z</time>
      </trkpt>
      <trkpt lat="43.63308" lon="1.38629">
        <ele>143</ele>
        <time>2025-04-09T10:36:56Z</time>
      </trkpt>
      <trkpt lat="43.63312" lon="1.38626">
        <ele>143</ele>
        <time>2025-04-09T10:36:57Z</time>
      </trkpt>
      <trkpt lat="43.63316" lon="1.38624">
        <ele>143</ele>
        <time>2025-04-09T10:36:58Z</time>
      </trkpt>
      <trkpt lat="43.63319" lon="1.38621">
        <ele>143</ele>
        <time>2025-04-09T10:36:59Z</time>
      </trkpt>
      <trkpt lat="43.63323" lon="1.38619">
        <ele>143</ele>
        <time>2025-04-09T10:37:00Z</time>
      </trkpt>
      <trkpt lat="43.63327" lon="1.38616">
        <ele>143</ele>
        <time>2025-04-09T10:37:01Z</time>
      </trkpt>
      <trkpt lat="43.63327" lon="1.38616">
        <ele>143</ele>
        <time>2025-04-09T10:37:02Z</time>
      </trkpt>
      <trkpt lat="43.63331" lon="1.38614">
        <ele>142</ele>
        <time>2025-04-09T10:37:03Z</time>
      </trkpt>
      <trkpt lat="43.63338" lon="1.38608">
        <ele>142</ele>
        <time>2025-04-09T10:37:04Z</time>
      </trkpt>
      <trkpt lat="43.6334" lon="1.38607">
        <ele>142</ele>
        <time>2025-04-09T10:37:05Z</time>
      </trkpt>
      <trkpt lat="43.6334" lon="1.38607">
        <ele>143</ele>
        <time>2025-04-09T10:37:06Z</time>
      </trkpt>
      <trkpt lat="43.6334" lon="1.38602">
        <ele>143</ele>
        <time>2025-04-09T10:37:07Z</time>
      </trkpt>
      <trkpt lat="43.63339" lon="1.38598">
        <ele>143</ele>
        <time>2025-04-09T10:37:08Z</time>
      </trkpt>
      <trkpt lat="43.63339" lon="1.38594">
        <ele>143</ele>
        <time>2025-04-09T10:37:09Z</time>
      </trkpt>
      <trkpt lat="43.63338" lon="1.38591">
        <ele>143</ele>
        <time>2025-04-09T10:37:10Z</time>
      </trkpt>
      <trkpt lat="43.63336" lon="1.38587">
        <ele>143</ele>
        <time>2025-04-09T10:37:11Z</time>
      </trkpt>
      <trkpt lat="43.63335" lon="1.38584">
        <ele>143</ele>
        <time>2025-04-09T10:37:12Z</time>
      </trkpt>
      <trkpt lat="43.63334" lon="1.38581">
        <ele>143</ele>
        <time>2025-04-09T10:37:13Z</time>
      </trkpt>
      <trkpt lat="43.63332" lon="1.38578">
        <ele>142</ele>
        <time>2025-04-09T10:37:14Z</time>
      </trkpt>
      <trkpt lat="43.63331" lon="1.38574">
        <ele>142</ele>
        <time>2025-04-09T10:37:15Z</time>
      </trkpt>
      <trkpt lat="43.63328" lon="1.38567">
        <ele>142</ele>
        <time>2025-04-09T10:37:16Z</time>
      </trkpt>
      <trkpt lat="43.63323" lon="1.38555">
        <ele>142</ele>
        <time>2025-04-09T10:37:17Z</time>
      </trkpt>
      <trkpt lat="43.63323" lon="1.38555">
        <ele>143</ele>
        <time>2025-04-09T10:37:19Z</time>
      </trkpt>
      <trkpt lat="43.63322" lon="1.38552">
        <ele>143</ele>
        <time>2025-04-09T10:37:20Z</time>
      </trkpt>
      <trkpt lat="43.63321" lon="1.38549">
        <ele>143</ele>
        <time>2025-04-09T10:37:21Z</time>
      </trkpt>
      <trkpt lat="43.63318" lon="1.38538">
        <ele>144</ele>
        <time>2025-04-09T10:37:22Z</time>
      </trkpt>
      <trkpt lat="43.63317" lon="1.38534">
        <ele>144</ele>
        <time>2025-04-09T10:37:23Z</time>
      </trkpt>
      <trkpt lat="43.63316" lon="1.3853">
        <ele>144</ele>
        <time>2025-04-09T10:37:24Z</time>
      </trkpt>
      <trkpt lat="43.63315" lon="1.38526">
        <ele>144</ele>
        <time>2025-04-09T10:37:25Z</time>
      </trkpt>
      <trkpt lat="43.63314" lon="1.38523">
        <ele>144</ele>
        <time>2025-04-09T10:37:26Z</time>
      </trkpt>
      <trkpt lat="43.63313" lon="1.3852">
        <ele>144</ele>
        <time>2025-04-09T10:37:27Z</time>
      </trkpt>
      <trkpt lat="43.63312" lon="1.38517">
        <ele>143</ele>
        <time>2025-04-09T10:37:28Z</time>
      </trkpt>
      <trkpt lat="43.63311" lon="1.38513">
        <ele>143</ele>
        <time>2025-04-09T10:37:29Z</time>
      </trkpt>
      <trkpt lat="43.63311" lon="1.38509">
        <ele>143</ele>
        <time>2025-04-09T10:37:30Z</time>
      </trkpt>
      <trkpt lat="43.63308" lon="1.38497">
        <ele>143</ele>
        <time>2025-04-09T10:37:31Z</time>
      </trkpt>
      <trkpt lat="43.63306" lon="1.38493">
        <ele>143</ele>
        <time>2025-04-09T10:37:32Z</time>
      </trkpt>
      <trkpt lat="43.63305" lon="1.38488">
        <ele>144</ele>
        <time>2025-04-09T10:37:33Z</time>
      </trkpt>
      <trkpt lat="43.63303" lon="1.38485">
        <ele>144</ele>
        <time>2025-04-09T10:37:34Z</time>
      </trkpt>
      <trkpt lat="43.63301" lon="1.38482">
        <ele>143</ele>
        <time>2025-04-09T10:37:35Z</time>
      </trkpt>
      <trkpt lat="43.63299" lon="1.38479">
        <ele>143</ele>
        <time>2025-04-09T10:37:36Z</time>
      </trkpt>
      <trkpt lat="43.63295" lon="1.3848">
        <ele>143</ele>
        <time>2025-04-09T10:37:38Z</time>
      </trkpt>
      <trkpt lat="43.6329" lon="1.38482">
        <ele>143</ele>
        <time>2025-04-09T10:37:39Z</time>
      </trkpt>
      <trkpt lat="43.6329" lon="1.38482">
        <ele>143</ele>
        <time>2025-04-09T10:37:40Z</time>
      </trkpt>
      <trkpt lat="43.6328" lon="1.3849">
        <ele>143</ele>
        <time>2025-04-09T10:37:41Z</time>
      </trkpt>
      <trkpt lat="43.6328" lon="1.3849">
        <ele>143</ele>
        <time>2025-04-09T10:37:43Z</time>
      </trkpt>
      <trkpt lat="43.63276" lon="1.38493">
        <ele>143</ele>
        <time>2025-04-09T10:37:44Z</time>
      </trkpt>
      <trkpt lat="43.63271" lon="1.38496">
        <ele>143</ele>
        <time>2025-04-09T10:37:45Z</time>
      </trkpt>
      <trkpt lat="43.63268" lon="1.38498">
        <ele>144</ele>
        <time>2025-04-09T10:37:46Z</time>
      </trkpt>
      <trkpt lat="43.63265" lon="1.385">
        <ele>144</ele>
        <time>2025-04-09T10:37:47Z</time>
      </trkpt>
      <trkpt lat="43.63261" lon="1.38502">
        <ele>143</ele>
        <time>2025-04-09T10:37:48Z</time>
      </trkpt>
      <trkpt lat="43.63258" lon="1.38504">
        <ele>143</ele>
        <time>2025-04-09T10:37:49Z</time>
      </trkpt>
      <trkpt lat="43.63256" lon="1.38507">
        <ele>143</ele>
        <time>2025-04-09T10:37:50Z</time>
      </trkpt>
      <trkpt lat="43.63253" lon="1.38509">
        <ele>143</ele>
        <time>2025-04-09T10:37:51Z</time>
      </trkpt>
      <trkpt lat="43.63253" lon="1.38513">
        <ele>143</ele>
        <time>2025-04-09T10:37:52Z</time>
      </trkpt>
      <trkpt lat="43.63253" lon="1.38517">
        <ele>143</ele>
        <time>2025-04-09T10:37:53Z</time>
      </trkpt>
      <trkpt lat="43.63253" lon="1.38522">
        <ele>143</ele>
        <time>2025-04-09T10:37:54Z</time>
      </trkpt>
      <trkpt lat="43.63255" lon="1.38528">
        <ele>143</ele>
        <time>2025-04-09T10:37:55Z</time>
      </trkpt>
      <trkpt lat="43.63258" lon="1.38535">
        <ele>143</ele>
        <time>2025-04-09T10:37:57Z</time>
      </trkpt>
      <trkpt lat="43.6326" lon="1.38542">
        <ele>143</ele>
        <time>2025-04-09T10:37:58Z</time>
      </trkpt>
      <trkpt lat="43.63262" lon="1.38548">
        <ele>143</ele>
        <time>2025-04-09T10:37:59Z</time>
      </trkpt>
      <trkpt lat="43.63262" lon="1.38548">
        <ele>143</ele>
        <time>2025-04-09T10:38:00Z</time>
      </trkpt>
      <trkpt lat="43.63263" lon="1.3855">
        <ele>143</ele>
        <time>2025-04-09T10:38:01Z</time>
      </trkpt>
      <trkpt lat="43.63264" lon="1.38553">
        <ele>143</ele>
        <time>2025-04-09T10:38:02Z</time>
      </trkpt>
      <trkpt lat="43.63265" lon="1.38555">
        <ele>143</ele>
        <time>2025-04-09T10:38:03Z</time>
      </trkpt>
      <trkpt lat="43.63268" lon="1.38565">
        <ele>143</ele>
        <time>2025-04-09T10:38:04Z</time>
      </trkpt>
      <trkpt lat="43.6327" lon="1.38569">
        <ele>143</ele>
        <time>2025-04-09T10:38:05Z</time>
      </trkpt>
      <trkpt lat="43.63271" lon="1.38573">
        <ele>143</ele>
        <time>2025-04-09T10:38:06Z</time>
      </trkpt>
      <trkpt lat="43.63272" lon="1.38578">
        <ele>143</ele>
        <time>2025-04-09T10:38:07Z</time>
      </trkpt>
      <trkpt lat="43.63273" lon="1.38582">
        <ele>143</ele>
        <time>2025-04-09T10:38:08Z</time>
      </trkpt>
      <trkpt lat="43.63274" lon="1.38587">
        <ele>143</ele>
        <time>2025-04-09T10:38:09Z</time>
      </trkpt>
      <trkpt lat="43.63275" lon="1.38592">
        <ele>143</ele>
        <time>2025-04-09T10:38:10Z</time>
      </trkpt>
      <trkpt lat="43.63276" lon="1.38597">
        <ele>143</ele>
        <time>2025-04-09T10:38:11Z</time>
      </trkpt>
      <trkpt lat="43.63278" lon="1.38602">
        <ele>143</ele>
        <time>2025-04-09T10:38:12Z</time>
      </trkpt>
      <trkpt lat="43.63279" lon="1.38607">
        <ele>143</ele>
        <time>2025-04-09T10:38:13Z</time>
      </trkpt>
      <trkpt lat="43.6328" lon="1.38613">
        <ele>143</ele>
        <time>2025-04-09T10:38:14Z</time>
      </trkpt>
      <trkpt lat="43.6328" lon="1.38613">
        <ele>143</ele>
        <time>2025-04-09T10:38:16Z</time>
      </trkpt>
      <trkpt lat="43.63282" lon="1.3862">
        <ele>143</ele>
        <time>2025-04-09T10:38:17Z</time>
      </trkpt>
      <trkpt lat="43.63284" lon="1.38626">
        <ele>143</ele>
        <time>2025-04-09T10:38:18Z</time>
      </trkpt>
      <trkpt lat="43.63286" lon="1.3863">
        <ele>143</ele>
        <time>2025-04-09T10:38:19Z</time>
      </trkpt>
      <trkpt lat="43.63287" lon="1.38634">
        <ele>143</ele>
        <time>2025-04-09T10:38:20Z</time>
      </trkpt>
      <trkpt lat="43.63289" lon="1.38638">
        <ele>143</ele>
        <time>2025-04-09T10:38:21Z</time>
      </trkpt>
      <trkpt lat="43.63293" lon="1.38636">
        <ele>143</ele>
        <time>2025-04-09T10:38:22Z</time>
      </trkpt>
      <trkpt lat="43.63297" lon="1.38635">
        <ele>143</ele>
        <time>2025-04-09T10:38:23Z</time>
      </trkpt>
      <trkpt lat="43.63301" lon="1.38633">
        <ele>143</ele>
        <time>2025-04-09T10:38:24Z</time>
      </trkpt>
      <trkpt lat="43.63305" lon="1.38631">
        <ele>143</ele>
        <time>2025-04-09T10:38:25Z</time>
      </trkpt>
      <trkpt lat="43.63309" lon="1.38628">
        <ele>143</ele>
        <time>2025-04-09T10:38:26Z</time>
      </trkpt>
      <trkpt lat="43.63309" lon="1.38628">
        <ele>143</ele>
        <time>2025-04-09T10:38:27Z</time>
      </trkpt>
      <trkpt lat="43.63313" lon="1.38625">
        <ele>143</ele>
        <time>2025-04-09T10:38:28Z</time>
      </trkpt>
      <trkpt lat="43.63316" lon="1.38623">
        <ele>143</ele>
        <time>2025-04-09T10:38:29Z</time>
      </trkpt>
      <trkpt lat="43.63323" lon="1.38619">
        <ele>143</ele>
        <time>2025-04-09T10:38:30Z</time>
      </trkpt>
      <trkpt lat="43.63326" lon="1.38617">
        <ele>143</ele>
        <time>2025-04-09T10:38:31Z</time>
      </trkpt>
      <trkpt lat="43.63326" lon="1.38617">
        <ele>143</ele>
        <time>2025-04-09T10:38:32Z</time>
      </trkpt>
      <trkpt lat="43.63326" lon="1.38617">
        <ele>143</ele>
        <time>2025-04-09T10:38:33Z</time>
      </trkpt>
      <trkpt lat="43.63335" lon="1.3861">
        <ele>143</ele>
        <time>2025-04-09T10:38:35Z</time>
      </trkpt>
      <trkpt lat="43.63338" lon="1.38608">
        <ele>143</ele>
        <time>2025-04-09T10:38:36Z</time>
      </trkpt>
      <trkpt lat="43.6334" lon="1.38606">
        <ele>143</ele>
        <time>2025-04-09T10:38:37Z</time>
      </trkpt>
      <trkpt lat="43.6334" lon="1.38606">
        <ele>143</ele>
        <time>2025-04-09T10:38:38Z</time>
      </trkpt>
      <trkpt lat="43.6334" lon="1.38606">
        <ele>143</ele>
        <time>2025-04-09T10:38:39Z</time>
      </trkpt>
      <trkpt lat="43.6334" lon="1.38606">
        <ele>144</ele>
        <time>2025-04-09T10:38:40Z</time>
      </trkpt>
      <trkpt lat="43.63337" lon="1.38607">
        <ele>144</ele>
        <time>2025-04-09T10:38:41Z</time>
      </trkpt>
      <trkpt lat="43.63335" lon="1.38608">
        <ele>144</ele>
        <time>2025-04-09T10:38:42Z</time>
      </trkpt>
      <trkpt lat="43.63335" lon="1.38608">
        <ele>144</ele>
        <time>2025-04-09T10:38:44Z</time>
      </trkpt>
      <trkpt lat="43.63333" lon="1.38611">
        <ele>144</ele>
        <time>2025-04-09T10:38:45Z</time>
      </trkpt>
      <trkpt lat="43.63333" lon="1.38611">
        <ele>144</ele>
        <time>2025-04-09T10:38:46Z</time>
      </trkpt>
      <trkpt lat="43.63333" lon="1.38611">
        <ele>143</ele>
        <time>2025-04-09T10:38:47Z</time>
      </trkpt>
      <trkpt lat="43.63331" lon="1.38614">
        <ele>143</ele>
        <time>2025-04-09T10:38:48Z</time>
      </trkpt>
      <trkpt lat="43.63331" lon="1.38614">
        <ele>143</ele>
        <time>2025-04-09T10:38:49Z</time>
      </trkpt>
      <trkpt lat="43.63329" lon="1.38616">
        <ele>143</ele>
        <time>2025-04-09T10:38:50Z</time>
      </trkpt>
      <trkpt lat="43.63248" lon="1.38504">
        <ele>143</ele>
        <time>2025-04-09T10:40:54Z</time>
      </trkpt>
      <trkpt lat="43.63249" lon="1.38505">
        <ele>143</ele>
        <time>2025-04-09T10:40:55Z</time>
      </trkpt>
      <trkpt lat="43.63254" lon="1.38502">
        <ele>143</ele>
        <time>2025-04-09T10:40:56Z</time>
      </trkpt>
      <trkpt lat="43.63254" lon="1.38502">
        <ele>143</ele>
        <time>2025-04-09T10:40:57Z</time>
      </trkpt>
      <trkpt lat="43.63261" lon="1.38497">
        <ele>143</ele>
        <time>2025-04-09T10:40:58Z</time>
      </trkpt>
      <trkpt lat="43.63261" lon="1.38497">
        <ele>143</ele>
        <time>2025-04-09T10:40:59Z</time>
      </trkpt>
      <trkpt lat="43.63265" lon="1.38495">
        <ele>143</ele>
        <time>2025-04-09T10:41:00Z</time>
      </trkpt>
      <trkpt lat="43.63269" lon="1.38493">
        <ele>144</ele>
        <time>2025-04-09T10:41:01Z</time>
      </trkpt>
      <trkpt lat="43.63273" lon="1.3849">
        <ele>144</ele>
        <time>2025-04-09T10:41:02Z</time>
      </trkpt>
      <trkpt lat="43.63275" lon="1.38489">
        <ele>143</ele>
        <time>2025-04-09T10:41:03Z</time>
      </trkpt>
      <trkpt lat="43.63277" lon="1.38487">
        <ele>143</ele>
        <time>2025-04-09T10:41:04Z</time>
      </trkpt>
      <trkpt lat="43.63278" lon="1.38486">
        <ele>143</ele>
        <time>2025-04-09T10:41:05Z</time>
      </trkpt>
      <trkpt lat="43.63287" lon="1.38479">
        <ele>143</ele>
        <time>2025-04-09T10:41:06Z</time>
      </trkpt>
      <trkpt lat="43.6329" lon="1.38478">
        <ele>143</ele>
        <time>2025-04-09T10:41:07Z</time>
      </trkpt>
      <trkpt lat="43.63292" lon="1.38476">
        <ele>143</ele>
        <time>2025-04-09T10:41:08Z</time>
      </trkpt>
      <trkpt lat="43.63295" lon="1.38474">
        <ele>143</ele>
        <time>2025-04-09T10:41:09Z</time>
      </trkpt>
      <trkpt lat="43.63299" lon="1.38478">
        <ele>143</ele>
        <time>2025-04-09T10:41:10Z</time>
      </trkpt>
      <trkpt lat="43.63302" lon="1.38482">
        <ele>143</ele>
        <time>2025-04-09T10:41:11Z</time>
      </trkpt>
      <trkpt lat="43.63309" lon="1.3849">
        <ele>143</ele>
        <time>2025-04-09T10:41:12Z</time>
      </trkpt>
      <trkpt lat="43.63309" lon="1.3849">
        <ele>143</ele>
        <time>2025-04-09T10:41:14Z</time>
      </trkpt>
      <trkpt lat="43.63312" lon="1.38508">
        <ele>143</ele>
        <time>2025-04-09T10:41:15Z</time>
      </trkpt>
      <trkpt lat="43.63312" lon="1.38508">
        <ele>143</ele>
        <time>2025-04-09T10:41:16Z</time>
      </trkpt>
      <trkpt lat="43.63314" lon="1.38511">
        <ele>143</ele>
        <time>2025-04-09T10:41:17Z</time>
      </trkpt>
      <trkpt lat="43.63315" lon="1.38515">
        <ele>143</ele>
        <time>2025-04-09T10:41:18Z</time>
      </trkpt>
      <trkpt lat="43.63316" lon="1.38519">
        <ele>143</ele>
        <time>2025-04-09T10:41:19Z</time>
      </trkpt>
      <trkpt lat="43.63318" lon="1.38523">
        <ele>143</ele>
        <time>2025-04-09T10:41:20Z</time>
      </trkpt>
      <trkpt lat="43.63319" lon="1.38527">
        <ele>143</ele>
        <time>2025-04-09T10:41:21Z</time>
      </trkpt>
      <trkpt lat="43.6332" lon="1.3853">
        <ele>144</ele>
        <time>2025-04-09T10:41:22Z</time>
      </trkpt>
      <trkpt lat="43.63322" lon="1.3854">
        <ele>144</ele>
        <time>2025-04-09T10:41:23Z</time>
      </trkpt>
      <trkpt lat="43.63322" lon="1.38543">
        <ele>144</ele>
        <time>2025-04-09T10:41:24Z</time>
      </trkpt>
      <trkpt lat="43.63323" lon="1.38545">
        <ele>144</ele>
        <time>2025-04-09T10:41:25Z</time>
      </trkpt>
      <trkpt lat="43.63325" lon="1.38557">
        <ele>144</ele>
        <time>2025-04-09T10:41:26Z</time>
      </trkpt>
      <trkpt lat="43.63327" lon="1.38562">
        <ele>144</ele>
        <time>2025-04-09T10:41:27Z</time>
      </trkpt>
      <trkpt lat="43.63328" lon="1.38567">
        <ele>143</ele>
        <time>2025-04-09T10:41:28Z</time>
      </trkpt>
      <trkpt lat="43.63329" lon="1.3857">
        <ele>143</ele>
        <time>2025-04-09T10:41:29Z</time>
      </trkpt>
      <trkpt lat="43.6333" lon="1.38574">
        <ele>143</ele>
        <time>2025-04-09T10:41:30Z</time>
      </trkpt>
      <trkpt lat="43.63331" lon="1.38578">
        <ele>143</ele>
        <time>2025-04-09T10:41:31Z</time>
      </trkpt>
      <trkpt lat="43.63332" lon="1.38581">
        <ele>143</ele>
        <time>2025-04-09T10:41:32Z</time>
      </trkpt>
      <trkpt lat="43.63333" lon="1.38585">
        <ele>143</ele>
        <time>2025-04-09T10:41:33Z</time>
      </trkpt>
      <trkpt lat="43.63334" lon="1.38588">
        <ele>143</ele>
        <time>2025-04-09T10:41:34Z</time>
      </trkpt>
      <trkpt lat="43.63338" lon="1.38599">
        <ele>143</ele>
        <time>2025-04-09T10:41:35Z</time>
      </trkpt>
      <trkpt lat="43.63339" lon="1.38604">
        <ele>143</ele>
        <time>2025-04-09T10:41:36Z</time>
      </trkpt>
      <trkpt lat="43.6334" lon="1.38608">
        <ele>143</ele>
        <time>2025-04-09T10:41:37Z</time>
      </trkpt>
      <trkpt lat="43.63338" lon="1.38611">
        <ele>143</ele>
        <time>2025-04-09T10:41:38Z</time>
      </trkpt>
      <trkpt lat="43.63336" lon="1.38615">
        <ele>143</ele>
        <time>2025-04-09T10:41:39Z</time>
      </trkpt>
      <trkpt lat="43.63334" lon="1.38618">
        <ele>143</ele>
        <time>2025-04-09T10:41:40Z</time>
      </trkpt>
      <trkpt lat="43.63331" lon="1.3862">
        <ele>143</ele>
        <time>2025-04-09T10:41:41Z</time>
      </trkpt>
      <trkpt lat="43.63327" lon="1.38622">
        <ele>143</ele>
        <time>2025-04-09T10:41:42Z</time>
      </trkpt>
      <trkpt lat="43.63324" lon="1.38624">
        <ele>143</ele>
        <time>2025-04-09T10:41:43Z</time>
      </trkpt>
      <trkpt lat="43.6332" lon="1.38626">
        <ele>143</ele>
        <time>2025-04-09T10:41:44Z</time>
      </trkpt>
      <trkpt lat="43.63316" lon="1.38629">
        <ele>143</ele>
        <time>2025-04-09T10:41:45Z</time>
      </trkpt>
      <trkpt lat="43.63312" lon="1.38631">
        <ele>143</ele>
        <time>2025-04-09T10:41:46Z</time>
      </trkpt>
      <trkpt lat="43.63309" lon="1.38633">
        <ele>143</ele>
        <time>2025-04-09T10:41:47Z</time>
      </trkpt>
      <trkpt lat="43.63303" lon="1.38636">
        <ele>143</ele>
        <time>2025-04-09T10:41:48Z</time>
      </trkpt>
      <trkpt lat="43.63303" lon="1.38636">
        <ele>143</ele>
        <time>2025-04-09T10:41:49Z</time>
      </trkpt>
      <trkpt lat="43.63303" lon="1.38636">
        <ele>144</ele>
        <time>2025-04-09T10:41:50Z</time>
      </trkpt>
      <trkpt lat="43.63294" lon="1.38641">
        <ele>144</ele>
        <time>2025-04-09T10:41:52Z</time>
      </trkpt>
      <trkpt lat="43.6329" lon="1.3864">
        <ele>144</ele>
        <time>2025-04-09T10:41:53Z</time>
      </trkpt>
      <trkpt lat="43.63287" lon="1.38639">
        <ele>144</ele>
        <time>2025-04-09T10:41:54Z</time>
      </trkpt>
      <trkpt lat="43.63284" lon="1.38638">
        <ele>144</ele>
        <time>2025-04-09T10:41:55Z</time>
      </trkpt>
      <trkpt lat="43.63283" lon="1.38633">
        <ele>143</ele>
        <time>2025-04-09T10:41:56Z</time>
      </trkpt>
      <trkpt lat="43.63282" lon="1.38628">
        <ele>143</ele>
        <time>2025-04-09T10:41:57Z</time>
      </trkpt>
      <trkpt lat="43.6328" lon="1.38623">
        <ele>143</ele>
        <time>2025-04-09T10:41:58Z</time>
      </trkpt>
      <trkpt lat="43.63279" lon="1.38617">
        <ele>143</ele>
        <time>2025-04-09T10:41:59Z</time>
      </trkpt>
      <trkpt lat="43.63278" lon="1.38612">
        <ele>143</ele>
        <time>2025-04-09T10:42:00Z</time>
      </trkpt>
      <trkpt lat="43.63276" lon="1.38606">
        <ele>143</ele>
        <time>2025-04-09T10:42:01Z</time>
      </trkpt>
      <trkpt lat="43.63275" lon="1.386">
        <ele>143</ele>
        <time>2025-04-09T10:42:02Z</time>
      </trkpt>
      <trkpt lat="43.63273" lon="1.38593">
        <ele>143</ele>
        <time>2025-04-09T10:42:03Z</time>
      </trkpt>
      <trkpt lat="43.63273" lon="1.38593">
        <ele>143</ele>
        <time>2025-04-09T10:42:04Z</time>
      </trkpt>
      <trkpt lat="43.63272" lon="1.38589">
        <ele>143</ele>
        <time>2025-04-09T10:42:05Z</time>
      </trkpt>
      <trkpt lat="43.6327" lon="1.38584">
        <ele>143</ele>
        <time>2025-04-09T10:42:06Z</time>
      </trkpt>
      <trkpt lat="43.63269" lon="1.3858">
        <ele>143</ele>
        <time>2025-04-09T10:42:07Z</time>
      </trkpt>
      <trkpt lat="43.63268" lon="1.38574">
        <ele>143</ele>
        <time>2025-04-09T10:42:08Z</time>
      </trkpt>
      <trkpt lat="43.63266" lon="1.38569">
        <ele>143</ele>
        <time>2025-04-09T10:42:09Z</time>
      </trkpt>
      <trkpt lat="43.63265" lon="1.38564">
        <ele>143</ele>
        <time>2025-04-09T10:42:10Z</time>
      </trkpt>
      <trkpt lat="43.63264" lon="1.38559">
        <ele>144</ele>
        <time>2025-04-09T10:42:11Z</time>
      </trkpt>
      <trkpt lat="43.63262" lon="1.38552">
        <ele>144</ele>
        <time>2025-04-09T10:42:12Z</time>
      </trkpt>
      <trkpt lat="43.63262" lon="1.38552">
        <ele>143</ele>
        <time>2025-04-09T10:42:14Z</time>
      </trkpt>
      <trkpt lat="43.63259" lon="1.38539">
        <ele>144</ele>
        <time>2025-04-09T10:42:15Z</time>
      </trkpt>
      <trkpt lat="43.63259" lon="1.38539">
        <ele>144</ele>
        <time>2025-04-09T10:42:16Z</time>
      </trkpt>
      <trkpt lat="43.63258" lon="1.38537">
        <ele>143</ele>
        <time>2025-04-09T10:42:17Z</time>
      </trkpt>
      <trkpt lat="43.63258" lon="1.38534">
        <ele>143</ele>
        <time>2025-04-09T10:42:18Z</time>
      </trkpt>
      <trkpt lat="43.63257" lon="1.38532">
        <ele>143</ele>
        <time>2025-04-09T10:42:19Z</time>
      </trkpt>
      <trkpt lat="43.63254" lon="1.38521">
        <ele>144</ele>
        <time>2025-04-09T10:42:20Z</time>
      </trkpt>
      <trkpt lat="43.63252" lon="1.38517">
        <ele>144</ele>
        <time>2025-04-09T10:42:21Z</time>
      </trkpt>
      <trkpt lat="43.63251" lon="1.38514">
        <ele>144</ele>
        <time>2025-04-09T10:42:22Z</time>
      </trkpt>
      <trkpt lat="43.63251" lon="1.38509">
        <ele>144</ele>
        <time>2025-04-09T10:42:23Z</time>
      </trkpt>
      <trkpt lat="43.63252" lon="1.38504">
        <ele>144</ele>
        <time>2025-04-09T10:42:24Z</time>
      </trkpt>
      <trkpt lat="43.63253" lon="1.38499">
        <ele>144</ele>
        <time>2025-04-09T10:42:25Z</time>
      </trkpt>
      <trkpt lat="43.63253" lon="1.38499">
        <ele>143</ele>
        <time>2025-04-09T10:42:26Z</time>
      </trkpt>
      <trkpt lat="43.63264" lon="1.38492">
        <ele>143</ele>
        <time>2025-04-09T10:42:27Z</time>
      </trkpt>
      <trkpt lat="43.63264" lon="1.38492">
        <ele>143</ele>
        <time>2025-04-09T10:42:29Z</time>
      </trkpt>
      <trkpt lat="43.63266" lon="1.3849">
        <ele>143</ele>
        <time>2025-04-09T10:42:30Z</time>
      </trkpt>
      <trkpt lat="43.63269" lon="1.38489">
        <ele>143</ele>
        <time>2025-04-09T10:42:31Z</time>
      </trkpt>
      <trkpt lat="43.63277" lon="1.38484">
        <ele>143</ele>
        <time>2025-04-09T10:42:32Z</time>
      </trkpt>
      <trkpt lat="43.6328" lon="1.38483">
        <ele>143</ele>
        <time>2025-04-09T10:42:33Z</time>
      </trkpt>
      <trkpt lat="43.63283" lon="1.38481">
        <ele>143</ele>
        <time>2025-04-09T10:42:34Z</time>
      </trkpt>
      <trkpt lat="43.63285" lon="1.3848">
        <ele>143</ele>
        <time>2025-04-09T10:42:35Z</time>
      </trkpt>
      <trkpt lat="43.63286" lon="1.38479">
        <ele>143</ele>
        <time>2025-04-09T10:42:36Z</time>
      </trkpt>
      <trkpt lat="43.63288" lon="1.38478">
        <ele>143</ele>
        <time>2025-04-09T10:42:37Z</time>
      </trkpt>
      <trkpt lat="43.63296" lon="1.38476">
        <ele>143</ele>
        <time>2025-04-09T10:42:38Z</time>
      </trkpt>
      <trkpt lat="43.63299" lon="1.38476">
        <ele>143</ele>
        <time>2025-04-09T10:42:39Z</time>
      </trkpt>
      <trkpt lat="43.63303" lon="1.38475">
        <ele>143</ele>
        <time>2025-04-09T10:42:40Z</time>
      </trkpt>
      <trkpt lat="43.63303" lon="1.38475">
        <ele>143</ele>
        <time>2025-04-09T10:42:41Z</time>
      </trkpt>
      <trkpt lat="43.63309" lon="1.3849">
        <ele>143</ele>
        <time>2025-04-09T10:42:42Z</time>
      </trkpt>
      <trkpt lat="43.63309" lon="1.3849">
        <ele>143</ele>
        <time>2025-04-09T10:42:44Z</time>
      </trkpt>
      <trkpt lat="43.6331" lon="1.38494">
        <ele>143</ele>
        <time>2025-04-09T10:42:45Z</time>
      </trkpt>
      <trkpt lat="43.63311" lon="1.38498">
        <ele>143</ele>
        <time>2025-04-09T10:42:46Z</time>
      </trkpt>
      <trkpt lat="43.63313" lon="1.38505">
        <ele>144</ele>
        <time>2025-04-09T10:42:47Z</time>
      </trkpt>
      <trkpt lat="43.63317" lon="1.38521">
        <ele>143</ele>
        <time>2025-04-09T10:42:49Z</time>
      </trkpt>
      <trkpt lat="43.63318" lon="1.38525">
        <ele>143</ele>
        <time>2025-04-09T10:42:50Z</time>
      </trkpt>
      <trkpt lat="43.63319" lon="1.3853">
        <ele>143</ele>
        <time>2025-04-09T10:42:51Z</time>
      </trkpt>
      <trkpt lat="43.6332" lon="1.38535">
        <ele>143</ele>
        <time>2025-04-09T10:42:52Z</time>
      </trkpt>
      <trkpt lat="43.6332" lon="1.38535">
        <ele>143</ele>
        <time>2025-04-09T10:42:53Z</time>
      </trkpt>
      <trkpt lat="43.63324" lon="1.38548">
        <ele>143</ele>
        <time>2025-04-09T10:42:54Z</time>
      </trkpt>
      <trkpt lat="43.63324" lon="1.38548">
        <ele>143</ele>
        <time>2025-04-09T10:42:56Z</time>
      </trkpt>
      <trkpt lat="43.63327" lon="1.38561">
        <ele>143</ele>
        <time>2025-04-09T10:42:57Z</time>
      </trkpt>
      <trkpt lat="43.63327" lon="1.38561">
        <ele>143</ele>
        <time>2025-04-09T10:42:58Z</time>
      </trkpt>
      <trkpt lat="43.63328" lon="1.38565">
        <ele>143</ele>
        <time>2025-04-09T10:42:59Z</time>
      </trkpt>
      <trkpt lat="43.6333" lon="1.3857">
        <ele>143</ele>
        <time>2025-04-09T10:43:00Z</time>
      </trkpt>
      <trkpt lat="43.63331" lon="1.38574">
        <ele>143</ele>
        <time>2025-04-09T10:43:01Z</time>
      </trkpt>
      <trkpt lat="43.63332" lon="1.38578">
        <ele>143</ele>
        <time>2025-04-09T10:43:02Z</time>
      </trkpt>
      <trkpt lat="43.63334" lon="1.38582">
        <ele>143</ele>
        <time>2025-04-09T10:43:03Z</time>
      </trkpt>
      <trkpt lat="43.63335" lon="1.38586">
        <ele>143</ele>
        <time>2025-04-09T10:43:04Z</time>
      </trkpt>
      <trkpt lat="43.63335" lon="1.38586">
        <ele>143</ele>
        <time>2025-04-09T10:43:05Z</time>
      </trkpt>
      <trkpt lat="43.63335" lon="1.38586">
        <ele>143</ele>
        <time>2025-04-09T10:43:06Z</time>
      </trkpt>
      <trkpt lat="43.63339" lon="1.38602">
        <ele>143</ele>
        <time>2025-04-09T10:43:08Z</time>
      </trkpt>
      <trkpt lat="43.63339" lon="1.38602">
        <ele>143</ele>
        <time>2025-04-09T10:43:09Z</time>
      </trkpt>
      <trkpt lat="43.63339" lon="1.38602">
        <ele>143</ele>
        <time>2025-04-09T10:43:10Z</time>
      </trkpt>
      <trkpt lat="43.63335" lon="1.38615">
        <ele>143</ele>
        <time>2025-04-09T10:43:11Z</time>
      </trkpt>
      <trkpt lat="43.63335" lon="1.38615">
        <ele>143</ele>
        <time>2025-04-09T10:43:13Z</time>
      </trkpt>
      <trkpt lat="43.63325" lon="1.3862">
        <ele>143</ele>
        <time>2025-04-09T10:43:14Z</time>
      </trkpt>
      <trkpt lat="43.63325" lon="1.3862">
        <ele>143</ele>
        <time>2025-04-09T10:43:15Z</time>
      </trkpt>
      <trkpt lat="43.63322" lon="1.38622">
        <ele>143</ele>
        <time>2025-04-09T10:43:16Z</time>
      </trkpt>
      <trkpt lat="43.63319" lon="1.38624">
        <ele>143</ele>
        <time>2025-04-09T10:43:17Z</time>
      </trkpt>
      <trkpt lat="43.63316" lon="1.38626">
        <ele>143</ele>
        <time>2025-04-09T10:43:18Z</time>
      </trkpt>
      <trkpt lat="43.63314" lon="1.38627">
        <ele>143</ele>
        <time>2025-04-09T10:43:19Z</time>
      </trkpt>
      <trkpt lat="43.63312" lon="1.38628">
        <ele>143</ele>
        <time>2025-04-09T10:43:20Z</time>
      </trkpt>
      <trkpt lat="43.63311" lon="1.38629">
        <ele>143</ele>
        <time>2025-04-09T10:43:21Z</time>
      </trkpt>
      <trkpt lat="43.63304" lon="1.38633">
        <ele>144</ele>
        <time>2025-04-09T10:43:22Z</time>
      </trkpt>
      <trkpt lat="43.63303" lon="1.38634">
        <ele>144</ele>
        <time>2025-04-09T10:43:23Z</time>
      </trkpt>
      <trkpt lat="43.63301" lon="1.38635">
        <ele>144</ele>
        <time>2025-04-09T10:43:24Z</time>
      </trkpt>
      <trkpt lat="43.63293" lon="1.38638">
        <ele>144</ele>
        <time>2025-04-09T10:43:25Z</time>
      </trkpt>
      <trkpt lat="43.6329" lon="1.38639">
        <ele>144</ele>
        <time>2025-04-09T10:43:27Z</time>
      </trkpt>
      <trkpt lat="43.63286" lon="1.3864">
        <ele>144</ele>
        <time>2025-04-09T10:43:28Z</time>
      </trkpt>
      <trkpt lat="43.63281" lon="1.38625">
        <ele>143</ele>
        <time>2025-04-09T10:43:29Z</time>
      </trkpt>
      <trkpt lat="43.63281" lon="1.38625">
        <ele>143</ele>
        <time>2025-04-09T10:43:30Z</time>
      </trkpt>
      <trkpt lat="43.6328" lon="1.38623">
        <ele>144</ele>
        <time>2025-04-09T10:43:31Z</time>
      </trkpt>
      <trkpt lat="43.6328" lon="1.38621">
        <ele>144</ele>
        <time>2025-04-09T10:43:32Z</time>
      </trkpt>
      <trkpt lat="43.63279" lon="1.38618">
        <ele>144</ele>
        <time>2025-04-09T10:43:33Z</time>
      </trkpt>
      <trkpt lat="43.63277" lon="1.38607">
        <ele>144</ele>
        <time>2025-04-09T10:43:34Z</time>
      </trkpt>
      <trkpt lat="43.63276" lon="1.38603">
        <ele>144</ele>
        <time>2025-04-09T10:43:35Z</time>
      </trkpt>
      <trkpt lat="43.63275" lon="1.38598">
        <ele>144</ele>
        <time>2025-04-09T10:43:36Z</time>
      </trkpt>
      <trkpt lat="43.63274" lon="1.38594">
        <ele>144</ele>
        <time>2025-04-09T10:43:37Z</time>
      </trkpt>
      <trkpt lat="43.63273" lon="1.3859">
        <ele>143</ele>
        <time>2025-04-09T10:43:38Z</time>
      </trkpt>
      <trkpt lat="43.63271" lon="1.38586">
        <ele>143</ele>
        <time>2025-04-09T10:43:39Z</time>
      </trkpt>
      <trkpt lat="43.63271" lon="1.38586">
        <ele>143</ele>
        <time>2025-04-09T10:43:40Z</time>
      </trkpt>
      <trkpt lat="43.63268" lon="1.38573">
        <ele>143</ele>
        <time>2025-04-09T10:43:41Z</time>
      </trkpt>
      <trkpt lat="43.63268" lon="1.38573">
        <ele>143</ele>
        <time>2025-04-09T10:43:43Z</time>
      </trkpt>
      <trkpt lat="43.63268" lon="1.38573">
        <ele>143</ele>
        <time>2025-04-09T10:43:44Z</time>
      </trkpt>
      <trkpt lat="43.63263" lon="1.38557">
        <ele>143</ele>
        <time>2025-04-09T10:43:46Z</time>
      </trkpt>
      <trkpt lat="43.63262" lon="1.38553">
        <ele>143</ele>
        <time>2025-04-09T10:43:47Z</time>
      </trkpt>
      <trkpt lat="43.63261" lon="1.38549">
        <ele>143</ele>
        <time>2025-04-09T10:43:48Z</time>
      </trkpt>
      <trkpt lat="43.63259" lon="1.38545">
        <ele>144</ele>
        <time>2025-04-09T10:43:49Z</time>
      </trkpt>
      <trkpt lat="43.63258" lon="1.3854">
        <ele>144</ele>
        <time>2025-04-09T10:43:50Z</time>
      </trkpt>
      <trkpt lat="43.63257" lon="1.38536">
        <ele>143</ele>
        <time>2025-04-09T10:43:51Z</time>
      </trkpt>
      <trkpt lat="43.63256" lon="1.38531">
        <ele>143</ele>
        <time>2025-04-09T10:43:52Z</time>
      </trkpt>
      <trkpt lat="43.63255" lon="1.38529">
        <ele>143</ele>
        <time>2025-04-09T10:43:53Z</time>
      </trkpt>
      <trkpt lat="43.63254" lon="1.38526">
        <ele>143</ele>
        <time>2025-04-09T10:43:54Z</time>
      </trkpt>
      <trkpt lat="43.63253" lon="1.38523">
        <ele>143</ele>
        <time>2025-04-09T10:43:55Z</time>
      </trkpt>
      <trkpt lat="43.63252" lon="1.3852">
        <ele>143</ele>
        <time>2025-04-09T10:43:56Z</time>
      </trkpt>
      <trkpt lat="43.63249" lon="1.38506">
        <ele>143</ele>
        <time>2025-04-09T10:43:57Z</time>
      </trkpt>
      <trkpt lat="43.63249" lon="1.38506">
        <ele>143</ele>
        <time>2025-04-09T10:43:58Z</time>
      </trkpt>
      <trkpt lat="43.63251" lon="1.38505">
        <ele>143</ele>
        <time>2025-04-09T10:43:59Z</time>
      </trkpt>
      <trkpt lat="43.63253" lon="1.38503">
        <ele>143</ele>
        <time>2025-04-09T10:44:00Z</time>
      </trkpt>
      <trkpt lat="43.63254" lon="1.38501">
        <ele>143</ele>
        <time>2025-04-09T10:44:01Z</time>
      </trkpt>
      <trkpt lat="43.63259" lon="1.38496">
        <ele>143</ele>
        <time>2025-04-09T10:44:02Z</time>
      </trkpt>
      <trkpt lat="43.63268" lon="1.38489">
        <ele>143</ele>
        <time>2025-04-09T10:44:03Z</time>
      </trkpt>
      <trkpt lat="43.63268" lon="1.38489">
        <ele>143</ele>
        <time>2025-04-09T10:44:05Z</time>
      </trkpt>
      <trkpt lat="43.63279" lon="1.38484">
        <ele>143</ele>
        <time>2025-04-09T10:44:06Z</time>
      </trkpt>
      <trkpt lat="43.63279" lon="1.38484">
        <ele>143</ele>
        <time>2025-04-09T10:44:07Z</time>
      </trkpt>
      <trkpt lat="43.63283" lon="1.38482">
        <ele>143</ele>
        <time>2025-04-09T10:44:08Z</time>
      </trkpt>
      <trkpt lat="43.63286" lon="1.3848">
        <ele>143</ele>
        <time>2025-04-09T10:44:09Z</time>
      </trkpt>
      <trkpt lat="43.6329" lon="1.38478">
        <ele>143</ele>
        <time>2025-04-09T10:44:10Z</time>
      </trkpt>
      <trkpt lat="43.63294" lon="1.38476">
        <ele>143</ele>
        <time>2025-04-09T10:44:11Z</time>
      </trkpt>
      <trkpt lat="43.63298" lon="1.38474">
        <ele>143</ele>
        <time>2025-04-09T10:44:12Z</time>
      </trkpt>
      <trkpt lat="43.63298" lon="1.38474">
        <ele>143</ele>
        <time>2025-04-09T10:44:13Z</time>
      </trkpt>
      <trkpt lat="43.633" lon="1.38475">
        <ele>143</ele>
        <time>2025-04-09T10:44:14Z</time>
      </trkpt>
      <trkpt lat="43.63301" lon="1.38477">
        <ele>143</ele>
        <time>2025-04-09T10:44:15Z</time>
      </trkpt>
      <trkpt lat="43.63303" lon="1.38478">
        <ele>143</ele>
        <time>2025-04-09T10:44:16Z</time>
      </trkpt>
      <trkpt lat="43.63309" lon="1.38488">
        <ele>143</ele>
        <time>2025-04-09T10:44:17Z</time>
      </trkpt>
      <trkpt lat="43.6331" lon="1.38493">
        <ele>143</ele>
        <time>2025-04-09T10:44:18Z</time>
      </trkpt>
      <trkpt lat="43.63311" lon="1.38498">
        <ele>143</ele>
        <time>2025-04-09T10:44:19Z</time>
      </trkpt>
      <trkpt lat="43.63313" lon="1.38504">
        <ele>143</ele>
        <time>2025-04-09T10:44:20Z</time>
      </trkpt>
      <trkpt lat="43.63314" lon="1.38509">
        <ele>143</ele>
        <time>2025-04-09T10:44:21Z</time>
      </trkpt>
      <trkpt lat="43.63316" lon="1.38515">
        <ele>143</ele>
        <time>2025-04-09T10:44:22Z</time>
      </trkpt>
      <trkpt lat="43.63317" lon="1.3852">
        <ele>143</ele>
        <time>2025-04-09T10:44:23Z</time>
      </trkpt>
      <trkpt lat="43.63319" lon="1.38527">
        <ele>143</ele>
        <time>2025-04-09T10:44:24Z</time>
      </trkpt>
      <trkpt lat="43.63319" lon="1.38527">
        <ele>143</ele>
        <time>2025-04-09T10:44:25Z</time>
      </trkpt>
      <trkpt lat="43.6332" lon="1.38532">
        <ele>143</ele>
        <time>2025-04-09T10:44:26Z</time>
      </trkpt>
      <trkpt lat="43.6332" lon="1.38537">
        <ele>143</ele>
        <time>2025-04-09T10:44:27Z</time>
      </trkpt>
      <trkpt lat="43.63321" lon="1.38541">
        <ele>143</ele>
        <time>2025-04-09T10:44:28Z</time>
      </trkpt>
      <trkpt lat="43.63321" lon="1.38544">
        <ele>143</ele>
        <time>2025-04-09T10:44:29Z</time>
      </trkpt>
      <trkpt lat="43.63322" lon="1.38546">
        <ele>143</ele>
        <time>2025-04-09T10:44:30Z</time>
      </trkpt>
      <trkpt lat="43.63323" lon="1.38548">
        <ele>143</ele>
        <time>2025-04-09T10:44:31Z</time>
      </trkpt>
      <trkpt lat="43.63325" lon="1.38557">
        <ele>143</ele>
        <time>2025-04-09T10:44:32Z</time>
      </trkpt>
      <trkpt lat="43.63326" lon="1.38559">
        <ele>143</ele>
        <time>2025-04-09T10:44:33Z</time>
      </trkpt>
      <trkpt lat="43.63326" lon="1.38562">
        <ele>143</ele>
        <time>2025-04-09T10:44:34Z</time>
      </trkpt>
      <trkpt lat="43.63328" lon="1.38569">
        <ele>143</ele>
        <time>2025-04-09T10:44:35Z</time>
      </trkpt>
      <trkpt lat="43.63333" lon="1.38581">
        <ele>143</ele>
        <time>2025-04-09T10:44:36Z</time>
      </trkpt>
      <trkpt lat="43.63333" lon="1.38581">
        <ele>143</ele>
        <time>2025-04-09T10:44:38Z</time>
      </trkpt>
      <trkpt lat="43.63337" lon="1.38595">
        <ele>143</ele>
        <time>2025-04-09T10:44:39Z</time>
      </trkpt>
      <trkpt lat="43.63337" lon="1.38595">
        <ele>143</ele>
        <time>2025-04-09T10:44:40Z</time>
      </trkpt>
      <trkpt lat="43.63337" lon="1.38595">
        <ele>143</ele>
        <time>2025-04-09T10:44:41Z</time>
      </trkpt>
      <trkpt lat="43.63341" lon="1.38607">
        <ele>143</ele>
        <time>2025-04-09T10:44:43Z</time>
      </trkpt>
      <trkpt lat="43.6334" lon="1.38609">
        <ele>143</ele>
        <time>2025-04-09T10:44:44Z</time>
      </trkpt>
      <trkpt lat="43.63339" lon="1.3861">
        <ele>143</ele>
        <time>2025-04-09T10:44:45Z</time>
      </trkpt>
      <trkpt lat="43.63338" lon="1.38612">
        <ele>143</ele>
        <time>2025-04-09T10:44:46Z</time>
      </trkpt>
      <trkpt lat="43.63336" lon="1.38613">
        <ele>143</ele>
        <time>2025-04-09T10:44:47Z</time>
      </trkpt>
      <trkpt lat="43.63328" lon="1.38621">
        <ele>144</ele>
        <time>2025-04-09T10:44:48Z</time>
      </trkpt>
      <trkpt lat="43.63325" lon="1.38623">
        <ele>144</ele>
        <time>2025-04-09T10:44:49Z</time>
      </trkpt>
      <trkpt lat="43.63321" lon="1.38625">
        <ele>144</ele>
        <time>2025-04-09T10:44:50Z</time>
      </trkpt>
      <trkpt lat="43.63319" lon="1.38627">
        <ele>144</ele>
        <time>2025-04-09T10:44:51Z</time>
      </trkpt>
      <trkpt lat="43.63316" lon="1.38628">
        <ele>144</ele>
        <time>2025-04-09T10:44:52Z</time>
      </trkpt>
      <trkpt lat="43.63313" lon="1.38629">
        <ele>144</ele>
        <time>2025-04-09T10:44:53Z</time>
      </trkpt>
      <trkpt lat="43.63311" lon="1.38631">
        <ele>144</ele>
        <time>2025-04-09T10:44:54Z</time>
      </trkpt>
      <trkpt lat="43.63308" lon="1.38632">
        <ele>144</ele>
        <time>2025-04-09T10:44:55Z</time>
      </trkpt>
      <trkpt lat="43.63306" lon="1.38633">
        <ele>144</ele>
        <time>2025-04-09T10:44:56Z</time>
      </trkpt>
      <trkpt lat="43.63298" lon="1.38638">
        <ele>144</ele>
        <time>2025-04-09T10:44:57Z</time>
      </trkpt>
      <trkpt lat="43.63295" lon="1.38639">
        <ele>144</ele>
        <time>2025-04-09T10:44:58Z</time>
      </trkpt>
      <trkpt lat="43.63292" lon="1.38641">
        <ele>144</ele>
        <time>2025-04-09T10:44:59Z</time>
      </trkpt>
      <trkpt lat="43.63292" lon="1.38641">
        <ele>144</ele>
        <time>2025-04-09T10:45:00Z</time>
      </trkpt>
      <trkpt lat="43.63283" lon="1.38633">
        <ele>143</ele>
        <time>2025-04-09T10:45:02Z</time>
      </trkpt>
      <trkpt lat="43.63281" lon="1.38628">
        <ele>143</ele>
        <time>2025-04-09T10:45:03Z</time>
      </trkpt>
      <trkpt lat="43.6328" lon="1.38622">
        <ele>143</ele>
        <time>2025-04-09T10:45:04Z</time>
      </trkpt>
      <trkpt lat="43.63278" lon="1.38617">
        <ele>143</ele>
        <time>2025-04-09T10:45:05Z</time>
      </trkpt>
      <trkpt lat="43.63276" lon="1.38612">
        <ele>143</ele>
        <time>2025-04-09T10:45:06Z</time>
      </trkpt>
      <trkpt lat="43.63275" lon="1.38605">
        <ele>143</ele>
        <time>2025-04-09T10:45:07Z</time>
      </trkpt>
      <trkpt lat="43.63275" lon="1.38605">
        <ele>143</ele>
        <time>2025-04-09T10:45:08Z</time>
      </trkpt>
      <trkpt lat="43.63274" lon="1.38602">
        <ele>143</ele>
        <time>2025-04-09T10:45:09Z</time>
      </trkpt>
      <trkpt lat="43.63274" lon="1.386">
        <ele>143</ele>
        <time>2025-04-09T10:45:10Z</time>
      </trkpt>
      <trkpt lat="43.63273" lon="1.38598">
        <ele>143</ele>
        <time>2025-04-09T10:45:11Z</time>
      </trkpt>
      <trkpt lat="43.63271" lon="1.38586">
        <ele>143</ele>
        <time>2025-04-09T10:45:12Z</time>
      </trkpt>
      <trkpt lat="43.6327" lon="1.38582">
        <ele>143</ele>
        <time>2025-04-09T10:45:13Z</time>
      </trkpt>
      <trkpt lat="43.63269" lon="1.38577">
        <ele>143</ele>
        <time>2025-04-09T10:45:14Z</time>
      </trkpt>
      <trkpt lat="43.63268" lon="1.38573">
        <ele>143</ele>
        <time>2025-04-09T10:45:15Z</time>
      </trkpt>
      <trkpt lat="43.63266" lon="1.38569">
        <ele>143</ele>
        <time>2025-04-09T10:45:16Z</time>
      </trkpt>
      <trkpt lat="43.63265" lon="1.38564">
        <ele>143</ele>
        <time>2025-04-09T10:45:17Z</time>
      </trkpt>
      <trkpt lat="43.63264" lon="1.38561">
        <ele>143</ele>
        <time>2025-04-09T10:45:18Z</time>
      </trkpt>
      <trkpt lat="43.63263" lon="1.38558">
        <ele>143</ele>
        <time>2025-04-09T10:45:19Z</time>
      </trkpt>
      <trkpt lat="43.63263" lon="1.38555">
        <ele>143</ele>
        <time>2025-04-09T10:45:20Z</time>
      </trkpt>
      <trkpt lat="43.63262" lon="1.38551">
        <ele>144</ele>
        <time>2025-04-09T10:45:21Z</time>
      </trkpt>
      <trkpt lat="43.6326" lon="1.38545">
        <ele>144</ele>
        <time>2025-04-09T10:45:22Z</time>
      </trkpt>
      <trkpt lat="43.63258" lon="1.38539">
        <ele>144</ele>
        <time>2025-04-09T10:45:23Z</time>
      </trkpt>
      <trkpt lat="43.63257" lon="1.38535">
        <ele>143</ele>
        <time>2025-04-09T10:45:24Z</time>
      </trkpt>
      <trkpt lat="43.63256" lon="1.38531">
        <ele>143</ele>
        <time>2025-04-09T10:45:25Z</time>
      </trkpt>
      <trkpt lat="43.63254" lon="1.38526">
        <ele>143</ele>
        <time>2025-04-09T10:45:26Z</time>
      </trkpt>
      <trkpt lat="43.63254" lon="1.38524">
        <ele>144</ele>
        <time>2025-04-09T10:45:27Z</time>
      </trkpt>
      <trkpt lat="43.63253" lon="1.38522">
        <ele>144</ele>
        <time>2025-04-09T10:45:28Z</time>
      </trkpt>
      <trkpt lat="43.63252" lon="1.3852">
        <ele>144</ele>
        <time>2025-04-09T10:45:29Z</time>
      </trkpt>
      <trkpt lat="43.63251" lon="1.38511">
        <ele>144</ele>
        <time>2025-04-09T10:45:30Z</time>
      </trkpt>
      <trkpt lat="43.63251" lon="1.38508">
        <ele>143</ele>
        <time>2025-04-09T10:45:31Z</time>
      </trkpt>
      <trkpt lat="43.63252" lon="1.38506">
        <ele>144</ele>
        <time>2025-04-09T10:45:32Z</time>
      </trkpt>
      <trkpt lat="43.63252" lon="1.38504">
        <ele>144</ele>
        <time>2025-04-09T10:45:33Z</time>
      </trkpt>
      <trkpt lat="43.63254" lon="1.38503">
        <ele>144</ele>
        <time>2025-04-09T10:45:34Z</time>
      </trkpt>
      <trkpt lat="43.63255" lon="1.38502">
        <ele>145</ele>
        <time>2025-04-09T10:45:35Z</time>
      </trkpt>
      <trkpt lat="43.63256" lon="1.38501">
        <ele>145</ele>
        <time>2025-04-09T10:45:36Z</time>
      </trkpt>
      <trkpt lat="43.63259" lon="1.385">
        <ele>145</ele>
        <time>2025-04-09T10:45:37Z</time>
      </trkpt>
      <trkpt lat="43.63259" lon="1.385">
        <ele>145</ele>
        <time>2025-04-09T10:45:38Z</time>
      </trkpt>
      <trkpt lat="43.63262" lon="1.38499">
        <ele>145</ele>
        <time>2025-04-09T10:45:40Z</time>
      </trkpt>
      <trkpt lat="43.63262" lon="1.38499">
        <ele>145</ele>
        <time>2025-04-09T10:45:41Z</time>
      </trkpt>
      <trkpt lat="43.63264" lon="1.38498">
        <ele>145</ele>
        <time>2025-04-09T10:45:42Z</time>
      </trkpt>
      <trkpt lat="43.6334" lon="1.38613">
        <ele>143</ele>
        <time>2025-04-09T10:47:59Z</time>
      </trkpt>
      <trkpt lat="43.6334" lon="1.38613">
        <ele>144</ele>
        <time>2025-04-09T10:48:01Z</time>
      </trkpt>
      <trkpt lat="43.63338" lon="1.38606">
        <ele>144</ele>
        <time>2025-04-09T10:48:02Z</time>
      </trkpt>
      <trkpt lat="43.63338" lon="1.38606">
        <ele>144</ele>
        <time>2025-04-09T10:48:03Z</time>
      </trkpt>
      <trkpt lat="43.63337" lon="1.38602">
        <ele>144</ele>
        <time>2025-04-09T10:48:04Z</time>
      </trkpt>
      <trkpt lat="43.63335" lon="1.38598">
        <ele>144</ele>
        <time>2025-04-09T10:48:05Z</time>
      </trkpt>
      <trkpt lat="43.63334" lon="1.38594">
        <ele>145</ele>
        <time>2025-04-09T10:48:06Z</time>
      </trkpt>
      <trkpt lat="43.63332" lon="1.3859">
        <ele>145</ele>
        <time>2025-04-09T10:48:07Z</time>
      </trkpt>
      <trkpt lat="43.63331" lon="1.38587">
        <ele>144</ele>
        <time>2025-04-09T10:48:08Z</time>
      </trkpt>
      <trkpt lat="43.6333" lon="1.38583">
        <ele>144</ele>
        <time>2025-04-09T10:48:09Z</time>
      </trkpt>
      <trkpt lat="43.63329" lon="1.38579">
        <ele>144</ele>
        <time>2025-04-09T10:48:10Z</time>
      </trkpt>
      <trkpt lat="43.63325" lon="1.38569">
        <ele>144</ele>
        <time>2025-04-09T10:48:11Z</time>
      </trkpt>
      <trkpt lat="43.63325" lon="1.38566">
        <ele>143</ele>
        <time>2025-04-09T10:48:12Z</time>
      </trkpt>
      <trkpt lat="43.63324" lon="1.38564">
        <ele>143</ele>
        <time>2025-04-09T10:48:13Z</time>
      </trkpt>
      <trkpt lat="43.63322" lon="1.38557">
        <ele>143</ele>
        <time>2025-04-09T10:48:14Z</time>
      </trkpt>
      <trkpt lat="43.63319" lon="1.3854">
        <ele>143</ele>
        <time>2025-04-09T10:48:15Z</time>
      </trkpt>
      <trkpt lat="43.63319" lon="1.3854">
        <ele>142</ele>
        <time>2025-04-09T10:48:17Z</time>
      </trkpt>
      <trkpt lat="43.63317" lon="1.38533">
        <ele>142</ele>
        <time>2025-04-09T10:48:18Z</time>
      </trkpt>
      <trkpt lat="43.63315" lon="1.38526">
        <ele>142</ele>
        <time>2025-04-09T10:48:19Z</time>
      </trkpt>
      <trkpt lat="43.63313" lon="1.3852">
        <ele>143</ele>
        <time>2025-04-09T10:48:20Z</time>
      </trkpt>
      <trkpt lat="43.63312" lon="1.38514">
        <ele>143</ele>
        <time>2025-04-09T10:48:21Z</time>
      </trkpt>
      <trkpt lat="43.63312" lon="1.38514">
        <ele>143</ele>
        <time>2025-04-09T10:48:22Z</time>
      </trkpt>
      <trkpt lat="43.6331" lon="1.38509">
        <ele>143</ele>
        <time>2025-04-09T10:48:23Z</time>
      </trkpt>
      <trkpt lat="43.63309" lon="1.38505">
        <ele>143</ele>
        <time>2025-04-09T10:48:24Z</time>
      </trkpt>
      <trkpt lat="43.63308" lon="1.38501">
        <ele>143</ele>
        <time>2025-04-09T10:48:25Z</time>
      </trkpt>
      <trkpt lat="43.63308" lon="1.38501">
        <ele>143</ele>
        <time>2025-04-09T10:48:26Z</time>
      </trkpt>
      <trkpt lat="43.63304" lon="1.38487">
        <ele>143</ele>
        <time>2025-04-09T10:48:27Z</time>
      </trkpt>
      <trkpt lat="43.63304" lon="1.38487">
        <ele>143</ele>
        <time>2025-04-09T10:48:29Z</time>
      </trkpt>
      <trkpt lat="43.63303" lon="1.38485">
        <ele>142</ele>
        <time>2025-04-09T10:48:30Z</time>
      </trkpt>
      <trkpt lat="43.63301" lon="1.38484">
        <ele>142</ele>
        <time>2025-04-09T10:48:31Z</time>
      </trkpt>
      <trkpt lat="43.633" lon="1.38483">
        <ele>143</ele>
        <time>2025-04-09T10:48:32Z</time>
      </trkpt>
      <trkpt lat="43.63292" lon="1.38482">
        <ele>143</ele>
        <time>2025-04-09T10:48:33Z</time>
      </trkpt>
      <trkpt lat="43.63289" lon="1.38484">
        <ele>143</ele>
        <time>2025-04-09T10:48:34Z</time>
      </trkpt>
      <trkpt lat="43.63286" lon="1.38486">
        <ele>143</ele>
        <time>2025-04-09T10:48:35Z</time>
      </trkpt>
      <trkpt lat="43.63286" lon="1.38486">
        <ele>143</ele>
        <time>2025-04-09T10:48:36Z</time>
      </trkpt>
      <trkpt lat="43.63277" lon="1.38492">
        <ele>144</ele>
        <time>2025-04-09T10:48:37Z</time>
      </trkpt>
      <trkpt lat="43.63277" lon="1.38492">
        <ele>144</ele>
        <time>2025-04-09T10:48:39Z</time>
      </trkpt>
      <trkpt lat="43.63274" lon="1.38494">
        <ele>144</ele>
        <time>2025-04-09T10:48:40Z</time>
      </trkpt>
      <trkpt lat="43.63272" lon="1.38495">
        <ele>144</ele>
        <time>2025-04-09T10:48:41Z</time>
      </trkpt>
      <trkpt lat="43.63267" lon="1.38499">
        <ele>144</ele>
        <time>2025-04-09T10:48:42Z</time>
      </trkpt>
      <trkpt lat="43.63258" lon="1.38504">
        <ele>144</ele>
        <time>2025-04-09T10:48:43Z</time>
      </trkpt>
      <trkpt lat="43.63258" lon="1.38504">
        <ele>143</ele>
        <time>2025-04-09T10:48:45Z</time>
      </trkpt>
      <trkpt lat="43.63255" lon="1.3851">
        <ele>143</ele>
        <time>2025-04-09T10:48:46Z</time>
      </trkpt>
      <trkpt lat="43.63253" lon="1.38515">
        <ele>143</ele>
        <time>2025-04-09T10:48:47Z</time>
      </trkpt>
      <trkpt lat="43.63254" lon="1.3852">
        <ele>143</ele>
        <time>2025-04-09T10:48:48Z</time>
      </trkpt>
      <trkpt lat="43.63255" lon="1.38524">
        <ele>144</ele>
        <time>2025-04-09T10:48:49Z</time>
      </trkpt>
      <trkpt lat="43.63256" lon="1.38528">
        <ele>144</ele>
        <time>2025-04-09T10:48:50Z</time>
      </trkpt>
      <trkpt lat="43.63256" lon="1.38531">
        <ele>144</ele>
        <time>2025-04-09T10:48:51Z</time>
      </trkpt>
      <trkpt lat="43.63257" lon="1.38533">
        <ele>144</ele>
        <time>2025-04-09T10:48:52Z</time>
      </trkpt>
      <trkpt lat="43.63258" lon="1.38535">
        <ele>144</ele>
        <time>2025-04-09T10:48:53Z</time>
      </trkpt>
      <trkpt lat="43.63261" lon="1.38547">
        <ele>144</ele>
        <time>2025-04-09T10:48:54Z</time>
      </trkpt>
      <trkpt lat="43.63263" lon="1.38551">
        <ele>144</ele>
        <time>2025-04-09T10:48:55Z</time>
      </trkpt>
      <trkpt lat="43.63264" lon="1.38556">
        <ele>144</ele>
        <time>2025-04-09T10:48:56Z</time>
      </trkpt>
      <trkpt lat="43.63265" lon="1.3856">
        <ele>144</ele>
        <time>2025-04-09T10:48:58Z</time>
      </trkpt>
      <trkpt lat="43.63266" lon="1.38564">
        <ele>144</ele>
        <time>2025-04-09T10:48:59Z</time>
      </trkpt>
      <trkpt lat="43.63268" lon="1.38568">
        <ele>143</ele>
        <time>2025-04-09T10:49:00Z</time>
      </trkpt>
      <trkpt lat="43.63272" lon="1.38583">
        <ele>143</ele>
        <time>2025-04-09T10:49:01Z</time>
      </trkpt>
      <trkpt lat="43.63272" lon="1.38585">
        <ele>143</ele>
        <time>2025-04-09T10:49:02Z</time>
      </trkpt>
      <trkpt lat="43.63272" lon="1.38585">
        <ele>143</ele>
        <time>2025-04-09T10:49:03Z</time>
      </trkpt>
      <trkpt lat="43.63274" lon="1.38589">
        <ele>144</ele>
        <time>2025-04-09T10:49:04Z</time>
      </trkpt>
      <trkpt lat="43.63276" lon="1.38593">
        <ele>144</ele>
        <time>2025-04-09T10:49:05Z</time>
      </trkpt>
      <trkpt lat="43.63277" lon="1.38597">
        <ele>144</ele>
        <time>2025-04-09T10:49:06Z</time>
      </trkpt>
      <trkpt lat="43.63279" lon="1.38601">
        <ele>144</ele>
        <time>2025-04-09T10:49:07Z</time>
      </trkpt>
      <trkpt lat="43.6328" lon="1.38605">
        <ele>144</ele>
        <time>2025-04-09T10:49:08Z</time>
      </trkpt>
      <trkpt lat="43.63281" lon="1.38609">
        <ele>144</ele>
        <time>2025-04-09T10:49:09Z</time>
      </trkpt>
      <trkpt lat="43.63282" lon="1.38613">
        <ele>144</ele>
        <time>2025-04-09T10:49:10Z</time>
      </trkpt>
      <trkpt lat="43.63284" lon="1.38618">
        <ele>144</ele>
        <time>2025-04-09T10:49:11Z</time>
      </trkpt>
      <trkpt lat="43.63285" lon="1.38622">
        <ele>144</ele>
        <time>2025-04-09T10:49:12Z</time>
      </trkpt>
      <trkpt lat="43.63285" lon="1.38622">
        <ele>144</ele>
        <time>2025-04-09T10:49:13Z</time>
      </trkpt>
      <trkpt lat="43.63289" lon="1.38635">
        <ele>144</ele>
        <time>2025-04-09T10:49:14Z</time>
      </trkpt>
      <trkpt lat="43.63289" lon="1.38635">
        <ele>144</ele>
        <time>2025-04-09T10:49:16Z</time>
      </trkpt>
      <trkpt lat="43.63294" lon="1.38634">
        <ele>144</ele>
        <time>2025-04-09T10:49:17Z</time>
      </trkpt>
      <trkpt lat="43.63298" lon="1.38634">
        <ele>144</ele>
        <time>2025-04-09T10:49:18Z</time>
      </trkpt>
      <trkpt lat="43.63303" lon="1.38634">
        <ele>143</ele>
        <time>2025-04-09T10:49:19Z</time>
      </trkpt>
      <trkpt lat="43.63308" lon="1.3863">
        <ele>143</ele>
        <time>2025-04-09T10:49:20Z</time>
      </trkpt>
      <trkpt lat="43.63309" lon="1.38629">
        <ele>143</ele>
        <time>2025-04-09T10:49:21Z</time>
      </trkpt>
      <trkpt lat="43.63309" lon="1.38629">
        <ele>143</ele>
        <time>2025-04-09T10:49:22Z</time>
      </trkpt>
      <trkpt lat="43.63317" lon="1.38622">
        <ele>143</ele>
        <time>2025-04-09T10:49:23Z</time>
      </trkpt>
      <trkpt lat="43.63318" lon="1.3862">
        <ele>143</ele>
        <time>2025-04-09T10:49:24Z</time>
      </trkpt>
      <trkpt lat="43.63318" lon="1.3862">
        <ele>144</ele>
        <time>2025-04-09T10:49:25Z</time>
      </trkpt>
      <trkpt lat="43.63321" lon="1.38618">
        <ele>144</ele>
        <time>2025-04-09T10:49:26Z</time>
      </trkpt>
      <trkpt lat="43.63321" lon="1.38618">
        <ele>144</ele>
        <time>2025-04-09T10:49:27Z</time>
      </trkpt>
      <trkpt lat="43.63331" lon="1.38612">
        <ele>144</ele>
        <time>2025-04-09T10:49:28Z</time>
      </trkpt>
      <trkpt lat="43.63331" lon="1.38612">
        <ele>143</ele>
        <time>2025-04-09T10:49:30Z</time>
      </trkpt>
      <trkpt lat="43.63337" lon="1.38609">
        <ele>143</ele>
        <time>2025-04-09T10:49:31Z</time>
      </trkpt>
      <trkpt lat="43.63339" lon="1.38607">
        <ele>143</ele>
        <time>2025-04-09T10:49:32Z</time>
      </trkpt>
      <trkpt lat="43.63339" lon="1.38607">
        <ele>143</ele>
        <time>2025-04-09T10:49:33Z</time>
      </trkpt>
      <trkpt lat="43.63337" lon="1.38594">
        <ele>143</ele>
        <time>2025-04-09T10:49:34Z</time>
      </trkpt>
      <trkpt lat="43.63337" lon="1.38594">
        <ele>143</ele>
        <time>2025-04-09T10:49:36Z</time>
      </trkpt>
      <trkpt lat="43.63336" lon="1.38591">
        <ele>143</ele>
        <time>2025-04-09T10:49:37Z</time>
      </trkpt>
      <trkpt lat="43.63334" lon="1.38588">
        <ele>143</ele>
        <time>2025-04-09T10:49:38Z</time>
      </trkpt>
      <trkpt lat="43.6333" lon="1.38577">
        <ele>143</ele>
        <time>2025-04-09T10:49:39Z</time>
      </trkpt>
      <trkpt lat="43.63329" lon="1.38573">
        <ele>143</ele>
        <time>2025-04-09T10:49:40Z</time>
      </trkpt>
      <trkpt lat="43.63328" lon="1.38569">
        <ele>143</ele>
        <time>2025-04-09T10:49:41Z</time>
      </trkpt>
      <trkpt lat="43.63327" lon="1.38566">
        <ele>143</ele>
        <time>2025-04-09T10:49:42Z</time>
      </trkpt>
      <trkpt lat="43.63326" lon="1.38563">
        <ele>143</ele>
        <time>2025-04-09T10:49:43Z</time>
      </trkpt>
      <trkpt lat="43.63324" lon="1.38561">
        <ele>143</ele>
        <time>2025-04-09T10:49:44Z</time>
      </trkpt>
      <trkpt lat="43.63323" lon="1.38558">
        <ele>143</ele>
        <time>2025-04-09T10:49:45Z</time>
      </trkpt>
      <trkpt lat="43.63323" lon="1.38554">
        <ele>143</ele>
        <time>2025-04-09T10:49:46Z</time>
      </trkpt>
      <trkpt lat="43.63322" lon="1.3855">
        <ele>143</ele>
        <time>2025-04-09T10:49:47Z</time>
      </trkpt>
      <trkpt lat="43.63319" lon="1.38539">
        <ele>143</ele>
        <time>2025-04-09T10:49:48Z</time>
      </trkpt>
      <trkpt lat="43.63318" lon="1.38534">
        <ele>143</ele>
        <time>2025-04-09T10:49:49Z</time>
      </trkpt>
      <trkpt lat="43.63317" lon="1.3853">
        <ele>143</ele>
        <time>2025-04-09T10:49:50Z</time>
      </trkpt>
      <trkpt lat="43.63316" lon="1.38526">
        <ele>144</ele>
        <time>2025-04-09T10:49:51Z</time>
      </trkpt>
      <trkpt lat="43.63314" lon="1.38522">
        <ele>144</ele>
        <time>2025-04-09T10:49:52Z</time>
      </trkpt>
      <trkpt lat="43.63313" lon="1.38518">
        <ele>143</ele>
        <time>2025-04-09T10:49:53Z</time>
      </trkpt>
      <trkpt lat="43.63309" lon="1.38504">
        <ele>143</ele>
        <time>2025-04-09T10:49:55Z</time>
      </trkpt>
      <trkpt lat="43.63309" lon="1.38504">
        <ele>143</ele>
        <time>2025-04-09T10:49:56Z</time>
      </trkpt>
      <trkpt lat="43.63309" lon="1.38504">
        <ele>143</ele>
        <time>2025-04-09T10:49:57Z</time>
      </trkpt>
      <trkpt lat="43.63306" lon="1.38492">
        <ele>143</ele>
        <time>2025-04-09T10:49:58Z</time>
      </trkpt>
      <trkpt lat="43.63306" lon="1.38492">
        <ele>143</ele>
        <time>2025-04-09T10:50:00Z</time>
      </trkpt>
      <trkpt lat="43.63304" lon="1.38486">
        <ele>143</ele>
        <time>2025-04-09T10:50:01Z</time>
      </trkpt>
      <trkpt lat="43.63302" lon="1.3848">
        <ele>143</ele>
        <time>2025-04-09T10:50:02Z</time>
      </trkpt>
      <trkpt lat="43.633" lon="1.38481">
        <ele>143</ele>
        <time>2025-04-09T10:50:03Z</time>
      </trkpt>
      <trkpt lat="43.63297" lon="1.38481">
        <ele>143</ele>
        <time>2025-04-09T10:50:04Z</time>
      </trkpt>
      <trkpt lat="43.63295" lon="1.38482">
        <ele>143</ele>
        <time>2025-04-09T10:50:05Z</time>
      </trkpt>
      <trkpt lat="43.63292" lon="1.38483">
        <ele>143</ele>
        <time>2025-04-09T10:50:06Z</time>
      </trkpt>
      <trkpt lat="43.63291" lon="1.38484">
        <ele>143</ele>
        <time>2025-04-09T10:50:07Z</time>
      </trkpt>
      <trkpt lat="43.63289" lon="1.38485">
        <ele>143</ele>
        <time>2025-04-09T10:50:08Z</time>
      </trkpt>
      <trkpt lat="43.63287" lon="1.38486">
        <ele>143</ele>
        <time>2025-04-09T10:50:09Z</time>
      </trkpt>
      <trkpt lat="43.63279" lon="1.38491">
        <ele>143</ele>
        <time>2025-04-09T10:50:10Z</time>
      </trkpt>
      <trkpt lat="43.63276" lon="1.38493">
        <ele>143</ele>
        <time>2025-04-09T10:50:11Z</time>
      </trkpt>
      <trkpt lat="43.63273" lon="1.38495">
        <ele>144</ele>
        <time>2025-04-09T10:50:12Z</time>
      </trkpt>
      <trkpt lat="43.6327" lon="1.38496">
        <ele>144</ele>
        <time>2025-04-09T10:50:14Z</time>
      </trkpt>
      <trkpt lat="43.63267" lon="1.38498">
        <ele>144</ele>
        <time>2025-04-09T10:50:15Z</time>
      </trkpt>
      <trkpt lat="43.63263" lon="1.385">
        <ele>144</ele>
        <time>2025-04-09T10:50:16Z</time>
      </trkpt>
      <trkpt lat="43.63259" lon="1.38503">
        <ele>144</ele>
        <time>2025-04-09T10:50:17Z</time>
      </trkpt>
      <trkpt lat="43.63255" lon="1.38506">
        <ele>144</ele>
        <time>2025-04-09T10:50:18Z</time>
      </trkpt>
      <trkpt lat="43.63254" lon="1.3851">
        <ele>143</ele>
        <time>2025-04-09T10:50:19Z</time>
      </trkpt>
      <trkpt lat="43.63254" lon="1.38515">
        <ele>144</ele>
        <time>2025-04-09T10:50:20Z</time>
      </trkpt>
      <trkpt lat="43.63254" lon="1.38519">
        <ele>144</ele>
        <time>2025-04-09T10:50:21Z</time>
      </trkpt>
      <trkpt lat="43.63255" lon="1.38523">
        <ele>145</ele>
        <time>2025-04-09T10:50:22Z</time>
      </trkpt>
      <trkpt lat="43.63257" lon="1.38527">
        <ele>145</ele>
        <time>2025-04-09T10:50:23Z</time>
      </trkpt>
      <trkpt lat="43.63258" lon="1.38532">
        <ele>145</ele>
        <time>2025-04-09T10:50:24Z</time>
      </trkpt>
      <trkpt lat="43.63259" lon="1.38536">
        <ele>145</ele>
        <time>2025-04-09T10:50:25Z</time>
      </trkpt>
      <trkpt lat="43.63261" lon="1.3854">
        <ele>144</ele>
        <time>2025-04-09T10:50:26Z</time>
      </trkpt>
      <trkpt lat="43.63262" lon="1.38545">
        <ele>144</ele>
        <time>2025-04-09T10:50:27Z</time>
      </trkpt>
      <trkpt lat="43.63262" lon="1.38545">
        <ele>144</ele>
        <time>2025-04-09T10:50:28Z</time>
      </trkpt>
      <trkpt lat="43.63267" lon="1.38558">
        <ele>144</ele>
        <time>2025-04-09T10:50:29Z</time>
      </trkpt>
      <trkpt lat="43.63267" lon="1.38558">
        <ele>145</ele>
        <time>2025-04-09T10:50:31Z</time>
      </trkpt>
      <trkpt lat="43.63271" lon="1.38571">
        <ele>145</ele>
        <time>2025-04-09T10:50:33Z</time>
      </trkpt>
      <trkpt lat="43.63272" lon="1.38575">
        <ele>145</ele>
        <time>2025-04-09T10:50:34Z</time>
      </trkpt>
      <trkpt lat="43.63273" lon="1.3858">
        <ele>144</ele>
        <time>2025-04-09T10:50:35Z</time>
      </trkpt>
      <trkpt lat="43.63274" lon="1.38584">
        <ele>144</ele>
        <time>2025-04-09T10:50:36Z</time>
      </trkpt>
      <trkpt lat="43.63275" lon="1.38588">
        <ele>144</ele>
        <time>2025-04-09T10:50:37Z</time>
      </trkpt>
      <trkpt lat="43.63276" lon="1.38592">
        <ele>144</ele>
        <time>2025-04-09T10:50:38Z</time>
      </trkpt>
      <trkpt lat="43.63277" lon="1.38596">
        <ele>144</ele>
        <time>2025-04-09T10:50:39Z</time>
      </trkpt>
      <trkpt lat="43.63278" lon="1.386">
        <ele>144</ele>
        <time>2025-04-09T10:50:40Z</time>
      </trkpt>
      <trkpt lat="43.6328" lon="1.38604">
        <ele>144</ele>
        <time>2025-04-09T10:50:41Z</time>
      </trkpt>
      <trkpt lat="43.63281" lon="1.38608">
        <ele>144</ele>
        <time>2025-04-09T10:50:42Z</time>
      </trkpt>
      <trkpt lat="43.63281" lon="1.38611">
        <ele>144</ele>
        <time>2025-04-09T10:50:43Z</time>
      </trkpt>
      <trkpt lat="43.63282" lon="1.38615">
        <ele>144</ele>
        <time>2025-04-09T10:50:44Z</time>
      </trkpt>
      <trkpt lat="43.63283" lon="1.38618">
        <ele>144</ele>
        <time>2025-04-09T10:50:45Z</time>
      </trkpt>
      <trkpt lat="43.63283" lon="1.38621">
        <ele>145</ele>
        <time>2025-04-09T10:50:46Z</time>
      </trkpt>
      <trkpt lat="43.63285" lon="1.38628">
        <ele>145</ele>
        <time>2025-04-09T10:50:47Z</time>
      </trkpt>
      <trkpt lat="43.63287" lon="1.38634">
        <ele>144</ele>
        <time>2025-04-09T10:50:48Z</time>
      </trkpt>
      <trkpt lat="43.63287" lon="1.38634">
        <ele>144</ele>
        <time>2025-04-09T10:50:49Z</time>
      </trkpt>
      <trkpt lat="43.63287" lon="1.38634">
        <ele>144</ele>
        <time>2025-04-09T10:50:50Z</time>
      </trkpt>
      <trkpt lat="43.63297" lon="1.38637">
        <ele>144</ele>
        <time>2025-04-09T10:50:52Z</time>
      </trkpt>
      <trkpt lat="43.633" lon="1.38634">
        <ele>144</ele>
        <time>2025-04-09T10:50:53Z</time>
      </trkpt>
      <trkpt lat="43.63303" lon="1.38632">
        <ele>144</ele>
        <time>2025-04-09T10:50:54Z</time>
      </trkpt>
      <trkpt lat="43.63306" lon="1.3863">
        <ele>144</ele>
        <time>2025-04-09T10:50:55Z</time>
      </trkpt>
      <trkpt lat="43.63309" lon="1.38627">
        <ele>144</ele>
        <time>2025-04-09T10:50:56Z</time>
      </trkpt>
      <trkpt lat="43.63312" lon="1.38624">
        <ele>144</ele>
        <time>2025-04-09T10:50:57Z</time>
      </trkpt>
      <trkpt lat="43.63315" lon="1.38621">
        <ele>144</ele>
        <time>2025-04-09T10:50:58Z</time>
      </trkpt>
      <trkpt lat="43.63317" lon="1.38619">
        <ele>144</ele>
        <time>2025-04-09T10:50:59Z</time>
      </trkpt>
      <trkpt lat="43.63319" lon="1.38617">
        <ele>144</ele>
        <time>2025-04-09T10:51:00Z</time>
      </trkpt>
      <trkpt lat="43.63322" lon="1.38616">
        <ele>144</ele>
        <time>2025-04-09T10:51:01Z</time>
      </trkpt>
      <trkpt lat="43.63324" lon="1.38614">
        <ele>144</ele>
        <time>2025-04-09T10:51:02Z</time>
      </trkpt>
      <trkpt lat="43.63333" lon="1.38611">
        <ele>145</ele>
        <time>2025-04-09T10:51:03Z</time>
      </trkpt>
      <trkpt lat="43.63333" lon="1.38611">
        <ele>145</ele>
        <time>2025-04-09T10:51:04Z</time>
      </trkpt>
      <trkpt lat="43.63337" lon="1.38608">
        <ele>145</ele>
        <time>2025-04-09T10:51:05Z</time>
      </trkpt>
      <trkpt lat="43.63339" lon="1.38606">
        <ele>144</ele>
        <time>2025-04-09T10:51:06Z</time>
      </trkpt>
      <trkpt lat="43.63339" lon="1.38602">
        <ele>144</ele>
        <time>2025-04-09T10:51:07Z</time>
      </trkpt>
      <trkpt lat="43.63339" lon="1.38602">
        <ele>144</ele>
        <time>2025-04-09T10:51:08Z</time>
      </trkpt>
      <trkpt lat="43.63335" lon="1.38589">
        <ele>144</ele>
        <time>2025-04-09T10:51:09Z</time>
      </trkpt>
      <trkpt lat="43.63335" lon="1.38589">
        <ele>145</ele>
        <time>2025-04-09T10:51:11Z</time>
      </trkpt>
      <trkpt lat="43.63333" lon="1.38583">
        <ele>145</ele>
        <time>2025-04-09T10:51:12Z</time>
      </trkpt>
      <trkpt lat="43.6333" lon="1.38577">
        <ele>145</ele>
        <time>2025-04-09T10:51:13Z</time>
      </trkpt>
      <trkpt lat="43.6333" lon="1.38577">
        <ele>144</ele>
        <time>2025-04-09T10:51:14Z</time>
      </trkpt>
      <trkpt lat="43.63326" lon="1.38566">
        <ele>144</ele>
        <time>2025-04-09T10:51:15Z</time>
      </trkpt>
      <trkpt lat="43.63326" lon="1.38566">
        <ele>144</ele>
        <time>2025-04-09T10:51:17Z</time>
      </trkpt>
      <trkpt lat="43.63324" lon="1.3856">
        <ele>144</ele>
        <time>2025-04-09T10:51:18Z</time>
      </trkpt>
      <trkpt lat="43.63321" lon="1.38555">
        <ele>144</ele>
        <time>2025-04-09T10:51:19Z</time>
      </trkpt>
      <trkpt lat="43.6332" lon="1.38551">
        <ele>144</ele>
        <time>2025-04-09T10:51:20Z</time>
      </trkpt>
      <trkpt lat="43.63319" lon="1.38546">
        <ele>145</ele>
        <time>2025-04-09T10:51:21Z</time>
      </trkpt>
      <trkpt lat="43.63318" lon="1.38542">
        <ele>145</ele>
        <time>2025-04-09T10:51:22Z</time>
      </trkpt>
      <trkpt lat="43.63317" lon="1.38537">
        <ele>145</ele>
        <time>2025-04-09T10:51:23Z</time>
      </trkpt>
      <trkpt lat="43.63316" lon="1.38533">
        <ele>145</ele>
        <time>2025-04-09T10:51:24Z</time>
      </trkpt>
      <trkpt lat="43.63316" lon="1.38528">
        <ele>144</ele>
        <time>2025-04-09T10:51:25Z</time>
      </trkpt>
      <trkpt lat="43.63315" lon="1.38525">
        <ele>144</ele>
        <time>2025-04-09T10:51:26Z</time>
      </trkpt>
      <trkpt lat="43.63314" lon="1.38523">
        <ele>144</ele>
        <time>2025-04-09T10:51:27Z</time>
      </trkpt>
      <trkpt lat="43.63313" lon="1.3852">
        <ele>144</ele>
        <time>2025-04-09T10:51:28Z</time>
      </trkpt>
      <trkpt lat="43.63308" lon="1.38503">
        <ele>144</ele>
        <time>2025-04-09T10:51:30Z</time>
      </trkpt>
      <trkpt lat="43.63308" lon="1.38503">
        <ele>144</ele>
        <time>2025-04-09T10:51:32Z</time>
      </trkpt>
      <trkpt lat="43.63306" lon="1.38497">
        <ele>144</ele>
        <time>2025-04-09T10:51:33Z</time>
      </trkpt>
      <trkpt lat="43.63305" lon="1.38491">
        <ele>143</ele>
        <time>2025-04-09T10:51:34Z</time>
      </trkpt>
      <trkpt lat="43.63304" lon="1.38489">
        <ele>143</ele>
        <time>2025-04-09T10:51:35Z</time>
      </trkpt>
      <trkpt lat="43.63303" lon="1.38487">
        <ele>143</ele>
        <time>2025-04-09T10:51:36Z</time>
      </trkpt>
      <trkpt lat="43.63303" lon="1.38486">
        <ele>143</ele>
        <time>2025-04-09T10:51:37Z</time>
      </trkpt>
      <trkpt lat="43.63302" lon="1.38484">
        <ele>143</ele>
        <time>2025-04-09T10:51:38Z</time>
      </trkpt>
      <trkpt lat="43.63296" lon="1.3848">
        <ele>144</ele>
        <time>2025-04-09T10:51:39Z</time>
      </trkpt>
      <trkpt lat="43.63293" lon="1.38482">
        <ele>144</ele>
        <time>2025-04-09T10:51:40Z</time>
      </trkpt>
      <trkpt lat="43.63291" lon="1.38484">
        <ele>144</ele>
        <time>2025-04-09T10:51:41Z</time>
      </trkpt>
      <trkpt lat="43.63288" lon="1.38486">
        <ele>144</ele>
        <time>2025-04-09T10:51:42Z</time>
      </trkpt>
      <trkpt lat="43.63285" lon="1.38488">
        <ele>144</ele>
        <time>2025-04-09T10:51:43Z</time>
      </trkpt>
      <trkpt lat="43.63282" lon="1.3849">
        <ele>144</ele>
        <time>2025-04-09T10:51:44Z</time>
      </trkpt>
      <trkpt lat="43.63279" lon="1.38491">
        <ele>144</ele>
        <time>2025-04-09T10:51:45Z</time>
      </trkpt>
      <trkpt lat="43.63277" lon="1.38492">
        <ele>144</ele>
        <time>2025-04-09T10:51:46Z</time>
      </trkpt>
      <trkpt lat="43.63275" lon="1.38494">
        <ele>144</ele>
        <time>2025-04-09T10:51:47Z</time>
      </trkpt>
      <trkpt lat="43.63272" lon="1.38495">
        <ele>144</ele>
        <time>2025-04-09T10:51:48Z</time>
      </trkpt>
      <trkpt lat="43.63267" lon="1.38498">
        <ele>144</ele>
        <time>2025-04-09T10:51:49Z</time>
      </trkpt>
      <trkpt lat="43.63263" lon="1.385">
        <ele>144</ele>
        <time>2025-04-09T10:51:50Z</time>
      </trkpt>
      <trkpt lat="43.6326" lon="1.38502">
        <ele>145</ele>
        <time>2025-04-09T10:51:51Z</time>
      </trkpt>
      <trkpt lat="43.63257" lon="1.38505">
        <ele>145</ele>
        <time>2025-04-09T10:51:52Z</time>
      </trkpt>
      <trkpt lat="43.63254" lon="1.38507">
        <ele>145</ele>
        <time>2025-04-09T10:51:53Z</time>
      </trkpt>
      <trkpt lat="43.63254" lon="1.38511">
        <ele>145</ele>
        <time>2025-04-09T10:51:54Z</time>
      </trkpt>
      <trkpt lat="43.63254" lon="1.38515">
        <ele>145</ele>
        <time>2025-04-09T10:51:55Z</time>
      </trkpt>
      <trkpt lat="43.63254" lon="1.38519">
        <ele>145</ele>
        <time>2025-04-09T10:51:56Z</time>
      </trkpt>
      <trkpt lat="43.63254" lon="1.38523">
        <ele>145</ele>
        <time>2025-04-09T10:51:57Z</time>
      </trkpt>
      <trkpt lat="43.63257" lon="1.38529">
        <ele>145</ele>
        <time>2025-04-09T10:51:58Z</time>
      </trkpt>
      <trkpt lat="43.63259" lon="1.38535">
        <ele>145</ele>
        <time>2025-04-09T10:51:59Z</time>
      </trkpt>
      <trkpt lat="43.6326" lon="1.3854">
        <ele>145</ele>
        <time>2025-04-09T10:52:00Z</time>
      </trkpt>
      <trkpt lat="43.6326" lon="1.3854">
        <ele>145</ele>
        <time>2025-04-09T10:52:01Z</time>
      </trkpt>
      <trkpt lat="43.6326" lon="1.3854">
        <ele>145</ele>
        <time>2025-04-09T10:52:02Z</time>
      </trkpt>
      <trkpt lat="43.63264" lon="1.38553">
        <ele>145</ele>
        <time>2025-04-09T10:52:03Z</time>
      </trkpt>
      <trkpt lat="43.63264" lon="1.38553">
        <ele>145</ele>
        <time>2025-04-09T10:52:05Z</time>
      </trkpt>
      <trkpt lat="43.63265" lon="1.38556">
        <ele>145</ele>
        <time>2025-04-09T10:52:06Z</time>
      </trkpt>
      <trkpt lat="43.63267" lon="1.3856">
        <ele>145</ele>
        <time>2025-04-09T10:52:07Z</time>
      </trkpt>
      <trkpt lat="43.63268" lon="1.38564">
        <ele>145</ele>
        <time>2025-04-09T10:52:08Z</time>
      </trkpt>
      <trkpt lat="43.6327" lon="1.38571">
        <ele>145</ele>
        <time>2025-04-09T10:52:09Z</time>
      </trkpt>
      <trkpt lat="43.63272" lon="1.38577">
        <ele>145</ele>
        <time>2025-04-09T10:52:10Z</time>
      </trkpt>
      <trkpt lat="43.63273" lon="1.38581">
        <ele>144</ele>
        <time>2025-04-09T10:52:11Z</time>
      </trkpt>
      <trkpt lat="43.63274" lon="1.38585">
        <ele>144</ele>
        <time>2025-04-09T10:52:12Z</time>
      </trkpt>
      <trkpt lat="43.63276" lon="1.38589">
        <ele>144</ele>
        <time>2025-04-09T10:52:13Z</time>
      </trkpt>
      <trkpt lat="43.63277" lon="1.38593">
        <ele>145</ele>
        <time>2025-04-09T10:52:14Z</time>
      </trkpt>
      <trkpt lat="43.63278" lon="1.38597">
        <ele>145</ele>
        <time>2025-04-09T10:52:15Z</time>
      </trkpt>
      <trkpt lat="43.6328" lon="1.38601">
        <ele>145</ele>
        <time>2025-04-09T10:52:16Z</time>
      </trkpt>
      <trkpt lat="43.63281" lon="1.38604">
        <ele>145</ele>
        <time>2025-04-09T10:52:17Z</time>
      </trkpt>
      <trkpt lat="43.63282" lon="1.38608">
        <ele>145</ele>
        <time>2025-04-09T10:52:18Z</time>
      </trkpt>
      <trkpt lat="43.63283" lon="1.38611">
        <ele>145</ele>
        <time>2025-04-09T10:52:19Z</time>
      </trkpt>
      <trkpt lat="43.63285" lon="1.38615">
        <ele>145</ele>
        <time>2025-04-09T10:52:20Z</time>
      </trkpt>
      <trkpt lat="43.63287" lon="1.38621">
        <ele>145</ele>
        <time>2025-04-09T10:52:21Z</time>
      </trkpt>
      <trkpt lat="43.63288" lon="1.38625">
        <ele>145</ele>
        <time>2025-04-09T10:52:22Z</time>
      </trkpt>
      <trkpt lat="43.63289" lon="1.38629">
        <ele>145</ele>
        <time>2025-04-09T10:52:23Z</time>
      </trkpt>
      <trkpt lat="43.63289" lon="1.38629">
        <ele>145</ele>
        <time>2025-04-09T10:52:24Z</time>
      </trkpt>
      <trkpt lat="43.63289" lon="1.38629">
        <ele>145</ele>
        <time>2025-04-09T10:52:25Z</time>
      </trkpt>
      <trkpt lat="43.63296" lon="1.38637">
        <ele>145</ele>
        <time>2025-04-09T10:52:27Z</time>
      </trkpt>
      <trkpt lat="43.63299" lon="1.38634">
        <ele>145</ele>
        <time>2025-04-09T10:52:28Z</time>
      </trkpt>
      <trkpt lat="43.63302" lon="1.38632">
        <ele>145</ele>
        <time>2025-04-09T10:52:29Z</time>
      </trkpt>
      <trkpt lat="43.63305" lon="1.3863">
        <ele>145</ele>
        <time>2025-04-09T10:52:30Z</time>
      </trkpt>
      <trkpt lat="43.63308" lon="1.38627">
        <ele>145</ele>
        <time>2025-04-09T10:52:31Z</time>
      </trkpt>
      <trkpt lat="43.63311" lon="1.38624">
        <ele>145</ele>
        <time>2025-04-09T10:52:32Z</time>
      </trkpt>
      <trkpt lat="43.63314" lon="1.38621">
        <ele>145</ele>
        <time>2025-04-09T10:52:33Z</time>
      </trkpt>
      <trkpt lat="43.63317" lon="1.38618">
        <ele>144</ele>
        <time>2025-04-09T10:52:34Z</time>
      </trkpt>
      <trkpt lat="43.6332" lon="1.38616">
        <ele>144</ele>
        <time>2025-04-09T10:52:35Z</time>
      </trkpt>
      <trkpt lat="43.63323" lon="1.38614">
        <ele>144</ele>
        <time>2025-04-09T10:52:36Z</time>
      </trkpt>
      <trkpt lat="43.63326" lon="1.38612">
        <ele>145</ele>
        <time>2025-04-09T10:52:37Z</time>
      </trkpt>
      <trkpt lat="43.63329" lon="1.3861">
        <ele>145</ele>
        <time>2025-04-09T10:52:38Z</time>
      </trkpt>
      <trkpt lat="43.63333" lon="1.38608">
        <ele>145</ele>
        <time>2025-04-09T10:52:39Z</time>
      </trkpt>
      <trkpt lat="43.63338" lon="1.38606">
        <ele>145</ele>
        <time>2025-04-09T10:52:40Z</time>
      </trkpt>
      <trkpt lat="43.63338" lon="1.38606">
        <ele>144</ele>
        <time>2025-04-09T10:52:41Z</time>
      </trkpt>
      <trkpt lat="43.6334" lon="1.38605">
        <ele>145</ele>
        <time>2025-04-09T10:52:42Z</time>
      </trkpt>
      <trkpt lat="43.6334" lon="1.38605">
        <ele>145</ele>
        <time>2025-04-09T10:52:43Z</time>
      </trkpt>
      <trkpt lat="43.6334" lon="1.38605">
        <ele>145</ele>
        <time>2025-04-09T10:52:44Z</time>
      </trkpt>
      <trkpt lat="43.63338" lon="1.38602">
        <ele>145</ele>
        <time>2025-04-09T10:52:46Z</time>
      </trkpt>
      <trkpt lat="43.63338" lon="1.38602">
        <ele>145</ele>
        <time>2025-04-09T10:52:47Z</time>
      </trkpt>
      <trkpt lat="43.63337" lon="1.386">
        <ele>145</ele>
        <time>2025-04-09T10:52:48Z</time>
      </trkpt>
      <trkpt lat="43.63336" lon="1.38597">
        <ele>145</ele>
        <time>2025-04-09T10:52:50Z</time>
      </trkpt>
      <trkpt lat="43.63336" lon="1.38597">
        <ele>145</ele>
        <time>2025-04-09T10:52:51Z</time>
      </trkpt>
      <trkpt lat="43.6325" lon="1.38505">
        <ele>145</ele>
        <time>2025-04-09T10:55:57Z</time>
      </trkpt>
      <trkpt lat="43.6325" lon="1.38505">
        <ele>145</ele>
        <time>2025-04-09T10:55:58Z</time>
      </trkpt>
      <trkpt lat="43.63252" lon="1.38503">
        <ele>145</ele>
        <time>2025-04-09T10:55:59Z</time>
      </trkpt>
      <trkpt lat="43.63258" lon="1.38499">
        <ele>145</ele>
        <time>2025-04-09T10:56:00Z</time>
      </trkpt>
      <trkpt lat="43.63261" lon="1.38498">
        <ele>145</ele>
        <time>2025-04-09T10:56:01Z</time>
      </trkpt>
      <trkpt lat="43.63266" lon="1.38495">
        <ele>145</ele>
        <time>2025-04-09T10:56:03Z</time>
      </trkpt>
      <trkpt lat="43.63266" lon="1.38495">
        <ele>145</ele>
        <time>2025-04-09T10:56:04Z</time>
      </trkpt>
      <trkpt lat="43.63269" lon="1.38494">
        <ele>145</ele>
        <time>2025-04-09T10:56:05Z</time>
      </trkpt>
      <trkpt lat="43.63273" lon="1.38492">
        <ele>145</ele>
        <time>2025-04-09T10:56:06Z</time>
      </trkpt>
      <trkpt lat="43.63279" lon="1.38488">
        <ele>145</ele>
        <time>2025-04-09T10:56:07Z</time>
      </trkpt>
      <trkpt lat="43.63282" lon="1.38486">
        <ele>145</ele>
        <time>2025-04-09T10:56:08Z</time>
      </trkpt>
      <trkpt lat="43.63285" lon="1.38485">
        <ele>145</ele>
        <time>2025-04-09T10:56:09Z</time>
      </trkpt>
      <trkpt lat="43.63288" lon="1.38483">
        <ele>145</ele>
        <time>2025-04-09T10:56:10Z</time>
      </trkpt>
      <trkpt lat="43.63291" lon="1.38482">
        <ele>145</ele>
        <time>2025-04-09T10:56:11Z</time>
      </trkpt>
      <trkpt lat="43.63294" lon="1.38479">
        <ele>145</ele>
        <time>2025-04-09T10:56:12Z</time>
      </trkpt>
      <trkpt lat="43.63294" lon="1.38479">
        <ele>145</ele>
        <time>2025-04-09T10:56:13Z</time>
      </trkpt>
      <trkpt lat="43.63297" lon="1.38478">
        <ele>145</ele>
        <time>2025-04-09T10:56:14Z</time>
      </trkpt>
      <trkpt lat="43.63302" lon="1.3848">
        <ele>145</ele>
        <time>2025-04-09T10:56:15Z</time>
      </trkpt>
      <trkpt lat="43.63303" lon="1.38481">
        <ele>145</ele>
        <time>2025-04-09T10:56:16Z</time>
      </trkpt>
      <trkpt lat="43.63306" lon="1.38491">
        <ele>145</ele>
        <time>2025-04-09T10:56:17Z</time>
      </trkpt>
      <trkpt lat="43.63308" lon="1.38496">
        <ele>145</ele>
        <time>2025-04-09T10:56:18Z</time>
      </trkpt>
      <trkpt lat="43.63308" lon="1.38496">
        <ele>145</ele>
        <time>2025-04-09T10:56:19Z</time>
      </trkpt>
      <trkpt lat="43.63309" lon="1.385">
        <ele>145</ele>
        <time>2025-04-09T10:56:20Z</time>
      </trkpt>
      <trkpt lat="43.6331" lon="1.38504">
        <ele>145</ele>
        <time>2025-04-09T10:56:21Z</time>
      </trkpt>
      <trkpt lat="43.6331" lon="1.38508">
        <ele>145</ele>
        <time>2025-04-09T10:56:22Z</time>
      </trkpt>
      <trkpt lat="43.63312" lon="1.38513">
        <ele>145</ele>
        <time>2025-04-09T10:56:23Z</time>
      </trkpt>
      <trkpt lat="43.63313" lon="1.38518">
        <ele>145</ele>
        <time>2025-04-09T10:56:24Z</time>
      </trkpt>
      <trkpt lat="43.63314" lon="1.38522">
        <ele>145</ele>
        <time>2025-04-09T10:56:25Z</time>
      </trkpt>
      <trkpt lat="43.63315" lon="1.38526">
        <ele>145</ele>
        <time>2025-04-09T10:56:26Z</time>
      </trkpt>
      <trkpt lat="43.63316" lon="1.38531">
        <ele>146</ele>
        <time>2025-04-09T10:56:27Z</time>
      </trkpt>
      <trkpt lat="43.63318" lon="1.38535">
        <ele>146</ele>
        <time>2025-04-09T10:56:28Z</time>
      </trkpt>
      <trkpt lat="43.6332" lon="1.38544">
        <ele>146</ele>
        <time>2025-04-09T10:56:29Z</time>
      </trkpt>
      <trkpt lat="43.6332" lon="1.38544">
        <ele>145</ele>
        <time>2025-04-09T10:56:30Z</time>
      </trkpt>
      <trkpt lat="43.63322" lon="1.38548">
        <ele>145</ele>
        <time>2025-04-09T10:56:31Z</time>
      </trkpt>
      <trkpt lat="43.63324" lon="1.38554">
        <ele>145</ele>
        <time>2025-04-09T10:56:32Z</time>
      </trkpt>
      <trkpt lat="43.63324" lon="1.38557">
        <ele>145</ele>
        <time>2025-04-09T10:56:33Z</time>
      </trkpt>
      <trkpt lat="43.63326" lon="1.38563">
        <ele>145</ele>
        <time>2025-04-09T10:56:34Z</time>
      </trkpt>
      <trkpt lat="43.63326" lon="1.38565">
        <ele>145</ele>
        <time>2025-04-09T10:56:35Z</time>
      </trkpt>
      <trkpt lat="43.63329" lon="1.38573">
        <ele>145</ele>
        <time>2025-04-09T10:56:36Z</time>
      </trkpt>
      <trkpt lat="43.63329" lon="1.38573">
        <ele>145</ele>
        <time>2025-04-09T10:56:37Z</time>
      </trkpt>
      <trkpt lat="43.63332" lon="1.38582">
        <ele>145</ele>
        <time>2025-04-09T10:56:38Z</time>
      </trkpt>
      <trkpt lat="43.63332" lon="1.38582">
        <ele>145</ele>
        <time>2025-04-09T10:56:39Z</time>
      </trkpt>
      <trkpt lat="43.63333" lon="1.38586">
        <ele>145</ele>
        <time>2025-04-09T10:56:40Z</time>
      </trkpt>
      <trkpt lat="43.63334" lon="1.3859">
        <ele>145</ele>
        <time>2025-04-09T10:56:41Z</time>
      </trkpt>
      <trkpt lat="43.63337" lon="1.38599">
        <ele>145</ele>
        <time>2025-04-09T10:56:42Z</time>
      </trkpt>
      <trkpt lat="43.63338" lon="1.38603">
        <ele>145</ele>
        <time>2025-04-09T10:56:43Z</time>
      </trkpt>
      <trkpt lat="43.63338" lon="1.38603">
        <ele>145</ele>
        <time>2025-04-09T10:56:44Z</time>
      </trkpt>
      <trkpt lat="43.63339" lon="1.38607">
        <ele>145</ele>
        <time>2025-04-09T10:56:45Z</time>
      </trkpt>
      <trkpt lat="43.63339" lon="1.38612">
        <ele>145</ele>
        <time>2025-04-09T10:56:46Z</time>
      </trkpt>
      <trkpt lat="43.63336" lon="1.38617">
        <ele>145</ele>
        <time>2025-04-09T10:56:47Z</time>
      </trkpt>
      <trkpt lat="43.63335" lon="1.38618">
        <ele>145</ele>
        <time>2025-04-09T10:56:48Z</time>
      </trkpt>
      <trkpt lat="43.63332" lon="1.3862">
        <ele>145</ele>
        <time>2025-04-09T10:56:49Z</time>
      </trkpt>
      <trkpt lat="43.63329" lon="1.38622">
        <ele>145</ele>
        <time>2025-04-09T10:56:50Z</time>
      </trkpt>
      <trkpt lat="43.63325" lon="1.38623">
        <ele>145</ele>
        <time>2025-04-09T10:56:51Z</time>
      </trkpt>
      <trkpt lat="43.63322" lon="1.38625">
        <ele>145</ele>
        <time>2025-04-09T10:56:52Z</time>
      </trkpt>
      <trkpt lat="43.63318" lon="1.38627">
        <ele>145</ele>
        <time>2025-04-09T10:56:53Z</time>
      </trkpt>
      <trkpt lat="43.63316" lon="1.38628">
        <ele>145</ele>
        <time>2025-04-09T10:56:54Z</time>
      </trkpt>
      <trkpt lat="43.63313" lon="1.3863">
        <ele>145</ele>
        <time>2025-04-09T10:56:55Z</time>
      </trkpt>
      <trkpt lat="43.6331" lon="1.38632">
        <ele>145</ele>
        <time>2025-04-09T10:56:56Z</time>
      </trkpt>
      <trkpt lat="43.63308" lon="1.38633">
        <ele>145</ele>
        <time>2025-04-09T10:56:57Z</time>
      </trkpt>
      <trkpt lat="43.63305" lon="1.38636">
        <ele>145</ele>
        <time>2025-04-09T10:56:58Z</time>
      </trkpt>
      <trkpt lat="43.63302" lon="1.38637">
        <ele>145</ele>
        <time>2025-04-09T10:56:59Z</time>
      </trkpt>
      <trkpt lat="43.63299" lon="1.38639">
        <ele>145</ele>
        <time>2025-04-09T10:57:00Z</time>
      </trkpt>
      <trkpt lat="43.63297" lon="1.3864">
        <ele>145</ele>
        <time>2025-04-09T10:57:01Z</time>
      </trkpt>
      <trkpt lat="43.63294" lon="1.38641">
        <ele>145</ele>
        <time>2025-04-09T10:57:02Z</time>
      </trkpt>
      <trkpt lat="43.6329" lon="1.38638">
        <ele>145</ele>
        <time>2025-04-09T10:57:03Z</time>
      </trkpt>
      <trkpt lat="43.63288" lon="1.38636">
        <ele>145</ele>
        <time>2025-04-09T10:57:04Z</time>
      </trkpt>
      <trkpt lat="43.63284" lon="1.38627">
        <ele>145</ele>
        <time>2025-04-09T10:57:05Z</time>
      </trkpt>
      <trkpt lat="43.63282" lon="1.38623">
        <ele>145</ele>
        <time>2025-04-09T10:57:06Z</time>
      </trkpt>
      <trkpt lat="43.63282" lon="1.38623">
        <ele>145</ele>
        <time>2025-04-09T10:57:07Z</time>
      </trkpt>
      <trkpt lat="43.63281" lon="1.38621">
        <ele>145</ele>
        <time>2025-04-09T10:57:08Z</time>
      </trkpt>
      <trkpt lat="43.6328" lon="1.38618">
        <ele>145</ele>
        <time>2025-04-09T10:57:09Z</time>
      </trkpt>
      <trkpt lat="43.6328" lon="1.38616">
        <ele>145</ele>
        <time>2025-04-09T10:57:10Z</time>
      </trkpt>
      <trkpt lat="43.63277" lon="1.38609">
        <ele>145</ele>
        <time>2025-04-09T10:57:11Z</time>
      </trkpt>
      <trkpt lat="43.63274" lon="1.38595">
        <ele>145</ele>
        <time>2025-04-09T10:57:13Z</time>
      </trkpt>
      <trkpt lat="43.63272" lon="1.38591">
        <ele>145</ele>
        <time>2025-04-09T10:57:14Z</time>
      </trkpt>
      <trkpt lat="43.63271" lon="1.38586">
        <ele>145</ele>
        <time>2025-04-09T10:57:15Z</time>
      </trkpt>
      <trkpt lat="43.6327" lon="1.38582">
        <ele>145</ele>
        <time>2025-04-09T10:57:16Z</time>
      </trkpt>
      <trkpt lat="43.6327" lon="1.38582">
        <ele>145</ele>
        <time>2025-04-09T10:57:17Z</time>
      </trkpt>
      <trkpt lat="43.63266" lon="1.38569">
        <ele>145</ele>
        <time>2025-04-09T10:57:18Z</time>
      </trkpt>
      <trkpt lat="43.63266" lon="1.38569">
        <ele>145</ele>
        <time>2025-04-09T10:57:20Z</time>
      </trkpt>
      <trkpt lat="43.63262" lon="1.38556">
        <ele>145</ele>
        <time>2025-04-09T10:57:21Z</time>
      </trkpt>
      <trkpt lat="43.63262" lon="1.38556">
        <ele>145</ele>
        <time>2025-04-09T10:57:22Z</time>
      </trkpt>
      <trkpt lat="43.63261" lon="1.38552">
        <ele>145</ele>
        <time>2025-04-09T10:57:23Z</time>
      </trkpt>
      <trkpt lat="43.6326" lon="1.38548">
        <ele>145</ele>
        <time>2025-04-09T10:57:24Z</time>
      </trkpt>
      <trkpt lat="43.63259" lon="1.38543">
        <ele>145</ele>
        <time>2025-04-09T10:57:25Z</time>
      </trkpt>
      <trkpt lat="43.63258" lon="1.38539">
        <ele>145</ele>
        <time>2025-04-09T10:57:26Z</time>
      </trkpt>
      <trkpt lat="43.63257" lon="1.38535">
        <ele>145</ele>
        <time>2025-04-09T10:57:27Z</time>
      </trkpt>
      <trkpt lat="43.63256" lon="1.3853">
        <ele>145</ele>
        <time>2025-04-09T10:57:28Z</time>
      </trkpt>
      <trkpt lat="43.63256" lon="1.3853">
        <ele>145</ele>
        <time>2025-04-09T10:57:29Z</time>
      </trkpt>
      <trkpt lat="43.63252" lon="1.38518">
        <ele>145</ele>
        <time>2025-04-09T10:57:30Z</time>
      </trkpt>
      <trkpt lat="43.63252" lon="1.38518">
        <ele>145</ele>
        <time>2025-04-09T10:57:32Z</time>
      </trkpt>
      <trkpt lat="43.63251" lon="1.38503">
        <ele>145</ele>
        <time>2025-04-09T10:57:33Z</time>
      </trkpt>
      <trkpt lat="43.63251" lon="1.38503">
        <ele>145</ele>
        <time>2025-04-09T10:57:35Z</time>
      </trkpt>
      <trkpt lat="43.63262" lon="1.38495">
        <ele>145</ele>
        <time>2025-04-09T10:57:36Z</time>
      </trkpt>
      <trkpt lat="43.63262" lon="1.38495">
        <ele>145</ele>
        <time>2025-04-09T10:57:37Z</time>
      </trkpt>
      <trkpt lat="43.63265" lon="1.38492">
        <ele>145</ele>
        <time>2025-04-09T10:57:38Z</time>
      </trkpt>
      <trkpt lat="43.63268" lon="1.3849">
        <ele>145</ele>
        <time>2025-04-09T10:57:39Z</time>
      </trkpt>
      <trkpt lat="43.63271" lon="1.38488">
        <ele>145</ele>
        <time>2025-04-09T10:57:40Z</time>
      </trkpt>
      <trkpt lat="43.63274" lon="1.38486">
        <ele>145</ele>
        <time>2025-04-09T10:57:41Z</time>
      </trkpt>
      <trkpt lat="43.63277" lon="1.38485">
        <ele>145</ele>
        <time>2025-04-09T10:57:42Z</time>
      </trkpt>
      <trkpt lat="43.6328" lon="1.38483">
        <ele>145</ele>
        <time>2025-04-09T10:57:43Z</time>
      </trkpt>
      <trkpt lat="43.6328" lon="1.38483">
        <ele>145</ele>
        <time>2025-04-09T10:57:44Z</time>
      </trkpt>
      <trkpt lat="43.6329" lon="1.38479">
        <ele>145</ele>
        <time>2025-04-09T10:57:45Z</time>
      </trkpt>
      <trkpt lat="43.6329" lon="1.38479">
        <ele>145</ele>
        <time>2025-04-09T10:57:47Z</time>
      </trkpt>
      <trkpt lat="43.63299" lon="1.38473">
        <ele>145</ele>
        <time>2025-04-09T10:57:48Z</time>
      </trkpt>
      <trkpt lat="43.63299" lon="1.38473">
        <ele>145</ele>
        <time>2025-04-09T10:57:49Z</time>
      </trkpt>
      <trkpt lat="43.63301" lon="1.38476">
        <ele>145</ele>
        <time>2025-04-09T10:57:51Z</time>
      </trkpt>
      <trkpt lat="43.63303" lon="1.38478">
        <ele>145</ele>
        <time>2025-04-09T10:57:52Z</time>
      </trkpt>
      <trkpt lat="43.63309" lon="1.38487">
        <ele>145</ele>
        <time>2025-04-09T10:57:53Z</time>
      </trkpt>
      <trkpt lat="43.6331" lon="1.38492">
        <ele>145</ele>
        <time>2025-04-09T10:57:54Z</time>
      </trkpt>
      <trkpt lat="43.63312" lon="1.38497">
        <ele>145</ele>
        <time>2025-04-09T10:57:55Z</time>
      </trkpt>
      <trkpt lat="43.63313" lon="1.38502">
        <ele>145</ele>
        <time>2025-04-09T10:57:56Z</time>
      </trkpt>
      <trkpt lat="43.63314" lon="1.38507">
        <ele>145</ele>
        <time>2025-04-09T10:57:57Z</time>
      </trkpt>
      <trkpt lat="43.63315" lon="1.38511">
        <ele>145</ele>
        <time>2025-04-09T10:57:58Z</time>
      </trkpt>
      <trkpt lat="43.63316" lon="1.38515">
        <ele>145</ele>
        <time>2025-04-09T10:57:59Z</time>
      </trkpt>
      <trkpt lat="43.63317" lon="1.38518">
        <ele>145</ele>
        <time>2025-04-09T10:58:00Z</time>
      </trkpt>
      <trkpt lat="43.63318" lon="1.38521">
        <ele>145</ele>
        <time>2025-04-09T10:58:01Z</time>
      </trkpt>
      <trkpt lat="43.63318" lon="1.38524">
        <ele>145</ele>
        <time>2025-04-09T10:58:02Z</time>
      </trkpt>
      <trkpt lat="43.6332" lon="1.38531">
        <ele>145</ele>
        <time>2025-04-09T10:58:03Z</time>
      </trkpt>
      <trkpt lat="43.63322" lon="1.38537">
        <ele>145</ele>
        <time>2025-04-09T10:58:04Z</time>
      </trkpt>
      <trkpt lat="43.63323" lon="1.38541">
        <ele>145</ele>
        <time>2025-04-09T10:58:05Z</time>
      </trkpt>
      <trkpt lat="43.63324" lon="1.38546">
        <ele>145</ele>
        <time>2025-04-09T10:58:06Z</time>
      </trkpt>
      <trkpt lat="43.63325" lon="1.3855">
        <ele>145</ele>
        <time>2025-04-09T10:58:07Z</time>
      </trkpt>
      <trkpt lat="43.63325" lon="1.3855">
        <ele>145</ele>
        <time>2025-04-09T10:58:08Z</time>
      </trkpt>
      <trkpt lat="43.63329" lon="1.38562">
        <ele>145</ele>
        <time>2025-04-09T10:58:10Z</time>
      </trkpt>
      <trkpt lat="43.6333" lon="1.38566">
        <ele>145</ele>
        <time>2025-04-09T10:58:11Z</time>
      </trkpt>
      <trkpt lat="43.63331" lon="1.3857">
        <ele>145</ele>
        <time>2025-04-09T10:58:12Z</time>
      </trkpt>
      <trkpt lat="43.63333" lon="1.38574">
        <ele>145</ele>
        <time>2025-04-09T10:58:13Z</time>
      </trkpt>
      <trkpt lat="43.63333" lon="1.38574">
        <ele>145</ele>
        <time>2025-04-09T10:58:14Z</time>
      </trkpt>
      <trkpt lat="43.63335" lon="1.38587">
        <ele>145</ele>
        <time>2025-04-09T10:58:15Z</time>
      </trkpt>
      <trkpt lat="43.63335" lon="1.38587">
        <ele>145</ele>
        <time>2025-04-09T10:58:17Z</time>
      </trkpt>
      <trkpt lat="43.63339" lon="1.386">
        <ele>145</ele>
        <time>2025-04-09T10:58:18Z</time>
      </trkpt>
      <trkpt lat="43.63339" lon="1.386">
        <ele>145</ele>
        <time>2025-04-09T10:58:19Z</time>
      </trkpt>
      <trkpt lat="43.63339" lon="1.38601">
        <ele>146</ele>
        <time>2025-04-09T10:58:20Z</time>
      </trkpt>
      <trkpt lat="43.63339" lon="1.38603">
        <ele>146</ele>
        <time>2025-04-09T10:58:21Z</time>
      </trkpt>
      <trkpt lat="43.63339" lon="1.38605">
        <ele>145</ele>
        <time>2025-04-09T10:58:22Z</time>
      </trkpt>
      <trkpt lat="43.63339" lon="1.38607">
        <ele>145</ele>
        <time>2025-04-09T10:58:23Z</time>
      </trkpt>
      <trkpt lat="43.63337" lon="1.38616">
        <ele>145</ele>
        <time>2025-04-09T10:58:24Z</time>
      </trkpt>
      <trkpt lat="43.63334" lon="1.38618">
        <ele>145</ele>
        <time>2025-04-09T10:58:25Z</time>
      </trkpt>
      <trkpt lat="43.63331" lon="1.3862">
        <ele>145</ele>
        <time>2025-04-09T10:58:26Z</time>
      </trkpt>
      <trkpt lat="43.63331" lon="1.3862">
        <ele>145</ele>
        <time>2025-04-09T10:58:27Z</time>
      </trkpt>
      <trkpt lat="43.63321" lon="1.38624">
        <ele>145</ele>
        <time>2025-04-09T10:58:29Z</time>
      </trkpt>
      <trkpt lat="43.63318" lon="1.38626">
        <ele>145</ele>
        <time>2025-04-09T10:58:30Z</time>
      </trkpt>
      <trkpt lat="43.63314" lon="1.38629">
        <ele>145</ele>
        <time>2025-04-09T10:58:31Z</time>
      </trkpt>
      <trkpt lat="43.6331" lon="1.38631">
        <ele>145</ele>
        <time>2025-04-09T10:58:32Z</time>
      </trkpt>
      <trkpt lat="43.63307" lon="1.38633">
        <ele>145</ele>
        <time>2025-04-09T10:58:33Z</time>
      </trkpt>
      <trkpt lat="43.63302" lon="1.38635">
        <ele>145</ele>
        <time>2025-04-09T10:58:34Z</time>
      </trkpt>
      <trkpt lat="43.63302" lon="1.38635">
        <ele>145</ele>
        <time>2025-04-09T10:58:35Z</time>
      </trkpt>
      <trkpt lat="43.63299" lon="1.38637">
        <ele>145</ele>
        <time>2025-04-09T10:58:36Z</time>
      </trkpt>
      <trkpt lat="43.63297" lon="1.38639">
        <ele>145</ele>
        <time>2025-04-09T10:58:37Z</time>
      </trkpt>
      <trkpt lat="43.63294" lon="1.3864">
        <ele>145</ele>
        <time>2025-04-09T10:58:38Z</time>
      </trkpt>
      <trkpt lat="43.63291" lon="1.38638">
        <ele>145</ele>
        <time>2025-04-09T10:58:39Z</time>
      </trkpt>
      <trkpt lat="43.63288" lon="1.38636">
        <ele>145</ele>
        <time>2025-04-09T10:58:40Z</time>
      </trkpt>
      <trkpt lat="43.63285" lon="1.38634">
        <ele>145</ele>
        <time>2025-04-09T10:58:41Z</time>
      </trkpt>
      <trkpt lat="43.63284" lon="1.38632">
        <ele>145</ele>
        <time>2025-04-09T10:58:42Z</time>
      </trkpt>
      <trkpt lat="43.63284" lon="1.38629">
        <ele>145</ele>
        <time>2025-04-09T10:58:43Z</time>
      </trkpt>
      <trkpt lat="43.63283" lon="1.38627">
        <ele>145</ele>
        <time>2025-04-09T10:58:44Z</time>
      </trkpt>
      <trkpt lat="43.6328" lon="1.38616">
        <ele>145</ele>
        <time>2025-04-09T10:58:45Z</time>
      </trkpt>
      <trkpt lat="43.63279" lon="1.38613">
        <ele>145</ele>
        <time>2025-04-09T10:58:46Z</time>
      </trkpt>
      <trkpt lat="43.63278" lon="1.38609">
        <ele>145</ele>
        <time>2025-04-09T10:58:47Z</time>
      </trkpt>
      <trkpt lat="43.63277" lon="1.38606">
        <ele>145</ele>
        <time>2025-04-09T10:58:48Z</time>
      </trkpt>
      <trkpt lat="43.63276" lon="1.38602">
        <ele>145</ele>
        <time>2025-04-09T10:58:49Z</time>
      </trkpt>
      <trkpt lat="43.63275" lon="1.38599">
        <ele>145</ele>
        <time>2025-04-09T10:58:50Z</time>
      </trkpt>
      <trkpt lat="43.63273" lon="1.38587">
        <ele>145</ele>
        <time>2025-04-09T10:58:51Z</time>
      </trkpt>
      <trkpt lat="43.63272" lon="1.38583">
        <ele>145</ele>
        <time>2025-04-09T10:58:52Z</time>
      </trkpt>
      <trkpt lat="43.63271" lon="1.38578">
        <ele>145</ele>
        <time>2025-04-09T10:58:53Z</time>
      </trkpt>
      <trkpt lat="43.6327" lon="1.38576">
        <ele>145</ele>
        <time>2025-04-09T10:58:54Z</time>
      </trkpt>
      <trkpt lat="43.6327" lon="1.38574">
        <ele>145</ele>
        <time>2025-04-09T10:58:55Z</time>
      </trkpt>
      <trkpt lat="43.63269" lon="1.38571">
        <ele>145</ele>
        <time>2025-04-09T10:58:56Z</time>
      </trkpt>
      <trkpt lat="43.63266" lon="1.3856">
        <ele>145</ele>
        <time>2025-04-09T10:58:57Z</time>
      </trkpt>
      <trkpt lat="43.63265" lon="1.38556">
        <ele>145</ele>
        <time>2025-04-09T10:58:58Z</time>
      </trkpt>
      <trkpt lat="43.63264" lon="1.38552">
        <ele>145</ele>
        <time>2025-04-09T10:58:59Z</time>
      </trkpt>
      <trkpt lat="43.63263" lon="1.38549">
        <ele>145</ele>
        <time>2025-04-09T10:59:00Z</time>
      </trkpt>
      <trkpt lat="43.63261" lon="1.38547">
        <ele>145</ele>
        <time>2025-04-09T10:59:01Z</time>
      </trkpt>
      <trkpt lat="43.6326" lon="1.38544">
        <ele>145</ele>
        <time>2025-04-09T10:59:02Z</time>
      </trkpt>
      <trkpt lat="43.63259" lon="1.38541">
        <ele>145</ele>
        <time>2025-04-09T10:59:03Z</time>
      </trkpt>
      <trkpt lat="43.63255" lon="1.38529">
        <ele>145</ele>
        <time>2025-04-09T10:59:04Z</time>
      </trkpt>
      <trkpt lat="43.63255" lon="1.38529">
        <ele>145</ele>
        <time>2025-04-09T10:59:05Z</time>
      </trkpt>
      <trkpt lat="43.63253" lon="1.38523">
        <ele>145</ele>
        <time>2025-04-09T10:59:07Z</time>
      </trkpt>
      <trkpt lat="43.63251" lon="1.38517">
        <ele>145</ele>
        <time>2025-04-09T10:59:08Z</time>
      </trkpt>
      <trkpt lat="43.63252" lon="1.38512">
        <ele>145</ele>
        <time>2025-04-09T10:59:09Z</time>
      </trkpt>
      <trkpt lat="43.63252" lon="1.38507">
        <ele>145</ele>
        <time>2025-04-09T10:59:10Z</time>
      </trkpt>
      <trkpt lat="43.63253" lon="1.38502">
        <ele>145</ele>
        <time>2025-04-09T10:59:11Z</time>
      </trkpt>
      <trkpt lat="43.63254" lon="1.38501">
        <ele>145</ele>
        <time>2025-04-09T10:59:12Z</time>
      </trkpt>
      <trkpt lat="43.63256" lon="1.38499">
        <ele>145</ele>
        <time>2025-04-09T10:59:13Z</time>
      </trkpt>
      <trkpt lat="43.63258" lon="1.38498">
        <ele>145</ele>
        <time>2025-04-09T10:59:14Z</time>
      </trkpt>
      <trkpt lat="43.63265" lon="1.38493">
        <ele>145</ele>
        <time>2025-04-09T10:59:15Z</time>
      </trkpt>
      <trkpt lat="43.63268" lon="1.38491">
        <ele>145</ele>
        <time>2025-04-09T10:59:16Z</time>
      </trkpt>
      <trkpt lat="43.6327" lon="1.3849">
        <ele>145</ele>
        <time>2025-04-09T10:59:17Z</time>
      </trkpt>
      <trkpt lat="43.63272" lon="1.38489">
        <ele>145</ele>
        <time>2025-04-09T10:59:18Z</time>
      </trkpt>
      <trkpt lat="43.63277" lon="1.38486">
        <ele>145</ele>
        <time>2025-04-09T10:59:19Z</time>
      </trkpt>
      <trkpt lat="43.63282" lon="1.38484">
        <ele>145</ele>
        <time>2025-04-09T10:59:20Z</time>
      </trkpt>
      <trkpt lat="43.63285" lon="1.38482">
        <ele>145</ele>
        <time>2025-04-09T10:59:21Z</time>
      </trkpt>
      <trkpt lat="43.63288" lon="1.38481">
        <ele>145</ele>
        <time>2025-04-09T10:59:22Z</time>
      </trkpt>
      <trkpt lat="43.63291" lon="1.38479">
        <ele>145</ele>
        <time>2025-04-09T10:59:23Z</time>
      </trkpt>
      <trkpt lat="43.63291" lon="1.38479">
        <ele>145</ele>
        <time>2025-04-09T10:59:24Z</time>
      </trkpt>
      <trkpt lat="43.63301" lon="1.38476">
        <ele>145</ele>
        <time>2025-04-09T10:59:26Z</time>
      </trkpt>
      <trkpt lat="43.63303" lon="1.38479">
        <ele>145</ele>
        <time>2025-04-09T10:59:27Z</time>
      </trkpt>
      <trkpt lat="43.63305" lon="1.38481">
        <ele>145</ele>
        <time>2025-04-09T10:59:28Z</time>
      </trkpt>
      <trkpt lat="43.63307" lon="1.38484">
        <ele>145</ele>
        <time>2025-04-09T10:59:29Z</time>
      </trkpt>
      <trkpt lat="43.63309" lon="1.38486">
        <ele>145</ele>
        <time>2025-04-09T10:59:30Z</time>
      </trkpt>
      <trkpt lat="43.6331" lon="1.3849">
        <ele>145</ele>
        <time>2025-04-09T10:59:31Z</time>
      </trkpt>
      <trkpt lat="43.63311" lon="1.38493">
        <ele>145</ele>
        <time>2025-04-09T10:59:32Z</time>
      </trkpt>
      <trkpt lat="43.63314" lon="1.38503">
        <ele>145</ele>
        <time>2025-04-09T10:59:33Z</time>
      </trkpt>
      <trkpt lat="43.63314" lon="1.38506">
        <ele>145</ele>
        <time>2025-04-09T10:59:34Z</time>
      </trkpt>
      <trkpt lat="43.63315" lon="1.38508">
        <ele>145</ele>
        <time>2025-04-09T10:59:35Z</time>
      </trkpt>
      <trkpt lat="43.63317" lon="1.3852">
        <ele>145</ele>
        <time>2025-04-09T10:59:36Z</time>
      </trkpt>
      <trkpt lat="43.63318" lon="1.38524">
        <ele>145</ele>
        <time>2025-04-09T10:59:37Z</time>
      </trkpt>
      <trkpt lat="43.6332" lon="1.38529">
        <ele>145</ele>
        <time>2025-04-09T10:59:38Z</time>
      </trkpt>
      <trkpt lat="43.6332" lon="1.38533">
        <ele>145</ele>
        <time>2025-04-09T10:59:39Z</time>
      </trkpt>
      <trkpt lat="43.63321" lon="1.38537">
        <ele>145</ele>
        <time>2025-04-09T10:59:40Z</time>
      </trkpt>
      <trkpt lat="43.63322" lon="1.38541">
        <ele>145</ele>
        <time>2025-04-09T10:59:41Z</time>
      </trkpt>
      <trkpt lat="43.63322" lon="1.38541">
        <ele>145</ele>
        <time>2025-04-09T10:59:42Z</time>
      </trkpt>
      <trkpt lat="43.63325" lon="1.38554">
        <ele>145</ele>
        <time>2025-04-09T10:59:43Z</time>
      </trkpt>
      <trkpt lat="43.63325" lon="1.38554">
        <ele>145</ele>
        <time>2025-04-09T10:59:45Z</time>
      </trkpt>
      <trkpt lat="43.63326" lon="1.38558">
        <ele>145</ele>
        <time>2025-04-09T10:59:46Z</time>
      </trkpt>
      <trkpt lat="43.63327" lon="1.38561">
        <ele>145</ele>
        <time>2025-04-09T10:59:47Z</time>
      </trkpt>
      <trkpt lat="43.63329" lon="1.38573">
        <ele>145</ele>
        <time>2025-04-09T10:59:48Z</time>
      </trkpt>
      <trkpt lat="43.6333" lon="1.38577">
        <ele>145</ele>
        <time>2025-04-09T10:59:49Z</time>
      </trkpt>
      <trkpt lat="43.63332" lon="1.38581">
        <ele>145</ele>
        <time>2025-04-09T10:59:50Z</time>
      </trkpt>
      <trkpt lat="43.63333" lon="1.38585">
        <ele>145</ele>
        <time>2025-04-09T10:59:51Z</time>
      </trkpt>
      <trkpt lat="43.63334" lon="1.38589">
        <ele>145</ele>
        <time>2025-04-09T10:59:52Z</time>
      </trkpt>
      <trkpt lat="43.63336" lon="1.38594">
        <ele>145</ele>
        <time>2025-04-09T10:59:53Z</time>
      </trkpt>
      <trkpt lat="43.63337" lon="1.38598">
        <ele>145</ele>
        <time>2025-04-09T10:59:54Z</time>
      </trkpt>
      <trkpt lat="43.63338" lon="1.38602">
        <ele>145</ele>
        <time>2025-04-09T10:59:55Z</time>
      </trkpt>
      <trkpt lat="43.63339" lon="1.38606">
        <ele>145</ele>
        <time>2025-04-09T10:59:56Z</time>
      </trkpt>
      <trkpt lat="43.63339" lon="1.38606">
        <ele>145</ele>
        <time>2025-04-09T10:59:57Z</time>
      </trkpt>
      <trkpt lat="43.63339" lon="1.38606">
        <ele>145</ele>
        <time>2025-04-09T10:59:58Z</time>
      </trkpt>
      <trkpt lat="43.63335" lon="1.38619">
        <ele>145</ele>
        <time>2025-04-09T10:59:59Z</time>
      </trkpt>
      <trkpt lat="43.63335" lon="1.38619">
        <ele>145</ele>
        <time>2025-04-09T11:00:01Z</time>
      </trkpt>
      <trkpt lat="43.63331" lon="1.38621">
        <ele>145</ele>
        <time>2025-04-09T11:00:02Z</time>
      </trkpt>
      <trkpt lat="43.63328" lon="1.38622">
        <ele>145</ele>
        <time>2025-04-09T11:00:03Z</time>
      </trkpt>
      <trkpt lat="43.63325" lon="1.38623">
        <ele>145</ele>
        <time>2025-04-09T11:00:04Z</time>
      </trkpt>
      <trkpt lat="43.6332" lon="1.38625">
        <ele>145</ele>
        <time>2025-04-09T11:00:05Z</time>
      </trkpt>
      <trkpt lat="43.63315" lon="1.38627">
        <ele>145</ele>
        <time>2025-04-09T11:00:06Z</time>
      </trkpt>
      <trkpt lat="43.63312" lon="1.3863">
        <ele>145</ele>
        <time>2025-04-09T11:00:07Z</time>
      </trkpt>
      <trkpt lat="43.63309" lon="1.38632">
        <ele>145</ele>
        <time>2025-04-09T11:00:08Z</time>
      </trkpt>
      <trkpt lat="43.63306" lon="1.38634">
        <ele>145</ele>
        <time>2025-04-09T11:00:09Z</time>
      </trkpt>
      <trkpt lat="43.63303" lon="1.38636">
        <ele>145</ele>
        <time>2025-04-09T11:00:10Z</time>
      </trkpt>
      <trkpt lat="43.633" lon="1.38638">
        <ele>145</ele>
        <time>2025-04-09T11:00:11Z</time>
      </trkpt>
      <trkpt lat="43.63297" lon="1.3864">
        <ele>145</ele>
        <time>2025-04-09T11:00:12Z</time>
      </trkpt>
      <trkpt lat="43.63295" lon="1.3864">
        <ele>145</ele>
        <time>2025-04-09T11:00:13Z</time>
      </trkpt>
      <trkpt lat="43.63292" lon="1.3864">
        <ele>145</ele>
        <time>2025-04-09T11:00:14Z</time>
      </trkpt>
      <trkpt lat="43.6329" lon="1.38639">
        <ele>145</ele>
        <time>2025-04-09T11:00:15Z</time>
      </trkpt>
      <trkpt lat="43.63288" lon="1.38639">
        <ele>145</ele>
        <time>2025-04-09T11:00:16Z</time>
      </trkpt>
      <trkpt lat="43.63282" lon="1.38626">
        <ele>145</ele>
        <time>2025-04-09T11:00:17Z</time>
      </trkpt>
      <trkpt lat="43.63282" lon="1.38626">
        <ele>145</ele>
        <time>2025-04-09T11:00:18Z</time>
      </trkpt>
      <trkpt lat="43.63281" lon="1.38621">
        <ele>145</ele>
        <time>2025-04-09T11:00:19Z</time>
      </trkpt>
      <trkpt lat="43.6328" lon="1.38617">
        <ele>145</ele>
        <time>2025-04-09T11:00:20Z</time>
      </trkpt>
      <trkpt lat="43.63278" lon="1.38612">
        <ele>145</ele>
        <time>2025-04-09T11:00:21Z</time>
      </trkpt>
      <trkpt lat="43.63277" lon="1.38608">
        <ele>145</ele>
        <time>2025-04-09T11:00:23Z</time>
      </trkpt>
      <trkpt lat="43.63276" lon="1.38605">
        <ele>145</ele>
        <time>2025-04-09T11:00:24Z</time>
      </trkpt>
      <trkpt lat="43.63273" lon="1.38594">
        <ele>145</ele>
        <time>2025-04-09T11:00:25Z</time>
      </trkpt>
      <trkpt lat="43.63272" lon="1.38589">
        <ele>145</ele>
        <time>2025-04-09T11:00:26Z</time>
      </trkpt>
      <trkpt lat="43.63271" lon="1.38584">
        <ele>145</ele>
        <time>2025-04-09T11:00:27Z</time>
      </trkpt>
      <trkpt lat="43.63271" lon="1.38584">
        <ele>145</ele>
        <time>2025-04-09T11:00:28Z</time>
      </trkpt>
      <trkpt lat="43.63267" lon="1.38572">
        <ele>145</ele>
        <time>2025-04-09T11:00:29Z</time>
      </trkpt>
      <trkpt lat="43.63267" lon="1.38572">
        <ele>145</ele>
        <time>2025-04-09T11:00:31Z</time>
      </trkpt>
      <trkpt lat="43.63264" lon="1.38559">
        <ele>145</ele>
        <time>2025-04-09T11:00:32Z</time>
      </trkpt>
      <trkpt lat="43.63264" lon="1.38559">
        <ele>145</ele>
        <time>2025-04-09T11:00:33Z</time>
      </trkpt>
      <trkpt lat="43.63263" lon="1.38555">
        <ele>145</ele>
        <time>2025-04-09T11:00:34Z</time>
      </trkpt>
      <trkpt lat="43.63261" lon="1.3855">
        <ele>145</ele>
        <time>2025-04-09T11:00:35Z</time>
      </trkpt>
      <trkpt lat="43.6326" lon="1.38546">
        <ele>145</ele>
        <time>2025-04-09T11:00:36Z</time>
      </trkpt>
      <trkpt lat="43.63259" lon="1.38541">
        <ele>145</ele>
        <time>2025-04-09T11:00:37Z</time>
      </trkpt>
      <trkpt lat="43.63258" lon="1.38537">
        <ele>145</ele>
        <time>2025-04-09T11:00:38Z</time>
      </trkpt>
      <trkpt lat="43.63257" lon="1.38532">
        <ele>145</ele>
        <time>2025-04-09T11:00:39Z</time>
      </trkpt>
      <trkpt lat="43.63257" lon="1.38532">
        <ele>145</ele>
        <time>2025-04-09T11:00:40Z</time>
      </trkpt>
      <trkpt lat="43.63253" lon="1.38518">
        <ele>145</ele>
        <time>2025-04-09T11:00:42Z</time>
      </trkpt>
      <trkpt lat="43.63253" lon="1.38518">
        <ele>145</ele>
        <time>2025-04-09T11:00:43Z</time>
      </trkpt>
      <trkpt lat="43.63253" lon="1.38518">
        <ele>145</ele>
        <time>2025-04-09T11:00:44Z</time>
      </trkpt>
      <trkpt lat="43.6334" lon="1.38611">
        <ele>145</ele>
        <time>2025-04-09T11:03:55Z</time>
      </trkpt>
      <trkpt lat="43.6334" lon="1.38611">
        <ele>145</ele>
        <time>2025-04-09T11:03:56Z</time>
      </trkpt>
      <trkpt lat="43.6334" lon="1.38611">
        <ele>145</ele>
        <time>2025-04-09T11:03:57Z</time>
      </trkpt>
      <trkpt lat="43.6334" lon="1.38611">
        <ele>145</ele>
        <time>2025-04-09T11:03:58Z</time>
      </trkpt>
      <trkpt lat="43.6334" lon="1.38611">
        <ele>145</ele>
        <time>2025-04-09T11:03:59Z</time>
      </trkpt>
      <trkpt lat="43.6334" lon="1.38611">
        <ele>145</ele>
        <time>2025-04-09T11:04:00Z</time>
      </trkpt>
      <trkpt lat="43.63341" lon="1.38611">
        <ele>145</ele>
        <time>2025-04-09T11:04:02Z</time>
      </trkpt>
      <trkpt lat="43.63341" lon="1.38611">
        <ele>145</ele>
        <time>2025-04-09T11:04:03Z</time>
      </trkpt>
      <trkpt lat="43.63341" lon="1.38611">
        <ele>145</ele>
        <time>2025-04-09T11:04:04Z</time>
      </trkpt>
      <trkpt lat="43.63341" lon="1.38611">
        <ele>146</ele>
        <time>2025-04-09T11:04:05Z</time>
      </trkpt>
      <trkpt lat="43.63341" lon="1.38611">
        <ele>146</ele>
        <time>2025-04-09T11:04:06Z</time>
      </trkpt>
      <trkpt lat="43.63341" lon="1.38611">
        <ele>146</ele>
        <time>2025-04-09T11:04:07Z</time>
      </trkpt>
      <trkpt lat="43.63341" lon="1.38611">
        <ele>146</ele>
        <time>2025-04-09T11:04:08Z</time>
      </trkpt>
      <trkpt lat="43.63341" lon="1.38611">
        <ele>146</ele>
        <time>2025-04-09T11:04:09Z</time>
      </trkpt>
      <trkpt lat="43.63341" lon="1.38611">
        <ele>146</ele>
        <time>2025-04-09T11:04:10Z</time>
      </trkpt>
      <trkpt lat="43.63341" lon="1.38611">
        <ele>146</ele>
        <time>2025-04-09T11:04:11Z</time>
      </trkpt>
      <trkpt lat="43.63341" lon="1.38611">
        <ele>146</ele>
        <time>2025-04-09T11:04:12Z</time>
      </trkpt>
      <trkpt lat="43.63341" lon="1.38611">
        <ele>146</ele>
        <time>2025-04-09T11:04:13Z</time>
      </trkpt>
      <trkpt lat="43.63341" lon="1.38611">
        <ele>146</ele>
        <time>2025-04-09T11:04:14Z</time>
      </trkpt>
      <trkpt lat="43.63339" lon="1.38606">
        <ele>145</ele>
        <time>2025-04-09T11:04:15Z</time>
      </trkpt>
      <trkpt lat="43.63337" lon="1.38602">
        <ele>145</ele>
        <time>2025-04-09T11:04:17Z</time>
      </trkpt>
      <trkpt lat="43.63334" lon="1.38591">
        <ele>145</ele>
        <time>2025-04-09T11:04:18Z</time>
      </trkpt>
      <trkpt lat="43.63333" lon="1.38585">
        <ele>145</ele>
        <time>2025-04-09T11:04:19Z</time>
      </trkpt>
      <trkpt lat="43.63333" lon="1.38585">
        <ele>145</ele>
        <time>2025-04-09T11:04:20Z</time>
      </trkpt>
      <trkpt lat="43.63332" lon="1.38581">
        <ele>146</ele>
        <time>2025-04-09T11:04:22Z</time>
      </trkpt>
      <trkpt lat="43.63331" lon="1.38577">
        <ele>146</ele>
        <time>2025-04-09T11:04:23Z</time>
      </trkpt>
      <trkpt lat="43.63328" lon="1.38565">
        <ele>145</ele>
        <time>2025-04-09T11:04:24Z</time>
      </trkpt>
      <trkpt lat="43.63327" lon="1.3856">
        <ele>145</ele>
        <time>2025-04-09T11:04:25Z</time>
      </trkpt>
      <trkpt lat="43.63326" lon="1.38555">
        <ele>145</ele>
        <time>2025-04-09T11:04:26Z</time>
      </trkpt>
      <trkpt lat="43.63324" lon="1.3855">
        <ele>145</ele>
        <time>2025-04-09T11:04:27Z</time>
      </trkpt>
      <trkpt lat="43.63323" lon="1.38545">
        <ele>145</ele>
        <time>2025-04-09T11:04:28Z</time>
      </trkpt>
      <trkpt lat="43.63321" lon="1.3854">
        <ele>145</ele>
        <time>2025-04-09T11:04:29Z</time>
      </trkpt>
      <trkpt lat="43.6332" lon="1.38535">
        <ele>145</ele>
        <time>2025-04-09T11:04:30Z</time>
      </trkpt>
      <trkpt lat="43.63318" lon="1.38529">
        <ele>145</ele>
        <time>2025-04-09T11:04:31Z</time>
      </trkpt>
      <trkpt lat="43.63318" lon="1.38529">
        <ele>145</ele>
        <time>2025-04-09T11:04:32Z</time>
      </trkpt>
      <trkpt lat="43.63317" lon="1.38525">
        <ele>145</ele>
        <time>2025-04-09T11:04:33Z</time>
      </trkpt>
      <trkpt lat="43.63315" lon="1.38521">
        <ele>145</ele>
        <time>2025-04-09T11:04:34Z</time>
      </trkpt>
      <trkpt lat="43.63314" lon="1.38517">
        <ele>145</ele>
        <time>2025-04-09T11:04:35Z</time>
      </trkpt>
      <trkpt lat="43.63313" lon="1.38512">
        <ele>145</ele>
        <time>2025-04-09T11:04:36Z</time>
      </trkpt>
      <trkpt lat="43.63311" lon="1.38508">
        <ele>145</ele>
        <time>2025-04-09T11:04:37Z</time>
      </trkpt>
      <trkpt lat="43.6331" lon="1.38504">
        <ele>145</ele>
        <time>2025-04-09T11:04:38Z</time>
      </trkpt>
      <trkpt lat="43.6331" lon="1.38504">
        <ele>145</ele>
        <time>2025-04-09T11:04:39Z</time>
      </trkpt>
      <trkpt lat="43.63307" lon="1.38491">
        <ele>145</ele>
        <time>2025-04-09T11:04:41Z</time>
      </trkpt>
      <trkpt lat="43.63306" lon="1.38488">
        <ele>145</ele>
        <time>2025-04-09T11:04:42Z</time>
      </trkpt>
      <trkpt lat="43.63305" lon="1.38485">
        <ele>145</ele>
        <time>2025-04-09T11:04:43Z</time>
      </trkpt>
      <trkpt lat="43.63304" lon="1.38482">
        <ele>145</ele>
        <time>2025-04-09T11:04:44Z</time>
      </trkpt>
      <trkpt lat="43.63303" lon="1.38479">
        <ele>145</ele>
        <time>2025-04-09T11:04:45Z</time>
      </trkpt>
      <trkpt lat="43.63298" lon="1.3848">
        <ele>145</ele>
        <time>2025-04-09T11:04:46Z</time>
      </trkpt>
      <trkpt lat="43.63294" lon="1.38481">
        <ele>145</ele>
        <time>2025-04-09T11:04:47Z</time>
      </trkpt>
      <trkpt lat="43.63291" lon="1.38484">
        <ele>145</ele>
        <time>2025-04-09T11:04:48Z</time>
      </trkpt>
      <trkpt lat="43.63288" lon="1.38486">
        <ele>145</ele>
        <time>2025-04-09T11:04:49Z</time>
      </trkpt>
      <trkpt lat="43.63285" lon="1.38488">
        <ele>145</ele>
        <time>2025-04-09T11:04:50Z</time>
      </trkpt>
      <trkpt lat="43.63282" lon="1.3849">
        <ele>145</ele>
        <time>2025-04-09T11:04:51Z</time>
      </trkpt>
      <trkpt lat="43.63279" lon="1.38492">
        <ele>145</ele>
        <time>2025-04-09T11:04:52Z</time>
      </trkpt>
      <trkpt lat="43.63276" lon="1.38494">
        <ele>145</ele>
        <time>2025-04-09T11:04:53Z</time>
      </trkpt>
      <trkpt lat="43.63274" lon="1.38495">
        <ele>145</ele>
        <time>2025-04-09T11:04:54Z</time>
      </trkpt>
      <trkpt lat="43.63272" lon="1.38496">
        <ele>145</ele>
        <time>2025-04-09T11:04:55Z</time>
      </trkpt>
      <trkpt lat="43.63271" lon="1.38497">
        <ele>145</ele>
        <time>2025-04-09T11:04:56Z</time>
      </trkpt>
      <trkpt lat="43.63266" lon="1.385">
        <ele>145</ele>
        <time>2025-04-09T11:04:57Z</time>
      </trkpt>
      <trkpt lat="43.63256" lon="1.38506">
        <ele>145</ele>
        <time>2025-04-09T11:04:58Z</time>
      </trkpt>
      <trkpt lat="43.63256" lon="1.38506">
        <ele>146</ele>
        <time>2025-04-09T11:05:00Z</time>
      </trkpt>
      <trkpt lat="43.63253" lon="1.38519">
        <ele>146</ele>
        <time>2025-04-09T11:05:01Z</time>
      </trkpt>
      <trkpt lat="43.63253" lon="1.38519">
        <ele>146</ele>
        <time>2025-04-09T11:05:02Z</time>
      </trkpt>
      <trkpt lat="43.63255" lon="1.38523">
        <ele>145</ele>
        <time>2025-04-09T11:05:03Z</time>
      </trkpt>
      <trkpt lat="43.63256" lon="1.38528">
        <ele>145</ele>
        <time>2025-04-09T11:05:04Z</time>
      </trkpt>
      <trkpt lat="43.63258" lon="1.38533">
        <ele>145</ele>
        <time>2025-04-09T11:05:05Z</time>
      </trkpt>
      <trkpt lat="43.63259" lon="1.38535">
        <ele>145</ele>
        <time>2025-04-09T11:05:06Z</time>
      </trkpt>
      <trkpt lat="43.63259" lon="1.38537">
        <ele>145</ele>
        <time>2025-04-09T11:05:07Z</time>
      </trkpt>
      <trkpt lat="43.6326" lon="1.38539">
        <ele>145</ele>
        <time>2025-04-09T11:05:08Z</time>
      </trkpt>
      <trkpt lat="43.63264" lon="1.38551">
        <ele>145</ele>
        <time>2025-04-09T11:05:09Z</time>
      </trkpt>
      <trkpt lat="43.63265" lon="1.38555">
        <ele>145</ele>
        <time>2025-04-09T11:05:10Z</time>
      </trkpt>
      <trkpt lat="43.63267" lon="1.38559">
        <ele>145</ele>
        <time>2025-04-09T11:05:11Z</time>
      </trkpt>
      <trkpt lat="43.6327" lon="1.38567">
        <ele>145</ele>
        <time>2025-04-09T11:05:12Z</time>
      </trkpt>
      <trkpt lat="43.6327" lon="1.38567">
        <ele>145</ele>
        <time>2025-04-09T11:05:13Z</time>
      </trkpt>
      <trkpt lat="43.63271" lon="1.38571">
        <ele>145</ele>
        <time>2025-04-09T11:05:14Z</time>
      </trkpt>
      <trkpt lat="43.63272" lon="1.38576">
        <ele>145</ele>
        <time>2025-04-09T11:05:15Z</time>
      </trkpt>
      <trkpt lat="43.63273" lon="1.3858">
        <ele>145</ele>
        <time>2025-04-09T11:05:16Z</time>
      </trkpt>
      <trkpt lat="43.63274" lon="1.38585">
        <ele>145</ele>
        <time>2025-04-09T11:05:17Z</time>
      </trkpt>
      <trkpt lat="43.63276" lon="1.38593">
        <ele>145</ele>
        <time>2025-04-09T11:05:19Z</time>
      </trkpt>
      <trkpt lat="43.63277" lon="1.38596">
        <ele>145</ele>
        <time>2025-04-09T11:05:20Z</time>
      </trkpt>
      <trkpt lat="43.63278" lon="1.38598">
        <ele>145</ele>
        <time>2025-04-09T11:05:21Z</time>
      </trkpt>
      <trkpt lat="43.63279" lon="1.386">
        <ele>145</ele>
        <time>2025-04-09T11:05:22Z</time>
      </trkpt>
      <trkpt lat="43.63283" lon="1.3861">
        <ele>145</ele>
        <time>2025-04-09T11:05:23Z</time>
      </trkpt>
      <trkpt lat="43.63284" lon="1.38614">
        <ele>145</ele>
        <time>2025-04-09T11:05:24Z</time>
      </trkpt>
      <trkpt lat="43.63285" lon="1.38618">
        <ele>145</ele>
        <time>2025-04-09T11:05:25Z</time>
      </trkpt>
      <trkpt lat="43.63286" lon="1.38622">
        <ele>145</ele>
        <time>2025-04-09T11:05:26Z</time>
      </trkpt>
      <trkpt lat="43.63288" lon="1.38627">
        <ele>146</ele>
        <time>2025-04-09T11:05:27Z</time>
      </trkpt>
      <trkpt lat="43.63289" lon="1.38631">
        <ele>146</ele>
        <time>2025-04-09T11:05:28Z</time>
      </trkpt>
      <trkpt lat="43.63291" lon="1.38632">
        <ele>145</ele>
        <time>2025-04-09T11:05:29Z</time>
      </trkpt>
      <trkpt lat="43.63293" lon="1.38634">
        <ele>145</ele>
        <time>2025-04-09T11:05:30Z</time>
      </trkpt>
      <trkpt lat="43.63295" lon="1.38635">
        <ele>145</ele>
        <time>2025-04-09T11:05:31Z</time>
      </trkpt>
      <trkpt lat="43.63296" lon="1.38637">
        <ele>145</ele>
        <time>2025-04-09T11:05:32Z</time>
      </trkpt>
      <trkpt lat="43.63298" lon="1.38638">
        <ele>145</ele>
        <time>2025-04-09T11:05:33Z</time>
      </trkpt>
      <trkpt lat="43.633" lon="1.38636">
        <ele>145</ele>
        <time>2025-04-09T11:05:34Z</time>
      </trkpt>
      <trkpt lat="43.63303" lon="1.38633">
        <ele>145</ele>
        <time>2025-04-09T11:05:35Z</time>
      </trkpt>
      <trkpt lat="43.63307" lon="1.38629">
        <ele>145</ele>
        <time>2025-04-09T11:05:36Z</time>
      </trkpt>
      <trkpt lat="43.63316" lon="1.38622">
        <ele>145</ele>
        <time>2025-04-09T11:05:38Z</time>
      </trkpt>
      <trkpt lat="43.63317" lon="1.38621">
        <ele>145</ele>
        <time>2025-04-09T11:05:39Z</time>
      </trkpt>
      <trkpt lat="43.63319" lon="1.3862">
        <ele>145</ele>
        <time>2025-04-09T11:05:40Z</time>
      </trkpt>
      <trkpt lat="43.6332" lon="1.38619">
        <ele>145</ele>
        <time>2025-04-09T11:05:41Z</time>
      </trkpt>
      <trkpt lat="43.63325" lon="1.38615">
        <ele>145</ele>
        <time>2025-04-09T11:05:42Z</time>
      </trkpt>
      <trkpt lat="43.63334" lon="1.3861">
        <ele>145</ele>
        <time>2025-04-09T11:05:43Z</time>
      </trkpt>
      <trkpt lat="43.63334" lon="1.3861">
        <ele>145</ele>
        <time>2025-04-09T11:05:45Z</time>
      </trkpt>
      <trkpt lat="43.63336" lon="1.38606">
        <ele>145</ele>
        <time>2025-04-09T11:05:46Z</time>
      </trkpt>
      <trkpt lat="43.63338" lon="1.38603">
        <ele>145</ele>
        <time>2025-04-09T11:05:47Z</time>
      </trkpt>
      <trkpt lat="43.63339" lon="1.38599">
        <ele>145</ele>
        <time>2025-04-09T11:05:48Z</time>
      </trkpt>
      <trkpt lat="43.63338" lon="1.38595">
        <ele>145</ele>
        <time>2025-04-09T11:05:49Z</time>
      </trkpt>
      <trkpt lat="43.63336" lon="1.38592">
        <ele>145</ele>
        <time>2025-04-09T11:05:50Z</time>
      </trkpt>
      <trkpt lat="43.63334" lon="1.38588">
        <ele>145</ele>
        <time>2025-04-09T11:05:51Z</time>
      </trkpt>
      <trkpt lat="43.63333" lon="1.38584">
        <ele>145</ele>
        <time>2025-04-09T11:05:52Z</time>
      </trkpt>
      <trkpt lat="43.63331" lon="1.3858">
        <ele>145</ele>
        <time>2025-04-09T11:05:53Z</time>
      </trkpt>
      <trkpt lat="43.63329" lon="1.38576">
        <ele>145</ele>
        <time>2025-04-09T11:05:54Z</time>
      </trkpt>
      <trkpt lat="43.63329" lon="1.38576">
        <ele>145</ele>
        <time>2025-04-09T11:05:55Z</time>
      </trkpt>
      <trkpt lat="43.63325" lon="1.38563">
        <ele>146</ele>
        <time>2025-04-09T11:05:57Z</time>
      </trkpt>
      <trkpt lat="43.63325" lon="1.38559">
        <ele>146</ele>
        <time>2025-04-09T11:05:58Z</time>
      </trkpt>
      <trkpt lat="43.63324" lon="1.38556">
        <ele>146</ele>
        <time>2025-04-09T11:05:59Z</time>
      </trkpt>
      <trkpt lat="43.63323" lon="1.38552">
        <ele>146</ele>
        <time>2025-04-09T11:06:00Z</time>
      </trkpt>
      <trkpt lat="43.63323" lon="1.38549">
        <ele>145</ele>
        <time>2025-04-09T11:06:01Z</time>
      </trkpt>
      <trkpt lat="43.63321" lon="1.38543">
        <ele>145</ele>
        <time>2025-04-09T11:06:02Z</time>
      </trkpt>
      <trkpt lat="43.63319" lon="1.38537">
        <ele>145</ele>
        <time>2025-04-09T11:06:03Z</time>
      </trkpt>
      <trkpt lat="43.63318" lon="1.38532">
        <ele>145</ele>
        <time>2025-04-09T11:06:04Z</time>
      </trkpt>
      <trkpt lat="43.63317" lon="1.38528">
        <ele>145</ele>
        <time>2025-04-09T11:06:05Z</time>
      </trkpt>
      <trkpt lat="43.63316" lon="1.38524">
        <ele>145</ele>
        <time>2025-04-09T11:06:06Z</time>
      </trkpt>
      <trkpt lat="43.63315" lon="1.3852">
        <ele>145</ele>
        <time>2025-04-09T11:06:07Z</time>
      </trkpt>
      <trkpt lat="43.63314" lon="1.38515">
        <ele>145</ele>
        <time>2025-04-09T11:06:08Z</time>
      </trkpt>
      <trkpt lat="43.63313" lon="1.38511">
        <ele>145</ele>
        <time>2025-04-09T11:06:09Z</time>
      </trkpt>
      <trkpt lat="43.63312" lon="1.38509">
        <ele>145</ele>
        <time>2025-04-09T11:06:10Z</time>
      </trkpt>
      <trkpt lat="43.63312" lon="1.38507">
        <ele>145</ele>
        <time>2025-04-09T11:06:11Z</time>
      </trkpt>
      <trkpt lat="43.63312" lon="1.38505">
        <ele>145</ele>
        <time>2025-04-09T11:06:12Z</time>
      </trkpt>
      <trkpt lat="43.63311" lon="1.38503">
        <ele>145</ele>
        <time>2025-04-09T11:06:13Z</time>
      </trkpt>
      <trkpt lat="43.63308" lon="1.3849">
        <ele>145</ele>
        <time>2025-04-09T11:06:14Z</time>
      </trkpt>
      <trkpt lat="43.63307" lon="1.38486">
        <ele>145</ele>
        <time>2025-04-09T11:06:16Z</time>
      </trkpt>
      <trkpt lat="43.63306" lon="1.38482">
        <ele>145</ele>
        <time>2025-04-09T11:06:17Z</time>
      </trkpt>
      <trkpt lat="43.63303" lon="1.3848">
        <ele>145</ele>
        <time>2025-04-09T11:06:18Z</time>
      </trkpt>
      <trkpt lat="43.63299" lon="1.38479">
        <ele>145</ele>
        <time>2025-04-09T11:06:19Z</time>
      </trkpt>
      <trkpt lat="43.63296" lon="1.38478">
        <ele>145</ele>
        <time>2025-04-09T11:06:20Z</time>
      </trkpt>
      <trkpt lat="43.63294" lon="1.38479">
        <ele>145</ele>
        <time>2025-04-09T11:06:21Z</time>
      </trkpt>
      <trkpt lat="43.63293" lon="1.3848">
        <ele>145</ele>
        <time>2025-04-09T11:06:22Z</time>
      </trkpt>
      <trkpt lat="43.63291" lon="1.38481">
        <ele>145</ele>
        <time>2025-04-09T11:06:23Z</time>
      </trkpt>
      <trkpt lat="43.63284" lon="1.38486">
        <ele>145</ele>
        <time>2025-04-09T11:06:24Z</time>
      </trkpt>
      <trkpt lat="43.6328" lon="1.38489">
        <ele>145</ele>
        <time>2025-04-09T11:06:25Z</time>
      </trkpt>
      <trkpt lat="43.63277" lon="1.38491">
        <ele>145</ele>
        <time>2025-04-09T11:06:26Z</time>
      </trkpt>
      <trkpt lat="43.63274" lon="1.38492">
        <ele>145</ele>
        <time>2025-04-09T11:06:27Z</time>
      </trkpt>
      <trkpt lat="43.63271" lon="1.38494">
        <ele>146</ele>
        <time>2025-04-09T11:06:28Z</time>
      </trkpt>
      <trkpt lat="43.63269" lon="1.38496">
        <ele>146</ele>
        <time>2025-04-09T11:06:29Z</time>
      </trkpt>
      <trkpt lat="43.63266" lon="1.38497">
        <ele>146</ele>
        <time>2025-04-09T11:06:30Z</time>
      </trkpt>
      <trkpt lat="43.63264" lon="1.38498">
        <ele>146</ele>
        <time>2025-04-09T11:06:31Z</time>
      </trkpt>
      <trkpt lat="43.63262" lon="1.385">
        <ele>146</ele>
        <time>2025-04-09T11:06:32Z</time>
      </trkpt>
      <trkpt lat="43.6326" lon="1.38501">
        <ele>146</ele>
        <time>2025-04-09T11:06:33Z</time>
      </trkpt>
      <trkpt lat="43.63253" lon="1.38511">
        <ele>146</ele>
        <time>2025-04-09T11:06:35Z</time>
      </trkpt>
      <trkpt lat="43.63253" lon="1.38511">
        <ele>146</ele>
        <time>2025-04-09T11:06:36Z</time>
      </trkpt>
      <trkpt lat="43.63255" lon="1.38525">
        <ele>146</ele>
        <time>2025-04-09T11:06:37Z</time>
      </trkpt>
      <trkpt lat="43.63255" lon="1.38525">
        <ele>145</ele>
        <time>2025-04-09T11:06:38Z</time>
      </trkpt>
      <trkpt lat="43.63256" lon="1.38527">
        <ele>145</ele>
        <time>2025-04-09T11:06:39Z</time>
      </trkpt>
      <trkpt lat="43.63257" lon="1.3853">
        <ele>145</ele>
        <time>2025-04-09T11:06:40Z</time>
      </trkpt>
      <trkpt lat="43.63258" lon="1.38533">
        <ele>145</ele>
        <time>2025-04-09T11:06:41Z</time>
      </trkpt>
      <trkpt lat="43.63261" lon="1.38541">
        <ele>145</ele>
        <time>2025-04-09T11:06:42Z</time>
      </trkpt>
      <trkpt lat="43.63263" lon="1.38546">
        <ele>146</ele>
        <time>2025-04-09T11:06:43Z</time>
      </trkpt>
      <trkpt lat="43.63264" lon="1.3855">
        <ele>146</ele>
        <time>2025-04-09T11:06:44Z</time>
      </trkpt>
      <trkpt lat="43.63266" lon="1.38554">
        <ele>145</ele>
        <time>2025-04-09T11:06:45Z</time>
      </trkpt>
      <trkpt lat="43.63267" lon="1.38557">
        <ele>145</ele>
        <time>2025-04-09T11:06:46Z</time>
      </trkpt>
      <trkpt lat="43.63268" lon="1.3856">
        <ele>145</ele>
        <time>2025-04-09T11:06:47Z</time>
      </trkpt>
      <trkpt lat="43.6327" lon="1.38563">
        <ele>145</ele>
        <time>2025-04-09T11:06:48Z</time>
      </trkpt>
      <trkpt lat="43.63271" lon="1.38566">
        <ele>145</ele>
        <time>2025-04-09T11:06:49Z</time>
      </trkpt>
      <trkpt lat="43.63273" lon="1.38572">
        <ele>145</ele>
        <time>2025-04-09T11:06:50Z</time>
      </trkpt>
      <trkpt lat="43.63275" lon="1.38579">
        <ele>145</ele>
        <time>2025-04-09T11:06:51Z</time>
      </trkpt>
      <trkpt lat="43.63275" lon="1.38579">
        <ele>145</ele>
        <time>2025-04-09T11:06:52Z</time>
      </trkpt>
      <trkpt lat="43.63278" lon="1.38592">
        <ele>145</ele>
        <time>2025-04-09T11:06:54Z</time>
      </trkpt>
      <trkpt lat="43.63279" lon="1.38596">
        <ele>145</ele>
        <time>2025-04-09T11:06:55Z</time>
      </trkpt>
      <trkpt lat="43.6328" lon="1.386">
        <ele>145</ele>
        <time>2025-04-09T11:06:56Z</time>
      </trkpt>
      <trkpt lat="43.63282" lon="1.38605">
        <ele>145</ele>
        <time>2025-04-09T11:06:57Z</time>
      </trkpt>
      <trkpt lat="43.63283" lon="1.38609">
        <ele>145</ele>
        <time>2025-04-09T11:06:58Z</time>
      </trkpt>
      <trkpt lat="43.63284" lon="1.38614">
        <ele>145</ele>
        <time>2025-04-09T11:06:59Z</time>
      </trkpt>
      <trkpt lat="43.63285" lon="1.38618">
        <ele>145</ele>
        <time>2025-04-09T11:07:00Z</time>
      </trkpt>
      <trkpt lat="43.63286" lon="1.38622">
        <ele>145</ele>
        <time>2025-04-09T11:07:01Z</time>
      </trkpt>
      <trkpt lat="43.63287" lon="1.38625">
        <ele>145</ele>
        <time>2025-04-09T11:07:02Z</time>
      </trkpt>
      <trkpt lat="43.63288" lon="1.38628">
        <ele>145</ele>
        <time>2025-04-09T11:07:03Z</time>
      </trkpt>
      <trkpt lat="43.63289" lon="1.38631">
        <ele>145</ele>
        <time>2025-04-09T11:07:04Z</time>
      </trkpt>
      <trkpt lat="43.6329" lon="1.38632">
        <ele>145</ele>
        <time>2025-04-09T11:07:05Z</time>
      </trkpt>
      <trkpt lat="43.63291" lon="1.38633">
        <ele>145</ele>
        <time>2025-04-09T11:07:06Z</time>
      </trkpt>
      <trkpt lat="43.63293" lon="1.38633">
        <ele>145</ele>
        <time>2025-04-09T11:07:07Z</time>
      </trkpt>
      <trkpt lat="43.63294" lon="1.38634">
        <ele>145</ele>
        <time>2025-04-09T11:07:08Z</time>
      </trkpt>
      <trkpt lat="43.633" lon="1.38636">
        <ele>145</ele>
        <time>2025-04-09T11:07:09Z</time>
      </trkpt>
      <trkpt lat="43.63301" lon="1.38635">
        <ele>145</ele>
        <time>2025-04-09T11:07:10Z</time>
      </trkpt>
      <trkpt lat="43.63302" lon="1.38634">
        <ele>145</ele>
        <time>2025-04-09T11:07:11Z</time>
      </trkpt>
      <trkpt lat="43.63311" lon="1.38626">
        <ele>145</ele>
        <time>2025-04-09T11:07:13Z</time>
      </trkpt>
      <trkpt lat="43.63313" lon="1.38624">
        <ele>145</ele>
        <time>2025-04-09T11:07:14Z</time>
      </trkpt>
      <trkpt lat="43.63321" lon="1.38618">
        <ele>145</ele>
        <time>2025-04-09T11:07:15Z</time>
      </trkpt>
      <trkpt lat="43.63323" lon="1.38617">
        <ele>145</ele>
        <time>2025-04-09T11:07:16Z</time>
      </trkpt>
      <trkpt lat="43.63326" lon="1.38615">
        <ele>145</ele>
        <time>2025-04-09T11:07:17Z</time>
      </trkpt>
      <trkpt lat="43.63328" lon="1.38613">
        <ele>145</ele>
        <time>2025-04-09T11:07:18Z</time>
      </trkpt>
      <trkpt lat="43.63331" lon="1.38612">
        <ele>145</ele>
        <time>2025-04-09T11:07:19Z</time>
      </trkpt>
      <trkpt lat="43.63333" lon="1.3861">
        <ele>145</ele>
        <time>2025-04-09T11:07:20Z</time>
      </trkpt>
      <trkpt lat="43.63338" lon="1.38605">
        <ele>145</ele>
        <time>2025-04-09T11:07:21Z</time>
      </trkpt>
      <trkpt lat="43.63338" lon="1.38603">
        <ele>145</ele>
        <time>2025-04-09T11:07:22Z</time>
      </trkpt>
      <trkpt lat="43.63339" lon="1.38601">
        <ele>146</ele>
        <time>2025-04-09T11:07:23Z</time>
      </trkpt>
      <trkpt lat="43.63339" lon="1.38599">
        <ele>146</ele>
        <time>2025-04-09T11:07:24Z</time>
      </trkpt>
      <trkpt lat="43.63337" lon="1.38588">
        <ele>146</ele>
        <time>2025-04-09T11:07:25Z</time>
      </trkpt>
      <trkpt lat="43.63335" lon="1.38585">
        <ele>146</ele>
        <time>2025-04-09T11:07:26Z</time>
      </trkpt>
      <trkpt lat="43.63333" lon="1.38581">
        <ele>146</ele>
        <time>2025-04-09T11:07:27Z</time>
      </trkpt>
      <trkpt lat="43.63332" lon="1.38577">
        <ele>146</ele>
        <time>2025-04-09T11:07:28Z</time>
      </trkpt>
      <trkpt lat="43.6333" lon="1.38574">
        <ele>145</ele>
        <time>2025-04-09T11:07:29Z</time>
      </trkpt>
      <trkpt lat="43.63329" lon="1.3857">
        <ele>145</ele>
        <time>2025-04-09T11:07:30Z</time>
      </trkpt>
      <trkpt lat="43.63327" lon="1.38566">
        <ele>145</ele>
        <time>2025-04-09T11:07:32Z</time>
      </trkpt>
      <trkpt lat="43.63326" lon="1.38562">
        <ele>145</ele>
        <time>2025-04-09T11:07:33Z</time>
      </trkpt>
      <trkpt lat="43.63324" lon="1.38558">
        <ele>145</ele>
        <time>2025-04-09T11:07:34Z</time>
      </trkpt>
      <trkpt lat="43.63323" lon="1.38551">
        <ele>145</ele>
        <time>2025-04-09T11:07:35Z</time>
      </trkpt>
      <trkpt lat="43.63321" lon="1.38545">
        <ele>145</ele>
        <time>2025-04-09T11:07:36Z</time>
      </trkpt>
      <trkpt lat="43.6332" lon="1.38541">
        <ele>145</ele>
        <time>2025-04-09T11:07:37Z</time>
      </trkpt>
      <trkpt lat="43.63318" lon="1.38537">
        <ele>145</ele>
        <time>2025-04-09T11:07:38Z</time>
      </trkpt>
      <trkpt lat="43.63317" lon="1.38533">
        <ele>145</ele>
        <time>2025-04-09T11:07:39Z</time>
      </trkpt>
      <trkpt lat="43.63315" lon="1.38529">
        <ele>145</ele>
        <time>2025-04-09T11:07:40Z</time>
      </trkpt>
      <trkpt lat="43.63314" lon="1.38525">
        <ele>145</ele>
        <time>2025-04-09T11:07:41Z</time>
      </trkpt>
      <trkpt lat="43.63313" lon="1.38521">
        <ele>145</ele>
        <time>2025-04-09T11:07:42Z</time>
      </trkpt>
      <trkpt lat="43.63312" lon="1.38517">
        <ele>145</ele>
        <time>2025-04-09T11:07:43Z</time>
      </trkpt>
      <trkpt lat="43.63311" lon="1.38512">
        <ele>145</ele>
        <time>2025-04-09T11:07:44Z</time>
      </trkpt>
      <trkpt lat="43.63309" lon="1.38508">
        <ele>145</ele>
        <time>2025-04-09T11:07:45Z</time>
      </trkpt>
      <trkpt lat="43.63309" lon="1.38508">
        <ele>145</ele>
        <time>2025-04-09T11:07:46Z</time>
      </trkpt>
      <trkpt lat="43.63306" lon="1.38495">
        <ele>145</ele>
        <time>2025-04-09T11:07:47Z</time>
      </trkpt>
      <trkpt lat="43.63306" lon="1.38495">
        <ele>145</ele>
        <time>2025-04-09T11:07:49Z</time>
      </trkpt>
      <trkpt lat="43.63302" lon="1.38484">
        <ele>145</ele>
        <time>2025-04-09T11:07:50Z</time>
      </trkpt>
      <trkpt lat="43.63301" lon="1.38482">
        <ele>145</ele>
        <time>2025-04-09T11:07:51Z</time>
      </trkpt>
      <trkpt lat="43.63299" lon="1.38479">
        <ele>145</ele>
        <time>2025-04-09T11:07:52Z</time>
      </trkpt>
      <trkpt lat="43.63296" lon="1.38479">
        <ele>145</ele>
        <time>2025-04-09T11:07:53Z</time>
      </trkpt>
      <trkpt lat="43.63291" lon="1.38482">
        <ele>146</ele>
        <time>2025-04-09T11:07:54Z</time>
      </trkpt>
      <trkpt lat="43.63288" lon="1.38484">
        <ele>146</ele>
        <time>2025-04-09T11:07:55Z</time>
      </trkpt>
      <trkpt lat="43.63285" lon="1.38486">
        <ele>146</ele>
        <time>2025-04-09T11:07:56Z</time>
      </trkpt>
      <trkpt lat="43.63282" lon="1.38488">
        <ele>146</ele>
        <time>2025-04-09T11:07:57Z</time>
      </trkpt>
      <trkpt lat="43.63282" lon="1.38488">
        <ele>146</ele>
        <time>2025-04-09T11:07:58Z</time>
      </trkpt>
      <trkpt lat="43.63276" lon="1.38491">
        <ele>146</ele>
        <time>2025-04-09T11:07:59Z</time>
      </trkpt>
      <trkpt lat="43.63273" lon="1.38493">
        <ele>146</ele>
        <time>2025-04-09T11:08:00Z</time>
      </trkpt>
      <trkpt lat="43.63273" lon="1.38493">
        <ele>146</ele>
        <time>2025-04-09T11:08:01Z</time>
      </trkpt>
      <trkpt lat="43.6327" lon="1.38495">
        <ele>146</ele>
        <time>2025-04-09T11:08:02Z</time>
      </trkpt>
      <trkpt lat="43.63264" lon="1.38499">
        <ele>146</ele>
        <time>2025-04-09T11:08:03Z</time>
      </trkpt>
      <trkpt lat="43.6326" lon="1.38501">
        <ele>146</ele>
        <time>2025-04-09T11:08:04Z</time>
      </trkpt>
      <trkpt lat="43.6326" lon="1.38501">
        <ele>146</ele>
        <time>2025-04-09T11:08:05Z</time>
      </trkpt>
      <trkpt lat="43.63257" lon="1.38503">
        <ele>146</ele>
        <time>2025-04-09T11:08:06Z</time>
      </trkpt>
      <trkpt lat="43.63253" lon="1.3851">
        <ele>146</ele>
        <time>2025-04-09T11:08:07Z</time>
      </trkpt>
      <trkpt lat="43.63253" lon="1.38514">
        <ele>146</ele>
        <time>2025-04-09T11:08:08Z</time>
      </trkpt>
      <trkpt lat="43.63253" lon="1.38518">
        <ele>145</ele>
        <time>2025-04-09T11:08:10Z</time>
      </trkpt>
      <trkpt lat="43.63254" lon="1.38523">
        <ele>145</ele>
        <time>2025-04-09T11:08:11Z</time>
      </trkpt>
      <trkpt lat="43.63255" lon="1.38527">
        <ele>145</ele>
        <time>2025-04-09T11:08:12Z</time>
      </trkpt>
      <trkpt lat="43.63258" lon="1.38537">
        <ele>145</ele>
        <time>2025-04-09T11:08:13Z</time>
      </trkpt>
      <trkpt lat="43.6326" lon="1.38541">
        <ele>145</ele>
        <time>2025-04-09T11:08:14Z</time>
      </trkpt>
      <trkpt lat="43.63261" lon="1.38545">
        <ele>145</ele>
        <time>2025-04-09T11:08:15Z</time>
      </trkpt>
      <trkpt lat="43.63263" lon="1.3855">
        <ele>145</ele>
        <time>2025-04-09T11:08:16Z</time>
      </trkpt>
      <trkpt lat="43.63265" lon="1.38554">
        <ele>145</ele>
        <time>2025-04-09T11:08:18Z</time>
      </trkpt>
      <trkpt lat="43.63269" lon="1.38563">
        <ele>145</ele>
        <time>2025-04-09T11:08:19Z</time>
      </trkpt>
      <trkpt lat="43.6327" lon="1.38567">
        <ele>145</ele>
        <time>2025-04-09T11:08:20Z</time>
      </trkpt>
      <trkpt lat="43.6327" lon="1.38567">
        <ele>146</ele>
        <time>2025-04-09T11:08:21Z</time>
      </trkpt>
      <trkpt lat="43.63272" lon="1.38571">
        <ele>146</ele>
        <time>2025-04-09T11:08:22Z</time>
      </trkpt>
      <trkpt lat="43.63273" lon="1.38576">
        <ele>146</ele>
        <time>2025-04-09T11:08:23Z</time>
      </trkpt>
      <trkpt lat="43.63274" lon="1.3858">
        <ele>146</ele>
        <time>2025-04-09T11:08:24Z</time>
      </trkpt>
      <trkpt lat="43.63275" lon="1.38584">
        <ele>146</ele>
        <time>2025-04-09T11:08:25Z</time>
      </trkpt>
      <trkpt lat="43.63277" lon="1.38588">
        <ele>146</ele>
        <time>2025-04-09T11:08:26Z</time>
      </trkpt>
      <trkpt lat="43.63278" lon="1.38592">
        <ele>146</ele>
        <time>2025-04-09T11:08:27Z</time>
      </trkpt>
      <trkpt lat="43.63281" lon="1.38598">
        <ele>146</ele>
        <time>2025-04-09T11:08:28Z</time>
      </trkpt>
      <trkpt lat="43.63281" lon="1.386">
        <ele>146</ele>
        <time>2025-04-09T11:08:29Z</time>
      </trkpt>
      <trkpt lat="43.63283" lon="1.38605">
        <ele>146</ele>
        <time>2025-04-09T11:08:30Z</time>
      </trkpt>
      <trkpt lat="43.63284" lon="1.38609">
        <ele>146</ele>
        <time>2025-04-09T11:08:31Z</time>
      </trkpt>
      <trkpt lat="43.63286" lon="1.38613">
        <ele>146</ele>
        <time>2025-04-09T11:08:32Z</time>
      </trkpt>
      <trkpt lat="43.63287" lon="1.38617">
        <ele>146</ele>
        <time>2025-04-09T11:08:33Z</time>
      </trkpt>
      <trkpt lat="43.63289" lon="1.38621">
        <ele>146</ele>
        <time>2025-04-09T11:08:34Z</time>
      </trkpt>
      <trkpt lat="43.63291" lon="1.38629">
        <ele>146</ele>
        <time>2025-04-09T11:08:35Z</time>
      </trkpt>
      <trkpt lat="43.63291" lon="1.38629">
        <ele>146</ele>
        <time>2025-04-09T11:08:36Z</time>
      </trkpt>
      <trkpt lat="43.63293" lon="1.38632">
        <ele>146</ele>
        <time>2025-04-09T11:08:37Z</time>
      </trkpt>
      <trkpt lat="43.63295" lon="1.38634">
        <ele>146</ele>
        <time>2025-04-09T11:08:38Z</time>
      </trkpt>
      <trkpt lat="43.63296" lon="1.38636">
        <ele>146</ele>
        <time>2025-04-09T11:08:39Z</time>
      </trkpt>
      <trkpt lat="43.63298" lon="1.38638">
        <ele>146</ele>
        <time>2025-04-09T11:08:40Z</time>
      </trkpt>
      <trkpt lat="43.63301" lon="1.38636">
        <ele>146</ele>
        <time>2025-04-09T11:08:41Z</time>
      </trkpt>
      <trkpt lat="43.63304" lon="1.38634">
        <ele>145</ele>
        <time>2025-04-09T11:08:42Z</time>
      </trkpt>
      <trkpt lat="43.63306" lon="1.38632">
        <ele>145</ele>
        <time>2025-04-09T11:08:43Z</time>
      </trkpt>
      <trkpt lat="43.63309" lon="1.3863">
        <ele>145</ele>
        <time>2025-04-09T11:08:44Z</time>
      </trkpt>
      <trkpt lat="43.63312" lon="1.38627">
        <ele>146</ele>
        <time>2025-04-09T11:08:45Z</time>
      </trkpt>
      <trkpt lat="43.63315" lon="1.38625">
        <ele>146</ele>
        <time>2025-04-09T11:08:46Z</time>
      </trkpt>
      <trkpt lat="43.63321" lon="1.38619">
        <ele>146</ele>
        <time>2025-04-09T11:08:48Z</time>
      </trkpt>
      <trkpt lat="43.63321" lon="1.38619">
        <ele>145</ele>
        <time>2025-04-09T11:08:49Z</time>
      </trkpt>
      <trkpt lat="43.63328" lon="1.38616">
        <ele>145</ele>
        <time>2025-04-09T11:08:50Z</time>
      </trkpt>
      <trkpt lat="43.63333" lon="1.38613">
        <ele>145</ele>
        <time>2025-04-09T11:08:51Z</time>
      </trkpt>
      <trkpt lat="43.63336" lon="1.3861">
        <ele>145</ele>
        <time>2025-04-09T11:08:52Z</time>
      </trkpt>
      <trkpt lat="43.63336" lon="1.3861">
        <ele>145</ele>
        <time>2025-04-09T11:08:53Z</time>
      </trkpt>
      <trkpt lat="43.63338" lon="1.38608">
        <ele>145</ele>
        <time>2025-04-09T11:08:54Z</time>
      </trkpt>
      <trkpt lat="43.63253" lon="1.38508">
        <ele>147</ele>
        <time>2025-04-09T11:12:24Z</time>
      </trkpt>
      <trkpt lat="43.63253" lon="1.38508">
        <ele>147</ele>
        <time>2025-04-09T11:12:25Z</time>
      </trkpt>
      <trkpt lat="43.63253" lon="1.38508">
        <ele>147</ele>
        <time>2025-04-09T11:12:26Z</time>
      </trkpt>
      <trkpt lat="43.63253" lon="1.38507">
        <ele>147</ele>
        <time>2025-04-09T11:12:29Z</time>
      </trkpt>
      <trkpt lat="43.63253" lon="1.38507">
        <ele>147</ele>
        <time>2025-04-09T11:12:31Z</time>
      </trkpt>
      <trkpt lat="43.63253" lon="1.38507">
        <ele>147</ele>
        <time>2025-04-09T11:12:32Z</time>
      </trkpt>
      <trkpt lat="43.63253" lon="1.38507">
        <ele>147</ele>
        <time>2025-04-09T11:12:33Z</time>
      </trkpt>
      <trkpt lat="43.63253" lon="1.38507">
        <ele>147</ele>
        <time>2025-04-09T11:12:34Z</time>
      </trkpt>
      <trkpt lat="43.63253" lon="1.38507">
        <ele>147</ele>
        <time>2025-04-09T11:12:35Z</time>
      </trkpt>
      <trkpt lat="43.63253" lon="1.38507">
        <ele>147</ele>
        <time>2025-04-09T11:12:36Z</time>
      </trkpt>
      <trkpt lat="43.63253" lon="1.38507">
        <ele>147</ele>
        <time>2025-04-09T11:12:37Z</time>
      </trkpt>
      <trkpt lat="43.63253" lon="1.38507">
        <ele>147</ele>
        <time>2025-04-09T11:12:38Z</time>
      </trkpt>
      <trkpt lat="43.63253" lon="1.38507">
        <ele>147</ele>
        <time>2025-04-09T11:12:39Z</time>
      </trkpt>
      <trkpt lat="43.63256" lon="1.3851">
        <ele>147</ele>
        <time>2025-04-09T11:12:40Z</time>
      </trkpt>
      <trkpt lat="43.63257" lon="1.38515">
        <ele>147</ele>
        <time>2025-04-09T11:12:41Z</time>
      </trkpt>
      <trkpt lat="43.63258" lon="1.3852">
        <ele>147</ele>
        <time>2025-04-09T11:12:42Z</time>
      </trkpt>
      <trkpt lat="43.63259" lon="1.38525">
        <ele>147</ele>
        <time>2025-04-09T11:12:43Z</time>
      </trkpt>
      <trkpt lat="43.63261" lon="1.3853">
        <ele>147</ele>
        <time>2025-04-09T11:12:44Z</time>
      </trkpt>
      <trkpt lat="43.63262" lon="1.38535">
        <ele>147</ele>
        <time>2025-04-09T11:12:45Z</time>
      </trkpt>
      <trkpt lat="43.63262" lon="1.38535">
        <ele>147</ele>
        <time>2025-04-09T11:12:46Z</time>
      </trkpt>
      <trkpt lat="43.63263" lon="1.3854">
        <ele>147</ele>
        <time>2025-04-09T11:12:47Z</time>
      </trkpt>
      <trkpt lat="43.63264" lon="1.38545">
        <ele>146</ele>
        <time>2025-04-09T11:12:48Z</time>
      </trkpt>
      <trkpt lat="43.63267" lon="1.38552">
        <ele>146</ele>
        <time>2025-04-09T11:12:49Z</time>
      </trkpt>
      <trkpt lat="43.63268" lon="1.38554">
        <ele>147</ele>
        <time>2025-04-09T11:12:50Z</time>
      </trkpt>
      <trkpt lat="43.63271" lon="1.38563">
        <ele>147</ele>
        <time>2025-04-09T11:12:51Z</time>
      </trkpt>
      <trkpt lat="43.63271" lon="1.38563">
        <ele>147</ele>
        <time>2025-04-09T11:12:52Z</time>
      </trkpt>
      <trkpt lat="43.63272" lon="1.38568">
        <ele>147</ele>
        <time>2025-04-09T11:12:53Z</time>
      </trkpt>
      <trkpt lat="43.63275" lon="1.38577">
        <ele>147</ele>
        <time>2025-04-09T11:12:54Z</time>
      </trkpt>
      <trkpt lat="43.63275" lon="1.38577">
        <ele>147</ele>
        <time>2025-04-09T11:12:55Z</time>
      </trkpt>
      <trkpt lat="43.63276" lon="1.38582">
        <ele>147</ele>
        <time>2025-04-09T11:12:56Z</time>
      </trkpt>
      <trkpt lat="43.63278" lon="1.38586">
        <ele>147</ele>
        <time>2025-04-09T11:12:57Z</time>
      </trkpt>
      <trkpt lat="43.63279" lon="1.3859">
        <ele>147</ele>
        <time>2025-04-09T11:12:58Z</time>
      </trkpt>
      <trkpt lat="43.6328" lon="1.38594">
        <ele>147</ele>
        <time>2025-04-09T11:12:59Z</time>
      </trkpt>
      <trkpt lat="43.63282" lon="1.38603">
        <ele>147</ele>
        <time>2025-04-09T11:13:00Z</time>
      </trkpt>
      <trkpt lat="43.63282" lon="1.38603">
        <ele>147</ele>
        <time>2025-04-09T11:13:01Z</time>
      </trkpt>
      <trkpt lat="43.63284" lon="1.38607">
        <ele>147</ele>
        <time>2025-04-09T11:13:02Z</time>
      </trkpt>
      <trkpt lat="43.63286" lon="1.38615">
        <ele>147</ele>
        <time>2025-04-09T11:13:03Z</time>
      </trkpt>
      <trkpt lat="43.63289" lon="1.38623">
        <ele>147</ele>
        <time>2025-04-09T11:13:05Z</time>
      </trkpt>
      <trkpt lat="43.63289" lon="1.38623">
        <ele>147</ele>
        <time>2025-04-09T11:13:06Z</time>
      </trkpt>
      <trkpt lat="43.6329" lon="1.38627">
        <ele>147</ele>
        <time>2025-04-09T11:13:07Z</time>
      </trkpt>
      <trkpt lat="43.63292" lon="1.38633">
        <ele>147</ele>
        <time>2025-04-09T11:13:09Z</time>
      </trkpt>
      <trkpt lat="43.63294" lon="1.38639">
        <ele>147</ele>
        <time>2025-04-09T11:13:10Z</time>
      </trkpt>
      <trkpt lat="43.63296" lon="1.38638">
        <ele>147</ele>
        <time>2025-04-09T11:13:11Z</time>
      </trkpt>
      <trkpt lat="43.63299" lon="1.38637">
        <ele>147</ele>
        <time>2025-04-09T11:13:12Z</time>
      </trkpt>
      <trkpt lat="43.63302" lon="1.38635">
        <ele>147</ele>
        <time>2025-04-09T11:13:13Z</time>
      </trkpt>
      <trkpt lat="43.63305" lon="1.38634">
        <ele>147</ele>
        <time>2025-04-09T11:13:14Z</time>
      </trkpt>
      <trkpt lat="43.63308" lon="1.38631">
        <ele>147</ele>
        <time>2025-04-09T11:13:15Z</time>
      </trkpt>
      <trkpt lat="43.63311" lon="1.38629">
        <ele>147</ele>
        <time>2025-04-09T11:13:16Z</time>
      </trkpt>
      <trkpt lat="43.63314" lon="1.38626">
        <ele>147</ele>
        <time>2025-04-09T11:13:17Z</time>
      </trkpt>
      <trkpt lat="43.63318" lon="1.38623">
        <ele>147</ele>
        <time>2025-04-09T11:13:18Z</time>
      </trkpt>
      <trkpt lat="43.63322" lon="1.3862">
        <ele>147</ele>
        <time>2025-04-09T11:13:19Z</time>
      </trkpt>
      <trkpt lat="43.63325" lon="1.38618">
        <ele>147</ele>
        <time>2025-04-09T11:13:20Z</time>
      </trkpt>
      <trkpt lat="43.63329" lon="1.38615">
        <ele>147</ele>
        <time>2025-04-09T11:13:21Z</time>
      </trkpt>
      <trkpt lat="43.63334" lon="1.38611">
        <ele>147</ele>
        <time>2025-04-09T11:13:22Z</time>
      </trkpt>
      <trkpt lat="43.63334" lon="1.38611">
        <ele>147</ele>
        <time>2025-04-09T11:13:23Z</time>
      </trkpt>
      <trkpt lat="43.63336" lon="1.38609">
        <ele>146</ele>
        <time>2025-04-09T11:13:24Z</time>
      </trkpt>
      <trkpt lat="43.63338" lon="1.38606">
        <ele>146</ele>
        <time>2025-04-09T11:13:25Z</time>
      </trkpt>
      <trkpt lat="43.6334" lon="1.38604">
        <ele>146</ele>
        <time>2025-04-09T11:13:26Z</time>
      </trkpt>
      <trkpt lat="43.63338" lon="1.38598">
        <ele>146</ele>
        <time>2025-04-09T11:13:28Z</time>
      </trkpt>
      <trkpt lat="43.63336" lon="1.38592">
        <ele>146</ele>
        <time>2025-04-09T11:13:29Z</time>
      </trkpt>
      <trkpt lat="43.63336" lon="1.38589">
        <ele>146</ele>
        <time>2025-04-09T11:13:30Z</time>
      </trkpt>
      <trkpt lat="43.63335" lon="1.38587">
        <ele>146</ele>
        <time>2025-04-09T11:13:31Z</time>
      </trkpt>
      <trkpt lat="43.63334" lon="1.38585">
        <ele>146</ele>
        <time>2025-04-09T11:13:32Z</time>
      </trkpt>
      <trkpt lat="43.63331" lon="1.38576">
        <ele>146</ele>
        <time>2025-04-09T11:13:33Z</time>
      </trkpt>
      <trkpt lat="43.6333" lon="1.38572">
        <ele>146</ele>
        <time>2025-04-09T11:13:34Z</time>
      </trkpt>
      <trkpt lat="43.63329" lon="1.38569">
        <ele>146</ele>
        <time>2025-04-09T11:13:35Z</time>
      </trkpt>
      <trkpt lat="43.63328" lon="1.38566">
        <ele>146</ele>
        <time>2025-04-09T11:13:36Z</time>
      </trkpt>
      <trkpt lat="43.63326" lon="1.38561">
        <ele>146</ele>
        <time>2025-04-09T11:13:37Z</time>
      </trkpt>
      <trkpt lat="43.63324" lon="1.38556">
        <ele>146</ele>
        <time>2025-04-09T11:13:38Z</time>
      </trkpt>
      <trkpt lat="43.6332" lon="1.38545">
        <ele>146</ele>
        <time>2025-04-09T11:13:39Z</time>
      </trkpt>
      <trkpt lat="43.6332" lon="1.38545">
        <ele>146</ele>
        <time>2025-04-09T11:13:40Z</time>
      </trkpt>
      <trkpt lat="43.63318" lon="1.3854">
        <ele>146</ele>
        <time>2025-04-09T11:13:41Z</time>
      </trkpt>
      <trkpt lat="43.63316" lon="1.38532">
        <ele>146</ele>
        <time>2025-04-09T11:13:42Z</time>
      </trkpt>
      <trkpt lat="43.63316" lon="1.38532">
        <ele>146</ele>
        <time>2025-04-09T11:13:43Z</time>
      </trkpt>
      <trkpt lat="43.63315" lon="1.38528">
        <ele>146</ele>
        <time>2025-04-09T11:13:44Z</time>
      </trkpt>
      <trkpt lat="43.63314" lon="1.38525">
        <ele>146</ele>
        <time>2025-04-09T11:13:45Z</time>
      </trkpt>
      <trkpt lat="43.63313" lon="1.38522">
        <ele>146</ele>
        <time>2025-04-09T11:13:46Z</time>
      </trkpt>
      <trkpt lat="43.63312" lon="1.38519">
        <ele>146</ele>
        <time>2025-04-09T11:13:47Z</time>
      </trkpt>
      <trkpt lat="43.63311" lon="1.38515">
        <ele>146</ele>
        <time>2025-04-09T11:13:48Z</time>
      </trkpt>
      <trkpt lat="43.6331" lon="1.3851">
        <ele>146</ele>
        <time>2025-04-09T11:13:49Z</time>
      </trkpt>
      <trkpt lat="43.63309" lon="1.38506">
        <ele>146</ele>
        <time>2025-04-09T11:13:50Z</time>
      </trkpt>
      <trkpt lat="43.63307" lon="1.38497">
        <ele>146</ele>
        <time>2025-04-09T11:13:51Z</time>
      </trkpt>
      <trkpt lat="43.63305" lon="1.38493">
        <ele>146</ele>
        <time>2025-04-09T11:13:52Z</time>
      </trkpt>
      <trkpt lat="43.63304" lon="1.38488">
        <ele>146</ele>
        <time>2025-04-09T11:13:53Z</time>
      </trkpt>
      <trkpt lat="43.63303" lon="1.38484">
        <ele>146</ele>
        <time>2025-04-09T11:13:54Z</time>
      </trkpt>
      <trkpt lat="43.63301" lon="1.38482">
        <ele>146</ele>
        <time>2025-04-09T11:13:55Z</time>
      </trkpt>
      <trkpt lat="43.63298" lon="1.3848">
        <ele>147</ele>
        <time>2025-04-09T11:13:56Z</time>
      </trkpt>
      <trkpt lat="43.63297" lon="1.3848">
        <ele>147</ele>
        <time>2025-04-09T11:13:57Z</time>
      </trkpt>
      <trkpt lat="43.63295" lon="1.38481">
        <ele>147</ele>
        <time>2025-04-09T11:13:58Z</time>
      </trkpt>
      <trkpt lat="43.63294" lon="1.38482">
        <ele>147</ele>
        <time>2025-04-09T11:13:59Z</time>
      </trkpt>
      <trkpt lat="43.63293" lon="1.38482">
        <ele>146</ele>
        <time>2025-04-09T11:14:00Z</time>
      </trkpt>
      <trkpt lat="43.63283" lon="1.38488">
        <ele>146</ele>
        <time>2025-04-09T11:14:01Z</time>
      </trkpt>
      <trkpt lat="43.63279" lon="1.3849">
        <ele>146</ele>
        <time>2025-04-09T11:14:02Z</time>
      </trkpt>
      <trkpt lat="43.63275" lon="1.38493">
        <ele>146</ele>
        <time>2025-04-09T11:14:03Z</time>
      </trkpt>
      <trkpt lat="43.63271" lon="1.38496">
        <ele>146</ele>
        <time>2025-04-09T11:14:04Z</time>
      </trkpt>
      <trkpt lat="43.63267" lon="1.38498">
        <ele>146</ele>
        <time>2025-04-09T11:14:06Z</time>
      </trkpt>
      <trkpt lat="43.63261" lon="1.38501">
        <ele>146</ele>
        <time>2025-04-09T11:14:07Z</time>
      </trkpt>
      <trkpt lat="43.63261" lon="1.38501">
        <ele>146</ele>
        <time>2025-04-09T11:14:08Z</time>
      </trkpt>
      <trkpt lat="43.63258" lon="1.38503">
        <ele>146</ele>
        <time>2025-04-09T11:14:09Z</time>
      </trkpt>
      <trkpt lat="43.63255" lon="1.38506">
        <ele>146</ele>
        <time>2025-04-09T11:14:10Z</time>
      </trkpt>
      <trkpt lat="43.63253" lon="1.38509">
        <ele>147</ele>
        <time>2025-04-09T11:14:11Z</time>
      </trkpt>
      <trkpt lat="43.63253" lon="1.38516">
        <ele>147</ele>
        <time>2025-04-09T11:14:12Z</time>
      </trkpt>
      <trkpt lat="43.63253" lon="1.38516">
        <ele>147</ele>
        <time>2025-04-09T11:14:13Z</time>
      </trkpt>
      <trkpt lat="43.63255" lon="1.38526">
        <ele>147</ele>
        <time>2025-04-09T11:14:14Z</time>
      </trkpt>
      <trkpt lat="43.63255" lon="1.38526">
        <ele>148</ele>
        <time>2025-04-09T11:14:15Z</time>
      </trkpt>
      <trkpt lat="43.63256" lon="1.3853">
        <ele>148</ele>
        <time>2025-04-09T11:14:16Z</time>
      </trkpt>
      <trkpt lat="43.63258" lon="1.38535">
        <ele>147</ele>
        <time>2025-04-09T11:14:17Z</time>
      </trkpt>
      <trkpt lat="43.6326" lon="1.38539">
        <ele>147</ele>
        <time>2025-04-09T11:14:18Z</time>
      </trkpt>
      <trkpt lat="43.63261" lon="1.38543">
        <ele>147</ele>
        <time>2025-04-09T11:14:19Z</time>
      </trkpt>
      <trkpt lat="43.63264" lon="1.38547">
        <ele>147</ele>
        <time>2025-04-09T11:14:20Z</time>
      </trkpt>
      <trkpt lat="43.63267" lon="1.38556">
        <ele>147</ele>
        <time>2025-04-09T11:14:21Z</time>
      </trkpt>
      <trkpt lat="43.63269" lon="1.38561">
        <ele>148</ele>
        <time>2025-04-09T11:14:22Z</time>
      </trkpt>
      <trkpt lat="43.63269" lon="1.38561">
        <ele>148</ele>
        <time>2025-04-09T11:14:23Z</time>
      </trkpt>
      <trkpt lat="43.63271" lon="1.38567">
        <ele>148</ele>
        <time>2025-04-09T11:14:24Z</time>
      </trkpt>
      <trkpt lat="43.63271" lon="1.38569">
        <ele>148</ele>
        <time>2025-04-09T11:14:25Z</time>
      </trkpt>
      <trkpt lat="43.63274" lon="1.38578">
        <ele>148</ele>
        <time>2025-04-09T11:14:26Z</time>
      </trkpt>
      <trkpt lat="43.63274" lon="1.38578">
        <ele>147</ele>
        <time>2025-04-09T11:14:27Z</time>
      </trkpt>
      <trkpt lat="43.63275" lon="1.38582">
        <ele>147</ele>
        <time>2025-04-09T11:14:28Z</time>
      </trkpt>
      <trkpt lat="43.63278" lon="1.3859">
        <ele>147</ele>
        <time>2025-04-09T11:14:29Z</time>
      </trkpt>
      <trkpt lat="43.63278" lon="1.3859">
        <ele>147</ele>
        <time>2025-04-09T11:14:30Z</time>
      </trkpt>
      <trkpt lat="43.6328" lon="1.38594">
        <ele>147</ele>
        <time>2025-04-09T11:14:31Z</time>
      </trkpt>
      <trkpt lat="43.63282" lon="1.38603">
        <ele>147</ele>
        <time>2025-04-09T11:14:32Z</time>
      </trkpt>
      <trkpt lat="43.63283" lon="1.38607">
        <ele>147</ele>
        <time>2025-04-09T11:14:33Z</time>
      </trkpt>
      <trkpt lat="43.63283" lon="1.38607">
        <ele>147</ele>
        <time>2025-04-09T11:14:34Z</time>
      </trkpt>
      <trkpt lat="43.63284" lon="1.38613">
        <ele>147</ele>
        <time>2025-04-09T11:14:35Z</time>
      </trkpt>
      <trkpt lat="43.63286" lon="1.38619">
        <ele>147</ele>
        <time>2025-04-09T11:14:36Z</time>
      </trkpt>
      <trkpt lat="43.63286" lon="1.38624">
        <ele>147</ele>
        <time>2025-04-09T11:14:37Z</time>
      </trkpt>
      <trkpt lat="43.63286" lon="1.38624">
        <ele>147</ele>
        <time>2025-04-09T11:14:38Z</time>
      </trkpt>
      <trkpt lat="43.63288" lon="1.38628">
        <ele>147</ele>
        <time>2025-04-09T11:14:39Z</time>
      </trkpt>
      <trkpt lat="43.6329" lon="1.38633">
        <ele>147</ele>
        <time>2025-04-09T11:14:40Z</time>
      </trkpt>
      <trkpt lat="43.63292" lon="1.38637">
        <ele>148</ele>
        <time>2025-04-09T11:14:41Z</time>
      </trkpt>
      <trkpt lat="43.63294" lon="1.38641">
        <ele>148</ele>
        <time>2025-04-09T11:14:42Z</time>
      </trkpt>
      <trkpt lat="43.63297" lon="1.38638">
        <ele>147</ele>
        <time>2025-04-09T11:14:44Z</time>
      </trkpt>
      <trkpt lat="43.633" lon="1.38636">
        <ele>147</ele>
        <time>2025-04-09T11:14:45Z</time>
      </trkpt>
      <trkpt lat="43.63304" lon="1.38633">
        <ele>147</ele>
        <time>2025-04-09T11:14:46Z</time>
      </trkpt>
      <trkpt lat="43.63304" lon="1.38633">
        <ele>147</ele>
        <time>2025-04-09T11:14:47Z</time>
      </trkpt>
      <trkpt lat="43.63313" lon="1.38626">
        <ele>147</ele>
        <time>2025-04-09T11:14:48Z</time>
      </trkpt>
      <trkpt lat="43.63313" lon="1.38626">
        <ele>147</ele>
        <time>2025-04-09T11:14:50Z</time>
      </trkpt>
      <trkpt lat="43.63322" lon="1.38619">
        <ele>147</ele>
        <time>2025-04-09T11:14:51Z</time>
      </trkpt>
      <trkpt lat="43.63322" lon="1.38619">
        <ele>147</ele>
        <time>2025-04-09T11:14:52Z</time>
      </trkpt>
      <trkpt lat="43.63323" lon="1.38618">
        <ele>147</ele>
        <time>2025-04-09T11:14:53Z</time>
      </trkpt>
      <trkpt lat="43.63325" lon="1.38617">
        <ele>147</ele>
        <time>2025-04-09T11:14:54Z</time>
      </trkpt>
      <trkpt lat="43.63326" lon="1.38616">
        <ele>147</ele>
        <time>2025-04-09T11:14:55Z</time>
      </trkpt>
      <trkpt lat="43.63334" lon="1.38612">
        <ele>147</ele>
        <time>2025-04-09T11:14:56Z</time>
      </trkpt>
      <trkpt lat="43.63337" lon="1.3861">
        <ele>147</ele>
        <time>2025-04-09T11:14:57Z</time>
      </trkpt>
      <trkpt lat="43.6334" lon="1.38609">
        <ele>147</ele>
        <time>2025-04-09T11:14:58Z</time>
      </trkpt>
      <trkpt lat="43.63341" lon="1.38605">
        <ele>147</ele>
        <time>2025-04-09T11:14:59Z</time>
      </trkpt>
      <trkpt lat="43.63341" lon="1.38602">
        <ele>147</ele>
        <time>2025-04-09T11:15:00Z</time>
      </trkpt>
      <trkpt lat="43.63339" lon="1.38598">
        <ele>147</ele>
        <time>2025-04-09T11:15:01Z</time>
      </trkpt>
      <trkpt lat="43.63337" lon="1.38594">
        <ele>147</ele>
        <time>2025-04-09T11:15:02Z</time>
      </trkpt>
      <trkpt lat="43.63335" lon="1.3859">
        <ele>147</ele>
        <time>2025-04-09T11:15:03Z</time>
      </trkpt>
      <trkpt lat="43.63334" lon="1.38586">
        <ele>147</ele>
        <time>2025-04-09T11:15:04Z</time>
      </trkpt>
      <trkpt lat="43.63332" lon="1.38582">
        <ele>147</ele>
        <time>2025-04-09T11:15:05Z</time>
      </trkpt>
      <trkpt lat="43.63331" lon="1.38578">
        <ele>147</ele>
        <time>2025-04-09T11:15:06Z</time>
      </trkpt>
      <trkpt lat="43.63329" lon="1.38574">
        <ele>146</ele>
        <time>2025-04-09T11:15:07Z</time>
      </trkpt>
      <trkpt lat="43.63328" lon="1.3857">
        <ele>146</ele>
        <time>2025-04-09T11:15:08Z</time>
      </trkpt>
      <trkpt lat="43.63326" lon="1.38566">
        <ele>146</ele>
        <time>2025-04-09T11:15:09Z</time>
      </trkpt>
      <trkpt lat="43.63325" lon="1.38562">
        <ele>146</ele>
        <time>2025-04-09T11:15:10Z</time>
      </trkpt>
      <trkpt lat="43.63324" lon="1.38558">
        <ele>146</ele>
        <time>2025-04-09T11:15:11Z</time>
      </trkpt>
      <trkpt lat="43.63323" lon="1.38554">
        <ele>146</ele>
        <time>2025-04-09T11:15:12Z</time>
      </trkpt>
      <trkpt lat="43.63321" lon="1.3855">
        <ele>146</ele>
        <time>2025-04-09T11:15:13Z</time>
      </trkpt>
      <trkpt lat="43.63318" lon="1.3854">
        <ele>146</ele>
        <time>2025-04-09T11:15:14Z</time>
      </trkpt>
      <trkpt lat="43.63318" lon="1.38538">
        <ele>146</ele>
        <time>2025-04-09T11:15:15Z</time>
      </trkpt>
      <trkpt lat="43.63318" lon="1.38538">
        <ele>146</ele>
        <time>2025-04-09T11:15:16Z</time>
      </trkpt>
      <trkpt lat="43.63316" lon="1.38533">
        <ele>146</ele>
        <time>2025-04-09T11:15:17Z</time>
      </trkpt>
      <trkpt lat="43.63315" lon="1.38529">
        <ele>146</ele>
        <time>2025-04-09T11:15:18Z</time>
      </trkpt>
      <trkpt lat="43.63314" lon="1.38525">
        <ele>146</ele>
        <time>2025-04-09T11:15:19Z</time>
      </trkpt>
      <trkpt lat="43.63313" lon="1.3852">
        <ele>146</ele>
        <time>2025-04-09T11:15:20Z</time>
      </trkpt>
      <trkpt lat="43.63311" lon="1.38512">
        <ele>146</ele>
        <time>2025-04-09T11:15:22Z</time>
      </trkpt>
      <trkpt lat="43.6331" lon="1.38507">
        <ele>146</ele>
        <time>2025-04-09T11:15:23Z</time>
      </trkpt>
      <trkpt lat="43.63309" lon="1.38503">
        <ele>146</ele>
        <time>2025-04-09T11:15:24Z</time>
      </trkpt>
      <trkpt lat="43.63308" lon="1.38499">
        <ele>146</ele>
        <time>2025-04-09T11:15:25Z</time>
      </trkpt>
      <trkpt lat="43.63307" lon="1.38494">
        <ele>146</ele>
        <time>2025-04-09T11:15:26Z</time>
      </trkpt>
      <trkpt lat="43.63306" lon="1.3849">
        <ele>146</ele>
        <time>2025-04-09T11:15:27Z</time>
      </trkpt>
      <trkpt lat="43.63304" lon="1.38487">
        <ele>146</ele>
        <time>2025-04-09T11:15:28Z</time>
      </trkpt>
      <trkpt lat="43.63302" lon="1.38484">
        <ele>147</ele>
        <time>2025-04-09T11:15:29Z</time>
      </trkpt>
      <trkpt lat="43.633" lon="1.38481">
        <ele>147</ele>
        <time>2025-04-09T11:15:30Z</time>
      </trkpt>
      <trkpt lat="43.63297" lon="1.3848">
        <ele>147</ele>
        <time>2025-04-09T11:15:31Z</time>
      </trkpt>
      <trkpt lat="43.63297" lon="1.3848">
        <ele>147</ele>
        <time>2025-04-09T11:15:32Z</time>
      </trkpt>
      <trkpt lat="43.63289" lon="1.38486">
        <ele>147</ele>
        <time>2025-04-09T11:15:33Z</time>
      </trkpt>
      <trkpt lat="43.63289" lon="1.38486">
        <ele>147</ele>
        <time>2025-04-09T11:15:35Z</time>
      </trkpt>
      <trkpt lat="43.63287" lon="1.38488">
        <ele>147</ele>
        <time>2025-04-09T11:15:36Z</time>
      </trkpt>
      <trkpt lat="43.63284" lon="1.38489">
        <ele>147</ele>
        <time>2025-04-09T11:15:37Z</time>
      </trkpt>
      <trkpt lat="43.63277" lon="1.38495">
        <ele>147</ele>
        <time>2025-04-09T11:15:38Z</time>
      </trkpt>
      <trkpt lat="43.63273" lon="1.38497">
        <ele>147</ele>
        <time>2025-04-09T11:15:39Z</time>
      </trkpt>
      <trkpt lat="43.6327" lon="1.38499">
        <ele>147</ele>
        <time>2025-04-09T11:15:41Z</time>
      </trkpt>
      <trkpt lat="43.63267" lon="1.385">
        <ele>147</ele>
        <time>2025-04-09T11:15:42Z</time>
      </trkpt>
      <trkpt lat="43.63261" lon="1.38503">
        <ele>147</ele>
        <time>2025-04-09T11:15:43Z</time>
      </trkpt>
      <trkpt lat="43.63258" lon="1.38505">
        <ele>147</ele>
        <time>2025-04-09T11:15:44Z</time>
      </trkpt>
      <trkpt lat="43.63253" lon="1.3851">
        <ele>147</ele>
        <time>2025-04-09T11:15:45Z</time>
      </trkpt>
      <trkpt lat="43.63253" lon="1.3851">
        <ele>147</ele>
        <time>2025-04-09T11:15:46Z</time>
      </trkpt>
      <trkpt lat="43.63253" lon="1.38513">
        <ele>147</ele>
        <time>2025-04-09T11:15:47Z</time>
      </trkpt>
      <trkpt lat="43.63253" lon="1.38513">
        <ele>148</ele>
        <time>2025-04-09T11:15:48Z</time>
      </trkpt>
      <trkpt lat="43.63257" lon="1.38526">
        <ele>148</ele>
        <time>2025-04-09T11:15:49Z</time>
      </trkpt>
      <trkpt lat="43.63257" lon="1.38526">
        <ele>147</ele>
        <time>2025-04-09T11:15:51Z</time>
      </trkpt>
      <trkpt lat="43.63258" lon="1.3853">
        <ele>147</ele>
        <time>2025-04-09T11:15:52Z</time>
      </trkpt>
      <trkpt lat="43.6326" lon="1.38533">
        <ele>147</ele>
        <time>2025-04-09T11:15:53Z</time>
      </trkpt>
      <trkpt lat="43.63263" lon="1.38544">
        <ele>147</ele>
        <time>2025-04-09T11:15:54Z</time>
      </trkpt>
      <trkpt lat="43.63265" lon="1.38548">
        <ele>147</ele>
        <time>2025-04-09T11:15:55Z</time>
      </trkpt>
      <trkpt lat="43.63266" lon="1.38552">
        <ele>147</ele>
        <time>2025-04-09T11:15:56Z</time>
      </trkpt>
      <trkpt lat="43.63269" lon="1.3856">
        <ele>147</ele>
        <time>2025-04-09T11:15:57Z</time>
      </trkpt>
      <trkpt lat="43.63271" lon="1.38564">
        <ele>147</ele>
        <time>2025-04-09T11:15:58Z</time>
      </trkpt>
      <trkpt lat="43.63272" lon="1.38568">
        <ele>147</ele>
        <time>2025-04-09T11:16:00Z</time>
      </trkpt>
      <trkpt lat="43.63274" lon="1.38577">
        <ele>147</ele>
        <time>2025-04-09T11:16:01Z</time>
      </trkpt>
      <trkpt lat="43.63274" lon="1.38577">
        <ele>148</ele>
        <time>2025-04-09T11:16:02Z</time>
      </trkpt>
      <trkpt lat="43.63276" lon="1.38586">
        <ele>148</ele>
        <time>2025-04-09T11:16:03Z</time>
      </trkpt>
      <trkpt lat="43.63278" lon="1.3859">
        <ele>148</ele>
        <time>2025-04-09T11:16:05Z</time>
      </trkpt>
      <trkpt lat="43.63279" lon="1.38594">
        <ele>148</ele>
        <time>2025-04-09T11:16:06Z</time>
      </trkpt>
      <trkpt lat="43.63281" lon="1.38598">
        <ele>148</ele>
        <time>2025-04-09T11:16:07Z</time>
      </trkpt>
      <trkpt lat="43.63282" lon="1.38601">
        <ele>148</ele>
        <time>2025-04-09T11:16:08Z</time>
      </trkpt>
      <trkpt lat="43.63282" lon="1.38605">
        <ele>148</ele>
        <time>2025-04-09T11:16:09Z</time>
      </trkpt>
      <trkpt lat="43.63283" lon="1.38609">
        <ele>148</ele>
        <time>2025-04-09T11:16:10Z</time>
      </trkpt>
      <trkpt lat="43.63286" lon="1.3862">
        <ele>148</ele>
        <time>2025-04-09T11:16:11Z</time>
      </trkpt>
      <trkpt lat="43.63287" lon="1.38623">
        <ele>148</ele>
        <time>2025-04-09T11:16:12Z</time>
      </trkpt>
      <trkpt lat="43.63287" lon="1.38623">
        <ele>148</ele>
        <time>2025-04-09T11:16:13Z</time>
      </trkpt>
      <trkpt lat="43.63288" lon="1.38627">
        <ele>148</ele>
        <time>2025-04-09T11:16:14Z</time>
      </trkpt>
      <trkpt lat="43.63289" lon="1.38631">
        <ele>148</ele>
        <time>2025-04-09T11:16:15Z</time>
      </trkpt>
      <trkpt lat="43.63289" lon="1.38635">
        <ele>148</ele>
        <time>2025-04-09T11:16:16Z</time>
      </trkpt>
      <trkpt lat="43.63293" lon="1.38635">
        <ele>147</ele>
        <time>2025-04-09T11:16:17Z</time>
      </trkpt>
      <trkpt lat="43.63296" lon="1.38634">
        <ele>147</ele>
        <time>2025-04-09T11:16:19Z</time>
      </trkpt>
      <trkpt lat="43.63299" lon="1.38633">
        <ele>147</ele>
        <time>2025-04-09T11:16:20Z</time>
      </trkpt>
      <trkpt lat="43.63303" lon="1.38632">
        <ele>147</ele>
        <time>2025-04-09T11:16:21Z</time>
      </trkpt>
      <trkpt lat="43.63306" lon="1.38631">
        <ele>148</ele>
        <time>2025-04-09T11:16:22Z</time>
      </trkpt>
      <trkpt lat="43.63311" lon="1.38626">
        <ele>148</ele>
        <time>2025-04-09T11:16:23Z</time>
      </trkpt>
      <trkpt lat="43.63314" lon="1.38624">
        <ele>148</ele>
        <time>2025-04-09T11:16:24Z</time>
      </trkpt>
      <trkpt lat="43.63314" lon="1.38624">
        <ele>148</ele>
        <time>2025-04-09T11:16:25Z</time>
      </trkpt>
      <trkpt lat="43.63317" lon="1.38622">
        <ele>148</ele>
        <time>2025-04-09T11:16:26Z</time>
      </trkpt>
      <trkpt lat="43.63321" lon="1.38619">
        <ele>148</ele>
        <time>2025-04-09T11:16:27Z</time>
      </trkpt>
      <trkpt lat="43.63325" lon="1.38617">
        <ele>148</ele>
        <time>2025-04-09T11:16:28Z</time>
      </trkpt>
      <trkpt lat="43.63329" lon="1.38614">
        <ele>148</ele>
        <time>2025-04-09T11:16:29Z</time>
      </trkpt>
      <trkpt lat="43.63329" lon="1.38614">
        <ele>148</ele>
        <time>2025-04-09T11:16:30Z</time>
      </trkpt>
      <trkpt lat="43.63333" lon="1.38612">
        <ele>148</ele>
        <time>2025-04-09T11:16:31Z</time>
      </trkpt>
      <trkpt lat="43.63336" lon="1.3861">
        <ele>148</ele>
        <time>2025-04-09T11:16:32Z</time>
      </trkpt>
      <trkpt lat="43.63336" lon="1.38606">
        <ele>148</ele>
        <time>2025-04-09T11:16:33Z</time>
      </trkpt>
      <trkpt lat="43.63335" lon="1.38603">
        <ele>148</ele>
        <time>2025-04-09T11:16:34Z</time>
      </trkpt>
      <trkpt lat="43.63335" lon="1.38599">
        <ele>148</ele>
        <time>2025-04-09T11:16:35Z</time>
      </trkpt>
      <trkpt lat="43.63335" lon="1.38596">
        <ele>147</ele>
        <time>2025-04-09T11:16:36Z</time>
      </trkpt>
      <trkpt lat="43.63335" lon="1.38592">
        <ele>147</ele>
        <time>2025-04-09T11:16:37Z</time>
      </trkpt>
      <trkpt lat="43.63335" lon="1.38589">
        <ele>147</ele>
        <time>2025-04-09T11:16:38Z</time>
      </trkpt>
      <trkpt lat="43.63332" lon="1.38583">
        <ele>147</ele>
        <time>2025-04-09T11:16:39Z</time>
      </trkpt>
      <trkpt lat="43.63332" lon="1.38583">
        <ele>147</ele>
        <time>2025-04-09T11:16:40Z</time>
      </trkpt>
      <trkpt lat="43.63331" lon="1.38579">
        <ele>146</ele>
        <time>2025-04-09T11:16:41Z</time>
      </trkpt>
      <trkpt lat="43.63329" lon="1.38575">
        <ele>146</ele>
        <time>2025-04-09T11:16:42Z</time>
      </trkpt>
      <trkpt lat="43.63328" lon="1.38571">
        <ele>147</ele>
        <time>2025-04-09T11:16:43Z</time>
      </trkpt>
      <trkpt lat="43.63327" lon="1.38566">
        <ele>147</ele>
        <time>2025-04-09T11:16:44Z</time>
      </trkpt>
      <trkpt lat="43.63326" lon="1.38562">
        <ele>147</ele>
        <time>2025-04-09T11:16:45Z</time>
      </trkpt>
      <trkpt lat="43.63325" lon="1.38557">
        <ele>147</ele>
        <time>2025-04-09T11:16:46Z</time>
      </trkpt>
      <trkpt lat="43.63323" lon="1.38553">
        <ele>147</ele>
        <time>2025-04-09T11:16:47Z</time>
      </trkpt>
      <trkpt lat="43.63322" lon="1.38549">
        <ele>147</ele>
        <time>2025-04-09T11:16:48Z</time>
      </trkpt>
      <trkpt lat="43.63321" lon="1.38545">
        <ele>147</ele>
        <time>2025-04-09T11:16:49Z</time>
      </trkpt>
      <trkpt lat="43.63319" lon="1.38541">
        <ele>147</ele>
        <time>2025-04-09T11:16:50Z</time>
      </trkpt>
      <trkpt lat="43.63318" lon="1.38537">
        <ele>147</ele>
        <time>2025-04-09T11:16:51Z</time>
      </trkpt>
      <trkpt lat="43.63317" lon="1.38532">
        <ele>147</ele>
        <time>2025-04-09T11:16:52Z</time>
      </trkpt>
      <trkpt lat="43.63316" lon="1.38527">
        <ele>146</ele>
        <time>2025-04-09T11:16:53Z</time>
      </trkpt>
      <trkpt lat="43.63314" lon="1.38523">
        <ele>146</ele>
        <time>2025-04-09T11:16:54Z</time>
      </trkpt>
      <trkpt lat="43.63313" lon="1.38518">
        <ele>147</ele>
        <time>2025-04-09T11:16:55Z</time>
      </trkpt>
      <trkpt lat="43.63311" lon="1.3851">
        <ele>147</ele>
        <time>2025-04-09T11:16:57Z</time>
      </trkpt>
      <trkpt lat="43.6331" lon="1.38506">
        <ele>147</ele>
        <time>2025-04-09T11:16:58Z</time>
      </trkpt>
      <trkpt lat="43.63308" lon="1.38502">
        <ele>147</ele>
        <time>2025-04-09T11:16:59Z</time>
      </trkpt>
      <trkpt lat="43.63307" lon="1.38498">
        <ele>146</ele>
        <time>2025-04-09T11:17:00Z</time>
      </trkpt>
      <trkpt lat="43.63306" lon="1.38493">
        <ele>146</ele>
        <time>2025-04-09T11:17:01Z</time>
      </trkpt>
      <trkpt lat="43.63305" lon="1.38489">
        <ele>146</ele>
        <time>2025-04-09T11:17:02Z</time>
      </trkpt>
      <trkpt lat="43.63304" lon="1.38485">
        <ele>147</ele>
        <time>2025-04-09T11:17:03Z</time>
      </trkpt>
      <trkpt lat="43.63299" lon="1.38481">
        <ele>147</ele>
        <time>2025-04-09T11:17:04Z</time>
      </trkpt>
      <trkpt lat="43.63299" lon="1.38481">
        <ele>147</ele>
        <time>2025-04-09T11:17:05Z</time>
      </trkpt>
      <trkpt lat="43.63296" lon="1.38483">
        <ele>147</ele>
        <time>2025-04-09T11:17:06Z</time>
      </trkpt>
      <trkpt lat="43.63293" lon="1.38485">
        <ele>147</ele>
        <time>2025-04-09T11:17:07Z</time>
      </trkpt>
      <trkpt lat="43.6329" lon="1.38486">
        <ele>147</ele>
        <time>2025-04-09T11:17:08Z</time>
      </trkpt>
      <trkpt lat="43.63287" lon="1.38488">
        <ele>147</ele>
        <time>2025-04-09T11:17:09Z</time>
      </trkpt>
      <trkpt lat="43.63284" lon="1.3849">
        <ele>147</ele>
        <time>2025-04-09T11:17:10Z</time>
      </trkpt>
      <trkpt lat="43.63281" lon="1.38492">
        <ele>147</ele>
        <time>2025-04-09T11:17:11Z</time>
      </trkpt>
      <trkpt lat="43.63278" lon="1.38494">
        <ele>147</ele>
        <time>2025-04-09T11:17:12Z</time>
      </trkpt>
      <trkpt lat="43.63274" lon="1.38496">
        <ele>148</ele>
        <time>2025-04-09T11:17:13Z</time>
      </trkpt>
      <trkpt lat="43.63271" lon="1.38497">
        <ele>148</ele>
        <time>2025-04-09T11:17:14Z</time>
      </trkpt>
      <trkpt lat="43.63266" lon="1.385">
        <ele>148</ele>
        <time>2025-04-09T11:17:15Z</time>
      </trkpt>
      <trkpt lat="43.63265" lon="1.38501">
        <ele>148</ele>
        <time>2025-04-09T11:17:16Z</time>
      </trkpt>
      <trkpt lat="43.63262" lon="1.38503">
        <ele>148</ele>
        <time>2025-04-09T11:17:17Z</time>
      </trkpt>
      <trkpt lat="43.63258" lon="1.38505">
        <ele>148</ele>
        <time>2025-04-09T11:17:18Z</time>
      </trkpt>
      <trkpt lat="43.63255" lon="1.38507">
        <ele>148</ele>
        <time>2025-04-09T11:17:19Z</time>
      </trkpt>
      <trkpt lat="43.63253" lon="1.3851">
        <ele>148</ele>
        <time>2025-04-09T11:17:20Z</time>
      </trkpt>
      <trkpt lat="43.63253" lon="1.3851">
        <ele>148</ele>
        <time>2025-04-09T11:17:21Z</time>
      </trkpt>
      <trkpt lat="43.63253" lon="1.3851">
        <ele>148</ele>
        <time>2025-04-09T11:17:22Z</time>
      </trkpt>
      <trkpt lat="43.63254" lon="1.38508">
        <ele>148</ele>
        <time>2025-04-09T11:17:23Z</time>
      </trkpt>
      <trkpt lat="43.63254" lon="1.38508">
        <ele>147</ele>
        <time>2025-04-09T11:17:24Z</time>
      </trkpt>
      <trkpt lat="43.63257" lon="1.38506">
        <ele>147</ele>
        <time>2025-04-09T11:17:25Z</time>
      </trkpt>
      <trkpt lat="43.63257" lon="1.38506">
        <ele>148</ele>
        <time>2025-04-09T11:17:27Z</time>
      </trkpt>
      <trkpt lat="43.63259" lon="1.38504">
        <ele>148</ele>
        <time>2025-04-09T11:17:28Z</time>
      </trkpt>
      <trkpt lat="43.6326" lon="1.38503">
        <ele>148</ele>
        <time>2025-04-09T11:17:29Z</time>
      </trkpt>
      <trkpt lat="43.63341" lon="1.3861">
        <ele>148</ele>
        <time>2025-04-09T11:20:24Z</time>
      </trkpt>
      <trkpt lat="43.6334" lon="1.38607">
        <ele>148</ele>
        <time>2025-04-09T11:20:25Z</time>
      </trkpt>
      <trkpt lat="43.6334" lon="1.38607">
        <ele>149</ele>
        <time>2025-04-09T11:20:26Z</time>
      </trkpt>
      <trkpt lat="43.63339" lon="1.38603">
        <ele>149</ele>
        <time>2025-04-09T11:20:27Z</time>
      </trkpt>
      <trkpt lat="43.63336" lon="1.38593">
        <ele>148</ele>
        <time>2025-04-09T11:20:28Z</time>
      </trkpt>
      <trkpt lat="43.63335" lon="1.38588">
        <ele>148</ele>
        <time>2025-04-09T11:20:29Z</time>
      </trkpt>
      <trkpt lat="43.63335" lon="1.38588">
        <ele>148</ele>
        <time>2025-04-09T11:20:30Z</time>
      </trkpt>
      <trkpt lat="43.63332" lon="1.38579">
        <ele>148</ele>
        <time>2025-04-09T11:20:31Z</time>
      </trkpt>
      <trkpt lat="43.6333" lon="1.38574">
        <ele>148</ele>
        <time>2025-04-09T11:20:32Z</time>
      </trkpt>
      <trkpt lat="43.63329" lon="1.3857">
        <ele>148</ele>
        <time>2025-04-09T11:20:33Z</time>
      </trkpt>
      <trkpt lat="43.63327" lon="1.38565">
        <ele>148</ele>
        <time>2025-04-09T11:20:34Z</time>
      </trkpt>
      <trkpt lat="43.63325" lon="1.3856">
        <ele>148</ele>
        <time>2025-04-09T11:20:35Z</time>
      </trkpt>
      <trkpt lat="43.63324" lon="1.38555">
        <ele>148</ele>
        <time>2025-04-09T11:20:36Z</time>
      </trkpt>
      <trkpt lat="43.63324" lon="1.38555">
        <ele>148</ele>
        <time>2025-04-09T11:20:37Z</time>
      </trkpt>
      <trkpt lat="43.63321" lon="1.38546">
        <ele>148</ele>
        <time>2025-04-09T11:20:38Z</time>
      </trkpt>
      <trkpt lat="43.6332" lon="1.38541">
        <ele>147</ele>
        <time>2025-04-09T11:20:39Z</time>
      </trkpt>
      <trkpt lat="43.63319" lon="1.38537">
        <ele>147</ele>
        <time>2025-04-09T11:20:40Z</time>
      </trkpt>
      <trkpt lat="43.63318" lon="1.38532">
        <ele>148</ele>
        <time>2025-04-09T11:20:41Z</time>
      </trkpt>
      <trkpt lat="43.63317" lon="1.38528">
        <ele>148</ele>
        <time>2025-04-09T11:20:43Z</time>
      </trkpt>
      <trkpt lat="43.63314" lon="1.3852">
        <ele>148</ele>
        <time>2025-04-09T11:20:44Z</time>
      </trkpt>
      <trkpt lat="43.63314" lon="1.3852">
        <ele>148</ele>
        <time>2025-04-09T11:20:45Z</time>
      </trkpt>
      <trkpt lat="43.63311" lon="1.38512">
        <ele>148</ele>
        <time>2025-04-09T11:20:46Z</time>
      </trkpt>
      <trkpt lat="43.63311" lon="1.38512">
        <ele>148</ele>
        <time>2025-04-09T11:20:47Z</time>
      </trkpt>
      <trkpt lat="43.6331" lon="1.38507">
        <ele>148</ele>
        <time>2025-04-09T11:20:48Z</time>
      </trkpt>
      <trkpt lat="43.63308" lon="1.38503">
        <ele>148</ele>
        <time>2025-04-09T11:20:49Z</time>
      </trkpt>
      <trkpt lat="43.63306" lon="1.38494">
        <ele>148</ele>
        <time>2025-04-09T11:20:50Z</time>
      </trkpt>
      <trkpt lat="43.63305" lon="1.38489">
        <ele>148</ele>
        <time>2025-04-09T11:20:51Z</time>
      </trkpt>
      <trkpt lat="43.63304" lon="1.38485">
        <ele>148</ele>
        <time>2025-04-09T11:20:52Z</time>
      </trkpt>
      <trkpt lat="43.633" lon="1.38479">
        <ele>148</ele>
        <time>2025-04-09T11:20:54Z</time>
      </trkpt>
      <trkpt lat="43.633" lon="1.38479">
        <ele>148</ele>
        <time>2025-04-09T11:20:55Z</time>
      </trkpt>
      <trkpt lat="43.63297" lon="1.38481">
        <ele>148</ele>
        <time>2025-04-09T11:20:56Z</time>
      </trkpt>
      <trkpt lat="43.63294" lon="1.38482">
        <ele>148</ele>
        <time>2025-04-09T11:20:57Z</time>
      </trkpt>
      <trkpt lat="43.63291" lon="1.38484">
        <ele>148</ele>
        <time>2025-04-09T11:20:58Z</time>
      </trkpt>
      <trkpt lat="43.63288" lon="1.38486">
        <ele>148</ele>
        <time>2025-04-09T11:20:59Z</time>
      </trkpt>
      <trkpt lat="43.63285" lon="1.38488">
        <ele>148</ele>
        <time>2025-04-09T11:21:00Z</time>
      </trkpt>
      <trkpt lat="43.63282" lon="1.3849">
        <ele>148</ele>
        <time>2025-04-09T11:21:01Z</time>
      </trkpt>
      <trkpt lat="43.63279" lon="1.38493">
        <ele>148</ele>
        <time>2025-04-09T11:21:02Z</time>
      </trkpt>
      <trkpt lat="43.63276" lon="1.38495">
        <ele>148</ele>
        <time>2025-04-09T11:21:03Z</time>
      </trkpt>
      <trkpt lat="43.63272" lon="1.38497">
        <ele>148</ele>
        <time>2025-04-09T11:21:04Z</time>
      </trkpt>
      <trkpt lat="43.63266" lon="1.38501">
        <ele>148</ele>
        <time>2025-04-09T11:21:05Z</time>
      </trkpt>
      <trkpt lat="43.63263" lon="1.38503">
        <ele>148</ele>
        <time>2025-04-09T11:21:06Z</time>
      </trkpt>
      <trkpt lat="43.6326" lon="1.38505">
        <ele>148</ele>
        <time>2025-04-09T11:21:08Z</time>
      </trkpt>
      <trkpt lat="43.63257" lon="1.38507">
        <ele>148</ele>
        <time>2025-04-09T11:21:09Z</time>
      </trkpt>
      <trkpt lat="43.63254" lon="1.3851">
        <ele>147</ele>
        <time>2025-04-09T11:21:10Z</time>
      </trkpt>
      <trkpt lat="43.63252" lon="1.38517">
        <ele>148</ele>
        <time>2025-04-09T11:21:11Z</time>
      </trkpt>
      <trkpt lat="43.63253" lon="1.38521">
        <ele>148</ele>
        <time>2025-04-09T11:21:12Z</time>
      </trkpt>
      <trkpt lat="43.63253" lon="1.38521">
        <ele>148</ele>
        <time>2025-04-09T11:21:13Z</time>
      </trkpt>
      <trkpt lat="43.63254" lon="1.38525">
        <ele>148</ele>
        <time>2025-04-09T11:21:14Z</time>
      </trkpt>
      <trkpt lat="43.63255" lon="1.38529">
        <ele>148</ele>
        <time>2025-04-09T11:21:15Z</time>
      </trkpt>
      <trkpt lat="43.63256" lon="1.38533">
        <ele>148</ele>
        <time>2025-04-09T11:21:16Z</time>
      </trkpt>
      <trkpt lat="43.63258" lon="1.38538">
        <ele>148</ele>
        <time>2025-04-09T11:21:17Z</time>
      </trkpt>
      <trkpt lat="43.6326" lon="1.38542">
        <ele>148</ele>
        <time>2025-04-09T11:21:18Z</time>
      </trkpt>
      <trkpt lat="43.63262" lon="1.38547">
        <ele>148</ele>
        <time>2025-04-09T11:21:19Z</time>
      </trkpt>
      <trkpt lat="43.63264" lon="1.38554">
        <ele>149</ele>
        <time>2025-04-09T11:21:21Z</time>
      </trkpt>
      <trkpt lat="43.63267" lon="1.38561">
        <ele>149</ele>
        <time>2025-04-09T11:21:22Z</time>
      </trkpt>
      <trkpt lat="43.6327" lon="1.38568">
        <ele>148</ele>
        <time>2025-04-09T11:21:23Z</time>
      </trkpt>
      <trkpt lat="43.63272" lon="1.38574">
        <ele>148</ele>
        <time>2025-04-09T11:21:24Z</time>
      </trkpt>
      <trkpt lat="43.63272" lon="1.38574">
        <ele>148</ele>
        <time>2025-04-09T11:21:25Z</time>
      </trkpt>
      <trkpt lat="43.63274" lon="1.38578">
        <ele>149</ele>
        <time>2025-04-09T11:21:26Z</time>
      </trkpt>
      <trkpt lat="43.63275" lon="1.38582">
        <ele>149</ele>
        <time>2025-04-09T11:21:27Z</time>
      </trkpt>
      <trkpt lat="43.63276" lon="1.38586">
        <ele>149</ele>
        <time>2025-04-09T11:21:28Z</time>
      </trkpt>
      <trkpt lat="43.63278" lon="1.38591">
        <ele>149</ele>
        <time>2025-04-09T11:21:29Z</time>
      </trkpt>
      <trkpt lat="43.6328" lon="1.38595">
        <ele>149</ele>
        <time>2025-04-09T11:21:30Z</time>
      </trkpt>
      <trkpt lat="43.63281" lon="1.38599">
        <ele>149</ele>
        <time>2025-04-09T11:21:31Z</time>
      </trkpt>
      <trkpt lat="43.63282" lon="1.38604">
        <ele>149</ele>
        <time>2025-04-09T11:21:32Z</time>
      </trkpt>
      <trkpt lat="43.63283" lon="1.38609">
        <ele>148</ele>
        <time>2025-04-09T11:21:33Z</time>
      </trkpt>
      <trkpt lat="43.63284" lon="1.38613">
        <ele>148</ele>
        <time>2025-04-09T11:21:34Z</time>
      </trkpt>
      <trkpt lat="43.63285" lon="1.38617">
        <ele>148</ele>
        <time>2025-04-09T11:21:35Z</time>
      </trkpt>
      <trkpt lat="43.63285" lon="1.3862">
        <ele>148</ele>
        <time>2025-04-09T11:21:36Z</time>
      </trkpt>
      <trkpt lat="43.63286" lon="1.38623">
        <ele>148</ele>
        <time>2025-04-09T11:21:37Z</time>
      </trkpt>
      <trkpt lat="43.63287" lon="1.38627">
        <ele>148</ele>
        <time>2025-04-09T11:21:38Z</time>
      </trkpt>
      <trkpt lat="43.63287" lon="1.3863">
        <ele>148</ele>
        <time>2025-04-09T11:21:39Z</time>
      </trkpt>
      <trkpt lat="43.63289" lon="1.38635">
        <ele>148</ele>
        <time>2025-04-09T11:21:40Z</time>
      </trkpt>
      <trkpt lat="43.63291" lon="1.38639">
        <ele>148</ele>
        <time>2025-04-09T11:21:41Z</time>
      </trkpt>
      <trkpt lat="43.63294" lon="1.38638">
        <ele>148</ele>
        <time>2025-04-09T11:21:42Z</time>
      </trkpt>
      <trkpt lat="43.63298" lon="1.38636">
        <ele>149</ele>
        <time>2025-04-09T11:21:43Z</time>
      </trkpt>
      <trkpt lat="43.63301" lon="1.38635">
        <ele>149</ele>
        <time>2025-04-09T11:21:44Z</time>
      </trkpt>
      <trkpt lat="43.63305" lon="1.38632">
        <ele>149</ele>
        <time>2025-04-09T11:21:45Z</time>
      </trkpt>
      <trkpt lat="43.63309" lon="1.38629">
        <ele>149</ele>
        <time>2025-04-09T11:21:46Z</time>
      </trkpt>
      <trkpt lat="43.63313" lon="1.38626">
        <ele>149</ele>
        <time>2025-04-09T11:21:47Z</time>
      </trkpt>
      <trkpt lat="43.63314" lon="1.38625">
        <ele>148</ele>
        <time>2025-04-09T11:21:48Z</time>
      </trkpt>
      <trkpt lat="43.63317" lon="1.38623">
        <ele>148</ele>
        <time>2025-04-09T11:21:49Z</time>
      </trkpt>
      <trkpt lat="43.6332" lon="1.3862">
        <ele>148</ele>
        <time>2025-04-09T11:21:50Z</time>
      </trkpt>
      <trkpt lat="43.6332" lon="1.3862">
        <ele>148</ele>
        <time>2025-04-09T11:21:51Z</time>
      </trkpt>
      <trkpt lat="43.63329" lon="1.38614">
        <ele>148</ele>
        <time>2025-04-09T11:21:52Z</time>
      </trkpt>
      <trkpt lat="43.63329" lon="1.38614">
        <ele>148</ele>
        <time>2025-04-09T11:21:54Z</time>
      </trkpt>
      <trkpt lat="43.63332" lon="1.38612">
        <ele>148</ele>
        <time>2025-04-09T11:21:55Z</time>
      </trkpt>
      <trkpt lat="43.63335" lon="1.3861">
        <ele>148</ele>
        <time>2025-04-09T11:21:56Z</time>
      </trkpt>
      <trkpt lat="43.6334" lon="1.38605">
        <ele>148</ele>
        <time>2025-04-09T11:21:57Z</time>
      </trkpt>
      <trkpt lat="43.63339" lon="1.38599">
        <ele>148</ele>
        <time>2025-04-09T11:21:59Z</time>
      </trkpt>
      <trkpt lat="43.63335" lon="1.38591">
        <ele>148</ele>
        <time>2025-04-09T11:22:00Z</time>
      </trkpt>
      <trkpt lat="43.63334" lon="1.38587">
        <ele>148</ele>
        <time>2025-04-09T11:22:01Z</time>
      </trkpt>
      <trkpt lat="43.63332" lon="1.38584">
        <ele>147</ele>
        <time>2025-04-09T11:22:02Z</time>
      </trkpt>
      <trkpt lat="43.63331" lon="1.3858">
        <ele>147</ele>
        <time>2025-04-09T11:22:03Z</time>
      </trkpt>
      <trkpt lat="43.6333" lon="1.38575">
        <ele>147</ele>
        <time>2025-04-09T11:22:04Z</time>
      </trkpt>
      <trkpt lat="43.63328" lon="1.38572">
        <ele>147</ele>
        <time>2025-04-09T11:22:05Z</time>
      </trkpt>
      <trkpt lat="43.63328" lon="1.38572">
        <ele>148</ele>
        <time>2025-04-09T11:22:06Z</time>
      </trkpt>
      <trkpt lat="43.63326" lon="1.38563">
        <ele>148</ele>
        <time>2025-04-09T11:22:07Z</time>
      </trkpt>
      <trkpt lat="43.63323" lon="1.38555">
        <ele>148</ele>
        <time>2025-04-09T11:22:09Z</time>
      </trkpt>
      <trkpt lat="43.63323" lon="1.38555">
        <ele>148</ele>
        <time>2025-04-09T11:22:10Z</time>
      </trkpt>
      <trkpt lat="43.63322" lon="1.3855">
        <ele>148</ele>
        <time>2025-04-09T11:22:11Z</time>
      </trkpt>
      <trkpt lat="43.6332" lon="1.38542">
        <ele>148</ele>
        <time>2025-04-09T11:22:12Z</time>
      </trkpt>
      <trkpt lat="43.63319" lon="1.38538">
        <ele>148</ele>
        <time>2025-04-09T11:22:13Z</time>
      </trkpt>
      <trkpt lat="43.63319" lon="1.38538">
        <ele>148</ele>
        <time>2025-04-09T11:22:14Z</time>
      </trkpt>
      <trkpt lat="43.63318" lon="1.38534">
        <ele>148</ele>
        <time>2025-04-09T11:22:15Z</time>
      </trkpt>
      <trkpt lat="43.63317" lon="1.38529">
        <ele>148</ele>
        <time>2025-04-09T11:22:16Z</time>
      </trkpt>
      <trkpt lat="43.63315" lon="1.38524">
        <ele>148</ele>
        <time>2025-04-09T11:22:17Z</time>
      </trkpt>
      <trkpt lat="43.63314" lon="1.38522">
        <ele>148</ele>
        <time>2025-04-09T11:22:18Z</time>
      </trkpt>
      <trkpt lat="43.63313" lon="1.38518">
        <ele>148</ele>
        <time>2025-04-09T11:22:19Z</time>
      </trkpt>
      <trkpt lat="43.63312" lon="1.38514">
        <ele>148</ele>
        <time>2025-04-09T11:22:20Z</time>
      </trkpt>
      <trkpt lat="43.6331" lon="1.38505">
        <ele>147</ele>
        <time>2025-04-09T11:22:21Z</time>
      </trkpt>
      <trkpt lat="43.63308" lon="1.38501">
        <ele>147</ele>
        <time>2025-04-09T11:22:22Z</time>
      </trkpt>
      <trkpt lat="43.63307" lon="1.38496">
        <ele>147</ele>
        <time>2025-04-09T11:22:24Z</time>
      </trkpt>
      <trkpt lat="43.63306" lon="1.38492">
        <ele>147</ele>
        <time>2025-04-09T11:22:25Z</time>
      </trkpt>
      <trkpt lat="43.63303" lon="1.38483">
        <ele>148</ele>
        <time>2025-04-09T11:22:26Z</time>
      </trkpt>
      <trkpt lat="43.63301" lon="1.3848">
        <ele>148</ele>
        <time>2025-04-09T11:22:27Z</time>
      </trkpt>
      <trkpt lat="43.63301" lon="1.3848">
        <ele>149</ele>
        <time>2025-04-09T11:22:28Z</time>
      </trkpt>
      <trkpt lat="43.63298" lon="1.38482">
        <ele>149</ele>
        <time>2025-04-09T11:22:29Z</time>
      </trkpt>
      <trkpt lat="43.63295" lon="1.38483">
        <ele>149</ele>
        <time>2025-04-09T11:22:30Z</time>
      </trkpt>
      <trkpt lat="43.63293" lon="1.38485">
        <ele>149</ele>
        <time>2025-04-09T11:22:31Z</time>
      </trkpt>
      <trkpt lat="43.6329" lon="1.38486">
        <ele>149</ele>
        <time>2025-04-09T11:22:32Z</time>
      </trkpt>
      <trkpt lat="43.63288" lon="1.38488">
        <ele>149</ele>
        <time>2025-04-09T11:22:33Z</time>
      </trkpt>
      <trkpt lat="43.63285" lon="1.3849">
        <ele>149</ele>
        <time>2025-04-09T11:22:34Z</time>
      </trkpt>
      <trkpt lat="43.63277" lon="1.38495">
        <ele>149</ele>
        <time>2025-04-09T11:22:35Z</time>
      </trkpt>
      <trkpt lat="43.63275" lon="1.38496">
        <ele>149</ele>
        <time>2025-04-09T11:22:37Z</time>
      </trkpt>
      <trkpt lat="43.6327" lon="1.38499">
        <ele>149</ele>
        <time>2025-04-09T11:22:38Z</time>
      </trkpt>
      <trkpt lat="43.63269" lon="1.38499">
        <ele>149</ele>
        <time>2025-04-09T11:22:39Z</time>
      </trkpt>
      <trkpt lat="43.63265" lon="1.38501">
        <ele>149</ele>
        <time>2025-04-09T11:22:40Z</time>
      </trkpt>
      <trkpt lat="43.63262" lon="1.38503">
        <ele>149</ele>
        <time>2025-04-09T11:22:41Z</time>
      </trkpt>
      <trkpt lat="43.63259" lon="1.38504">
        <ele>149</ele>
        <time>2025-04-09T11:22:42Z</time>
      </trkpt>
      <trkpt lat="43.63257" lon="1.38507">
        <ele>149</ele>
        <time>2025-04-09T11:22:43Z</time>
      </trkpt>
      <trkpt lat="43.63255" lon="1.38509">
        <ele>149</ele>
        <time>2025-04-09T11:22:44Z</time>
      </trkpt>
      <trkpt lat="43.63253" lon="1.38512">
        <ele>149</ele>
        <time>2025-04-09T11:22:45Z</time>
      </trkpt>
      <trkpt lat="43.63253" lon="1.38517">
        <ele>149</ele>
        <time>2025-04-09T11:22:46Z</time>
      </trkpt>
      <trkpt lat="43.63254" lon="1.38521">
        <ele>149</ele>
        <time>2025-04-09T11:22:47Z</time>
      </trkpt>
      <trkpt lat="43.63255" lon="1.38525">
        <ele>149</ele>
        <time>2025-04-09T11:22:48Z</time>
      </trkpt>
      <trkpt lat="43.63257" lon="1.3853">
        <ele>149</ele>
        <time>2025-04-09T11:22:49Z</time>
      </trkpt>
      <trkpt lat="43.63258" lon="1.38534">
        <ele>149</ele>
        <time>2025-04-09T11:22:50Z</time>
      </trkpt>
      <trkpt lat="43.63259" lon="1.38538">
        <ele>149</ele>
        <time>2025-04-09T11:22:51Z</time>
      </trkpt>
      <trkpt lat="43.63261" lon="1.38542">
        <ele>149</ele>
        <time>2025-04-09T11:22:52Z</time>
      </trkpt>
      <trkpt lat="43.63263" lon="1.38546">
        <ele>149</ele>
        <time>2025-04-09T11:22:53Z</time>
      </trkpt>
      <trkpt lat="43.63264" lon="1.3855">
        <ele>149</ele>
        <time>2025-04-09T11:22:54Z</time>
      </trkpt>
      <trkpt lat="43.63266" lon="1.38554">
        <ele>149</ele>
        <time>2025-04-09T11:22:56Z</time>
      </trkpt>
      <trkpt lat="43.63267" lon="1.38558">
        <ele>149</ele>
        <time>2025-04-09T11:22:57Z</time>
      </trkpt>
      <trkpt lat="43.63272" lon="1.3857">
        <ele>149</ele>
        <time>2025-04-09T11:22:58Z</time>
      </trkpt>
      <trkpt lat="43.63272" lon="1.3857">
        <ele>148</ele>
        <time>2025-04-09T11:22:59Z</time>
      </trkpt>
      <trkpt lat="43.63273" lon="1.38574">
        <ele>148</ele>
        <time>2025-04-09T11:23:00Z</time>
      </trkpt>
      <trkpt lat="43.63275" lon="1.38578">
        <ele>149</ele>
        <time>2025-04-09T11:23:01Z</time>
      </trkpt>
      <trkpt lat="43.63276" lon="1.38583">
        <ele>149</ele>
        <time>2025-04-09T11:23:02Z</time>
      </trkpt>
      <trkpt lat="43.63277" lon="1.38587">
        <ele>149</ele>
        <time>2025-04-09T11:23:03Z</time>
      </trkpt>
      <trkpt lat="43.63278" lon="1.38591">
        <ele>149</ele>
        <time>2025-04-09T11:23:04Z</time>
      </trkpt>
      <trkpt lat="43.6328" lon="1.38595">
        <ele>149</ele>
        <time>2025-04-09T11:23:05Z</time>
      </trkpt>
      <trkpt lat="43.6328" lon="1.38598">
        <ele>149</ele>
        <time>2025-04-09T11:23:06Z</time>
      </trkpt>
      <trkpt lat="43.63281" lon="1.386">
        <ele>149</ele>
        <time>2025-04-09T11:23:07Z</time>
      </trkpt>
      <trkpt lat="43.63281" lon="1.38602">
        <ele>149</ele>
        <time>2025-04-09T11:23:08Z</time>
      </trkpt>
      <trkpt lat="43.63283" lon="1.38609">
        <ele>149</ele>
        <time>2025-04-09T11:23:09Z</time>
      </trkpt>
      <trkpt lat="43.63287" lon="1.38621">
        <ele>149</ele>
        <time>2025-04-09T11:23:10Z</time>
      </trkpt>
      <trkpt lat="43.63287" lon="1.38621">
        <ele>149</ele>
        <time>2025-04-09T11:23:12Z</time>
      </trkpt>
      <trkpt lat="43.63288" lon="1.38626">
        <ele>148</ele>
        <time>2025-04-09T11:23:13Z</time>
      </trkpt>
      <trkpt lat="43.63288" lon="1.3863">
        <ele>148</ele>
        <time>2025-04-09T11:23:14Z</time>
      </trkpt>
      <trkpt lat="43.63289" lon="1.38634">
        <ele>148</ele>
        <time>2025-04-09T11:23:15Z</time>
      </trkpt>
      <trkpt lat="43.63291" lon="1.38634">
        <ele>148</ele>
        <time>2025-04-09T11:23:16Z</time>
      </trkpt>
      <trkpt lat="43.63294" lon="1.38634">
        <ele>149</ele>
        <time>2025-04-09T11:23:17Z</time>
      </trkpt>
      <trkpt lat="43.63297" lon="1.38634">
        <ele>149</ele>
        <time>2025-04-09T11:23:18Z</time>
      </trkpt>
      <trkpt lat="43.633" lon="1.38634">
        <ele>149</ele>
        <time>2025-04-09T11:23:19Z</time>
      </trkpt>
      <trkpt lat="43.63302" lon="1.38632">
        <ele>149</ele>
        <time>2025-04-09T11:23:20Z</time>
      </trkpt>
      <trkpt lat="43.63305" lon="1.3863">
        <ele>148</ele>
        <time>2025-04-09T11:23:21Z</time>
      </trkpt>
      <trkpt lat="43.63308" lon="1.38627">
        <ele>148</ele>
        <time>2025-04-09T11:23:22Z</time>
      </trkpt>
      <trkpt lat="43.63312" lon="1.38625">
        <ele>148</ele>
        <time>2025-04-09T11:23:23Z</time>
      </trkpt>
      <trkpt lat="43.63315" lon="1.38623">
        <ele>148</ele>
        <time>2025-04-09T11:23:24Z</time>
      </trkpt>
      <trkpt lat="43.63318" lon="1.38621">
        <ele>148</ele>
        <time>2025-04-09T11:23:25Z</time>
      </trkpt>
      <trkpt lat="43.63322" lon="1.38619">
        <ele>148</ele>
        <time>2025-04-09T11:23:26Z</time>
      </trkpt>
      <trkpt lat="43.63325" lon="1.38617">
        <ele>148</ele>
        <time>2025-04-09T11:23:27Z</time>
      </trkpt>
      <trkpt lat="43.63329" lon="1.38614">
        <ele>148</ele>
        <time>2025-04-09T11:23:28Z</time>
      </trkpt>
      <trkpt lat="43.63333" lon="1.38612">
        <ele>148</ele>
        <time>2025-04-09T11:23:29Z</time>
      </trkpt>
      <trkpt lat="43.63338" lon="1.38607">
        <ele>148</ele>
        <time>2025-04-09T11:23:30Z</time>
      </trkpt>
      <trkpt lat="43.63338" lon="1.38607">
        <ele>148</ele>
        <time>2025-04-09T11:23:31Z</time>
      </trkpt>
      <trkpt lat="43.63339" lon="1.38605">
        <ele>148</ele>
        <time>2025-04-09T11:23:32Z</time>
      </trkpt>
      <trkpt lat="43.63338" lon="1.386">
        <ele>148</ele>
        <time>2025-04-09T11:23:33Z</time>
      </trkpt>
      <trkpt lat="43.63337" lon="1.38599">
        <ele>148</ele>
        <time>2025-04-09T11:23:34Z</time>
      </trkpt>
      <trkpt lat="43.63336" lon="1.38595">
        <ele>148</ele>
        <time>2025-04-09T11:23:35Z</time>
      </trkpt>
      <trkpt lat="43.63334" lon="1.38591">
        <ele>148</ele>
        <time>2025-04-09T11:23:36Z</time>
      </trkpt>
      <trkpt lat="43.63332" lon="1.38583">
        <ele>149</ele>
        <time>2025-04-09T11:23:37Z</time>
      </trkpt>
      <trkpt lat="43.6333" lon="1.38578">
        <ele>149</ele>
        <time>2025-04-09T11:23:38Z</time>
      </trkpt>
      <trkpt lat="43.63329" lon="1.38574">
        <ele>149</ele>
        <time>2025-04-09T11:23:39Z</time>
      </trkpt>
      <trkpt lat="43.63328" lon="1.3857">
        <ele>149</ele>
        <time>2025-04-09T11:23:40Z</time>
      </trkpt>
      <trkpt lat="43.63325" lon="1.38562">
        <ele>148</ele>
        <time>2025-04-09T11:23:42Z</time>
      </trkpt>
      <trkpt lat="43.63325" lon="1.38562">
        <ele>148</ele>
        <time>2025-04-09T11:23:43Z</time>
      </trkpt>
      <trkpt lat="43.63324" lon="1.38558">
        <ele>148</ele>
        <time>2025-04-09T11:23:44Z</time>
      </trkpt>
      <trkpt lat="43.63322" lon="1.38553">
        <ele>148</ele>
        <time>2025-04-09T11:23:45Z</time>
      </trkpt>
      <trkpt lat="43.63321" lon="1.38549">
        <ele>148</ele>
        <time>2025-04-09T11:23:46Z</time>
      </trkpt>
      <trkpt lat="43.6332" lon="1.38544">
        <ele>148</ele>
        <time>2025-04-09T11:23:47Z</time>
      </trkpt>
      <trkpt lat="43.63317" lon="1.38536">
        <ele>149</ele>
        <time>2025-04-09T11:23:48Z</time>
      </trkpt>
      <trkpt lat="43.63316" lon="1.38531">
        <ele>149</ele>
        <time>2025-04-09T11:23:49Z</time>
      </trkpt>
      <trkpt lat="43.63316" lon="1.38531">
        <ele>149</ele>
        <time>2025-04-09T11:23:50Z</time>
      </trkpt>
      <trkpt lat="43.63315" lon="1.38527">
        <ele>149</ele>
        <time>2025-04-09T11:23:51Z</time>
      </trkpt>
      <trkpt lat="43.63314" lon="1.3852">
        <ele>149</ele>
        <time>2025-04-09T11:23:52Z</time>
      </trkpt>
      <trkpt lat="43.63313" lon="1.38518">
        <ele>148</ele>
        <time>2025-04-09T11:23:53Z</time>
      </trkpt>
      <trkpt lat="43.63312" lon="1.38513">
        <ele>148</ele>
        <time>2025-04-09T11:23:54Z</time>
      </trkpt>
      <trkpt lat="43.6331" lon="1.38509">
        <ele>148</ele>
        <time>2025-04-09T11:23:55Z</time>
      </trkpt>
      <trkpt lat="43.63308" lon="1.385">
        <ele>148</ele>
        <time>2025-04-09T11:23:56Z</time>
      </trkpt>
      <trkpt lat="43.63306" lon="1.38496">
        <ele>148</ele>
        <time>2025-04-09T11:23:57Z</time>
      </trkpt>
      <trkpt lat="43.63304" lon="1.38492">
        <ele>148</ele>
        <time>2025-04-09T11:23:58Z</time>
      </trkpt>
      <trkpt lat="43.63303" lon="1.38487">
        <ele>148</ele>
        <time>2025-04-09T11:23:59Z</time>
      </trkpt>
      <trkpt lat="43.63303" lon="1.38487">
        <ele>148</ele>
        <time>2025-04-09T11:24:00Z</time>
      </trkpt>
      <trkpt lat="43.63302" lon="1.38483">
        <ele>149</ele>
        <time>2025-04-09T11:24:01Z</time>
      </trkpt>
      <trkpt lat="43.633" lon="1.38481">
        <ele>149</ele>
        <time>2025-04-09T11:24:02Z</time>
      </trkpt>
      <trkpt lat="43.63298" lon="1.3848">
        <ele>148</ele>
        <time>2025-04-09T11:24:03Z</time>
      </trkpt>
      <trkpt lat="43.63295" lon="1.38483">
        <ele>148</ele>
        <time>2025-04-09T11:24:04Z</time>
      </trkpt>
      <trkpt lat="43.63292" lon="1.38485">
        <ele>148</ele>
        <time>2025-04-09T11:24:05Z</time>
      </trkpt>
      <trkpt lat="43.63289" lon="1.38488">
        <ele>148</ele>
        <time>2025-04-09T11:24:06Z</time>
      </trkpt>
      <trkpt lat="43.63286" lon="1.3849">
        <ele>148</ele>
        <time>2025-04-09T11:24:07Z</time>
      </trkpt>
      <trkpt lat="43.63282" lon="1.38493">
        <ele>149</ele>
        <time>2025-04-09T11:24:08Z</time>
      </trkpt>
      <trkpt lat="43.63279" lon="1.38494">
        <ele>149</ele>
        <time>2025-04-09T11:24:09Z</time>
      </trkpt>
      <trkpt lat="43.63276" lon="1.38496">
        <ele>149</ele>
        <time>2025-04-09T11:24:10Z</time>
      </trkpt>
      <trkpt lat="43.63273" lon="1.38498">
        <ele>149</ele>
        <time>2025-04-09T11:24:11Z</time>
      </trkpt>
      <trkpt lat="43.6327" lon="1.385">
        <ele>149</ele>
        <time>2025-04-09T11:24:12Z</time>
      </trkpt>
      <trkpt lat="43.63266" lon="1.38502">
        <ele>149</ele>
        <time>2025-04-09T11:24:13Z</time>
      </trkpt>
      <trkpt lat="43.63263" lon="1.38503">
        <ele>149</ele>
        <time>2025-04-09T11:24:14Z</time>
      </trkpt>
      <trkpt lat="43.6326" lon="1.38505">
        <ele>149</ele>
        <time>2025-04-09T11:24:15Z</time>
      </trkpt>
      <trkpt lat="43.63254" lon="1.3851">
        <ele>149</ele>
        <time>2025-04-09T11:24:16Z</time>
      </trkpt>
      <trkpt lat="43.63253" lon="1.38514">
        <ele>149</ele>
        <time>2025-04-09T11:24:17Z</time>
      </trkpt>
      <trkpt lat="43.63254" lon="1.38518">
        <ele>149</ele>
        <time>2025-04-09T11:24:18Z</time>
      </trkpt>
      <trkpt lat="43.63254" lon="1.38518">
        <ele>149</ele>
        <time>2025-04-09T11:24:19Z</time>
      </trkpt>
      <trkpt lat="43.63255" lon="1.38523">
        <ele>149</ele>
        <time>2025-04-09T11:24:20Z</time>
      </trkpt>
      <trkpt lat="43.63256" lon="1.38527">
        <ele>148</ele>
        <time>2025-04-09T11:24:21Z</time>
      </trkpt>
      <trkpt lat="43.6326" lon="1.38535">
        <ele>148</ele>
        <time>2025-04-09T11:24:22Z</time>
      </trkpt>
      <trkpt lat="43.6326" lon="1.38535">
        <ele>148</ele>
        <time>2025-04-09T11:24:23Z</time>
      </trkpt>
      <trkpt lat="43.6326" lon="1.38535">
        <ele>148</ele>
        <time>2025-04-09T11:24:24Z</time>
      </trkpt>
      <trkpt lat="43.63264" lon="1.38548">
        <ele>148</ele>
        <time>2025-04-09T11:24:25Z</time>
      </trkpt>
      <trkpt lat="43.63264" lon="1.38548">
        <ele>148</ele>
        <time>2025-04-09T11:24:27Z</time>
      </trkpt>
      <trkpt lat="43.63268" lon="1.38563">
        <ele>148</ele>
        <time>2025-04-09T11:24:28Z</time>
      </trkpt>
      <trkpt lat="43.63269" lon="1.38564">
        <ele>148</ele>
        <time>2025-04-09T11:24:29Z</time>
      </trkpt>
      <trkpt lat="43.6327" lon="1.38569">
        <ele>148</ele>
        <time>2025-04-09T11:24:30Z</time>
      </trkpt>
      <trkpt lat="43.63271" lon="1.38571">
        <ele>148</ele>
        <time>2025-04-09T11:24:31Z</time>
      </trkpt>
      <trkpt lat="43.63272" lon="1.38573">
        <ele>148</ele>
        <time>2025-04-09T11:24:32Z</time>
      </trkpt>
      <trkpt lat="43.63273" lon="1.38576">
        <ele>148</ele>
        <time>2025-04-09T11:24:33Z</time>
      </trkpt>
      <trkpt lat="43.63273" lon="1.38578">
        <ele>148</ele>
        <time>2025-04-09T11:24:34Z</time>
      </trkpt>
      <trkpt lat="43.63278" lon="1.38592">
        <ele>148</ele>
        <time>2025-04-09T11:24:35Z</time>
      </trkpt>
      <trkpt lat="43.63281" lon="1.38598">
        <ele>148</ele>
        <time>2025-04-09T11:24:36Z</time>
      </trkpt>
      <trkpt lat="43.63281" lon="1.38598">
        <ele>148</ele>
        <time>2025-04-09T11:24:37Z</time>
      </trkpt>
      <trkpt lat="43.63283" lon="1.38604">
        <ele>148</ele>
        <time>2025-04-09T11:24:38Z</time>
      </trkpt>
      <trkpt lat="43.63284" lon="1.38609">
        <ele>148</ele>
        <time>2025-04-09T11:24:39Z</time>
      </trkpt>
      <trkpt lat="43.63285" lon="1.38614">
        <ele>149</ele>
        <time>2025-04-09T11:24:40Z</time>
      </trkpt>
      <trkpt lat="43.63287" lon="1.38621">
        <ele>149</ele>
        <time>2025-04-09T11:24:41Z</time>
      </trkpt>
      <trkpt lat="43.63287" lon="1.38621">
        <ele>149</ele>
        <time>2025-04-09T11:24:42Z</time>
      </trkpt>
      <trkpt lat="43.63288" lon="1.38626">
        <ele>149</ele>
        <time>2025-04-09T11:24:43Z</time>
      </trkpt>
      <trkpt lat="43.63289" lon="1.3863">
        <ele>149</ele>
        <time>2025-04-09T11:24:44Z</time>
      </trkpt>
      <trkpt lat="43.63289" lon="1.38635">
        <ele>149</ele>
        <time>2025-04-09T11:24:45Z</time>
      </trkpt>
      <trkpt lat="43.63289" lon="1.38635">
        <ele>149</ele>
        <time>2025-04-09T11:24:46Z</time>
      </trkpt>
      <trkpt lat="43.63289" lon="1.38635">
        <ele>148</ele>
        <time>2025-04-09T11:24:47Z</time>
      </trkpt>
      <trkpt lat="43.63289" lon="1.38635">
        <ele>148</ele>
        <time>2025-04-09T11:24:48Z</time>
      </trkpt>
      <trkpt lat="43.63301" lon="1.38635">
        <ele>149</ele>
        <time>2025-04-09T11:24:50Z</time>
      </trkpt>
      <trkpt lat="43.63302" lon="1.38634">
        <ele>149</ele>
        <time>2025-04-09T11:24:51Z</time>
      </trkpt>
      <trkpt lat="43.63304" lon="1.38633">
        <ele>149</ele>
        <time>2025-04-09T11:24:52Z</time>
      </trkpt>
      <trkpt lat="43.63306" lon="1.38632">
        <ele>149</ele>
        <time>2025-04-09T11:24:53Z</time>
      </trkpt>
      <trkpt lat="43.63313" lon="1.38628">
        <ele>149</ele>
        <time>2025-04-09T11:24:54Z</time>
      </trkpt>
      <trkpt lat="43.63316" lon="1.38626">
        <ele>149</ele>
        <time>2025-04-09T11:24:55Z</time>
      </trkpt>
      <trkpt lat="43.63319" lon="1.38624">
        <ele>149</ele>
        <time>2025-04-09T11:24:56Z</time>
      </trkpt>
      <trkpt lat="43.63321" lon="1.38622">
        <ele>149</ele>
        <time>2025-04-09T11:24:57Z</time>
      </trkpt>
      <trkpt lat="43.63324" lon="1.38621">
        <ele>149</ele>
        <time>2025-04-09T11:24:58Z</time>
      </trkpt>
      <trkpt lat="43.63326" lon="1.38619">
        <ele>149</ele>
        <time>2025-04-09T11:24:59Z</time>
      </trkpt>
      <trkpt lat="43.63335" lon="1.38614">
        <ele>149</ele>
        <time>2025-04-09T11:25:00Z</time>
      </trkpt>
      <trkpt lat="43.63338" lon="1.38612">
        <ele>149</ele>
        <time>2025-04-09T11:25:01Z</time>
      </trkpt>
      <trkpt lat="43.63341" lon="1.3861">
        <ele>149</ele>
        <time>2025-04-09T11:25:02Z</time>
      </trkpt>
      <trkpt lat="43.63341" lon="1.3861">
        <ele>150</ele>
        <time>2025-04-09T11:25:03Z</time>
      </trkpt>
      <trkpt lat="43.63341" lon="1.38606">
        <ele>150</ele>
        <time>2025-04-09T11:25:04Z</time>
      </trkpt>
      <trkpt lat="43.63341" lon="1.38606">
        <ele>149</ele>
        <time>2025-04-09T11:25:05Z</time>
      </trkpt>
      <trkpt lat="43.63341" lon="1.38606">
        <ele>149</ele>
        <time>2025-04-09T11:25:06Z</time>
      </trkpt>
      <trkpt lat="43.63339" lon="1.38605">
        <ele>148</ele>
        <time>2025-04-09T11:25:07Z</time>
      </trkpt>
      <trkpt lat="43.63338" lon="1.38602">
        <ele>149</ele>
        <time>2025-04-09T11:25:09Z</time>
      </trkpt>
      <trkpt lat="43.63337" lon="1.38599">
        <ele>149</ele>
        <time>2025-04-09T11:25:10Z</time>
      </trkpt>
      <trkpt lat="43.63337" lon="1.38599">
        <ele>149</ele>
        <time>2025-04-09T11:25:11Z</time>
      </trkpt>
      <trkpt lat="43.63336" lon="1.38597">
        <ele>149</ele>
        <time>2025-04-09T11:25:12Z</time>
      </trkpt>
      <trkpt lat="43.63336" lon="1.38597">
        <ele>149</ele>
        <time>2025-04-09T11:25:13Z</time>
      </trkpt>
      <trkpt lat="43.63335" lon="1.38594">
        <ele>149</ele>
        <time>2025-04-09T11:25:14Z</time>
      </trkpt>
      <trkpt lat="43.63335" lon="1.38594">
        <ele>150</ele>
        <time>2025-04-09T11:25:15Z</time>
      </trkpt>
      <trkpt lat="43.63335" lon="1.38594">
        <ele>150</ele>
        <time>2025-04-09T11:25:16Z</time>
      </trkpt>
      <trkpt lat="43.63334" lon="1.3859">
        <ele>150</ele>
        <time>2025-04-09T11:25:17Z</time>
      </trkpt>
      <trkpt lat="43.63334" lon="1.3859">
        <ele>150</ele>
        <time>2025-04-09T11:25:18Z</time>
      </trkpt>
      <trkpt lat="43.63333" lon="1.38587">
        <ele>150</ele>
        <time>2025-04-09T11:25:19Z</time>
      </trkpt>
      <trkpt lat="43.63332" lon="1.38584">
        <ele>149</ele>
        <time>2025-04-09T11:25:20Z</time>
      </trkpt>
      <trkpt lat="43.63332" lon="1.38584">
        <ele>149</ele>
        <time>2025-04-09T11:25:21Z</time>
      </trkpt>
      <trkpt lat="43.63332" lon="1.38584">
        <ele>149</ele>
        <time>2025-04-09T11:25:22Z</time>
      </trkpt>
      <trkpt lat="43.63331" lon="1.38581">
        <ele>149</ele>
        <time>2025-04-09T11:25:23Z</time>
      </trkpt>
      <trkpt lat="43.63331" lon="1.38581">
        <ele>149</ele>
        <time>2025-04-09T11:25:24Z</time>
      </trkpt>
      <trkpt lat="43.6333" lon="1.38578">
        <ele>149</ele>
        <time>2025-04-09T11:25:25Z</time>
      </trkpt>
      <trkpt lat="43.63329" lon="1.38575">
        <ele>149</ele>
        <time>2025-04-09T11:25:26Z</time>
      </trkpt>
      <trkpt lat="43.63329" lon="1.38575">
        <ele>149</ele>
        <time>2025-04-09T11:25:28Z</time>
      </trkpt>
      <trkpt lat="43.63328" lon="1.38572">
        <ele>149</ele>
        <time>2025-04-09T11:25:29Z</time>
      </trkpt>
      <trkpt lat="43.63328" lon="1.38572">
        <ele>149</ele>
        <time>2025-04-09T11:25:30Z</time>
      </trkpt>
      <trkpt lat="43.63327" lon="1.38569">
        <ele>149</ele>
        <time>2025-04-09T11:25:31Z</time>
      </trkpt>
      <trkpt lat="43.63327" lon="1.38566">
        <ele>149</ele>
        <time>2025-04-09T11:25:32Z</time>
      </trkpt>
      <trkpt lat="43.63327" lon="1.38566">
        <ele>149</ele>
        <time>2025-04-09T11:25:33Z</time>
      </trkpt>
      <trkpt lat="43.63327" lon="1.38566">
        <ele>149</ele>
        <time>2025-04-09T11:25:34Z</time>
      </trkpt>
      <trkpt lat="43.63326" lon="1.38562">
        <ele>148</ele>
        <time>2025-04-09T11:25:35Z</time>
      </trkpt>
      <trkpt lat="43.63325" lon="1.38559">
        <ele>148</ele>
        <time>2025-04-09T11:25:36Z</time>
      </trkpt>
      <trkpt lat="43.63325" lon="1.38559">
        <ele>149</ele>
        <time>2025-04-09T11:25:38Z</time>
      </trkpt>
      <trkpt lat="43.63324" lon="1.38557">
        <ele>149</ele>
        <time>2025-04-09T11:25:39Z</time>
      </trkpt>
      <trkpt lat="43.63324" lon="1.38557">
        <ele>150</ele>
        <time>2025-04-09T11:25:40Z</time>
      </trkpt>
      <trkpt lat="43.63323" lon="1.38554">
        <ele>150</ele>
        <time>2025-04-09T11:25:41Z</time>
      </trkpt>
      <trkpt lat="43.63323" lon="1.38551">
        <ele>149</ele>
        <time>2025-04-09T11:25:42Z</time>
      </trkpt>
      <trkpt lat="43.63323" lon="1.38551">
        <ele>149</ele>
        <time>2025-04-09T11:25:43Z</time>
      </trkpt>
      <trkpt lat="43.63323" lon="1.38551">
        <ele>149</ele>
        <time>2025-04-09T11:25:44Z</time>
      </trkpt>
      <trkpt lat="43.63322" lon="1.38548">
        <ele>149</ele>
        <time>2025-04-09T11:25:45Z</time>
      </trkpt>
      <trkpt lat="43.63321" lon="1.38545">
        <ele>149</ele>
        <time>2025-04-09T11:25:47Z</time>
      </trkpt>
      <trkpt lat="43.6332" lon="1.38542">
        <ele>149</ele>
        <time>2025-04-09T11:25:48Z</time>
      </trkpt>
      <trkpt lat="43.6332" lon="1.38542">
        <ele>148</ele>
        <time>2025-04-09T11:25:49Z</time>
      </trkpt>
      <trkpt lat="43.6332" lon="1.38542">
        <ele>148</ele>
        <time>2025-04-09T11:25:50Z</time>
      </trkpt>
      <trkpt lat="43.6332" lon="1.3854">
        <ele>148</ele>
        <time>2025-04-09T11:25:51Z</time>
      </trkpt>
      <trkpt lat="43.63319" lon="1.38537">
        <ele>148</ele>
        <time>2025-04-09T11:25:52Z</time>
      </trkpt>
      <trkpt lat="43.63319" lon="1.38537">
        <ele>148</ele>
        <time>2025-04-09T11:25:53Z</time>
      </trkpt>
      <trkpt lat="43.63319" lon="1.38537">
        <ele>148</ele>
        <time>2025-04-09T11:25:54Z</time>
      </trkpt>
      <trkpt lat="43.63318" lon="1.38533">
        <ele>148</ele>
        <time>2025-04-09T11:25:55Z</time>
      </trkpt>
      <trkpt lat="43.63318" lon="1.38533">
        <ele>149</ele>
        <time>2025-04-09T11:25:56Z</time>
      </trkpt>
      <trkpt lat="43.63316" lon="1.38531">
        <ele>149</ele>
        <time>2025-04-09T11:25:57Z</time>
      </trkpt>
      <trkpt lat="43.63316" lon="1.38528">
        <ele>149</ele>
        <time>2025-04-09T11:25:58Z</time>
      </trkpt>
      <trkpt lat="43.63316" lon="1.38528">
        <ele>149</ele>
        <time>2025-04-09T11:25:59Z</time>
      </trkpt>
      <trkpt lat="43.63316" lon="1.38528">
        <ele>149</ele>
        <time>2025-04-09T11:26:00Z</time>
      </trkpt>
      <trkpt lat="43.63315" lon="1.38526">
        <ele>149</ele>
        <time>2025-04-09T11:26:01Z</time>
      </trkpt>
      <trkpt lat="43.63315" lon="1.38526">
        <ele>150</ele>
        <time>2025-04-09T11:26:02Z</time>
      </trkpt>
      <trkpt lat="43.63315" lon="1.38526">
        <ele>150</ele>
        <time>2025-04-09T11:26:03Z</time>
      </trkpt>
      <trkpt lat="43.63314" lon="1.38523">
        <ele>150</ele>
        <time>2025-04-09T11:26:04Z</time>
      </trkpt>
      <trkpt lat="43.63313" lon="1.3852">
        <ele>149</ele>
        <time>2025-04-09T11:26:06Z</time>
      </trkpt>
      <trkpt lat="43.63313" lon="1.3852">
        <ele>149</ele>
        <time>2025-04-09T11:26:07Z</time>
      </trkpt>
      <trkpt lat="43.63313" lon="1.38517">
        <ele>149</ele>
        <time>2025-04-09T11:26:08Z</time>
      </trkpt>
      <trkpt lat="43.63312" lon="1.38515">
        <ele>149</ele>
        <time>2025-04-09T11:26:09Z</time>
      </trkpt>
      <trkpt lat="43.63312" lon="1.38515">
        <ele>149</ele>
        <time>2025-04-09T11:26:10Z</time>
      </trkpt>
      <trkpt lat="43.63312" lon="1.38515">
        <ele>149</ele>
        <time>2025-04-09T11:26:11Z</time>
      </trkpt>
      <trkpt lat="43.63311" lon="1.38512">
        <ele>149</ele>
        <time>2025-04-09T11:26:12Z</time>
      </trkpt>
      <trkpt lat="43.63311" lon="1.38509">
        <ele>149</ele>
        <time>2025-04-09T11:26:13Z</time>
      </trkpt>
      <trkpt lat="43.63311" lon="1.38509">
        <ele>149</ele>
        <time>2025-04-09T11:26:14Z</time>
      </trkpt>
      <trkpt lat="43.6331" lon="1.38507">
        <ele>149</ele>
        <time>2025-04-09T11:26:15Z</time>
      </trkpt>
      <trkpt lat="43.6331" lon="1.38507">
        <ele>149</ele>
        <time>2025-04-09T11:26:16Z</time>
      </trkpt>
      <trkpt lat="43.63309" lon="1.38504">
        <ele>149</ele>
        <time>2025-04-09T11:26:17Z</time>
      </trkpt>
      <trkpt lat="43.63309" lon="1.38504">
        <ele>149</ele>
        <time>2025-04-09T11:26:18Z</time>
      </trkpt>
      <trkpt lat="43.63309" lon="1.38504">
        <ele>149</ele>
        <time>2025-04-09T11:26:19Z</time>
      </trkpt>
      <trkpt lat="43.63308" lon="1.38501">
        <ele>149</ele>
        <time>2025-04-09T11:26:20Z</time>
      </trkpt>
      <trkpt lat="43.63308" lon="1.38501">
        <ele>149</ele>
        <time>2025-04-09T11:26:21Z</time>
      </trkpt>
      <trkpt lat="43.63307" lon="1.38498">
        <ele>149</ele>
        <time>2025-04-09T11:26:22Z</time>
      </trkpt>
      <trkpt lat="43.63307" lon="1.38498">
        <ele>149</ele>
        <time>2025-04-09T11:26:23Z</time>
      </trkpt>
      <trkpt lat="43.63306" lon="1.38495">
        <ele>149</ele>
        <time>2025-04-09T11:26:24Z</time>
      </trkpt>
      <trkpt lat="43.63306" lon="1.38495">
        <ele>149</ele>
        <time>2025-04-09T11:26:25Z</time>
      </trkpt>
      <trkpt lat="43.63305" lon="1.38493">
        <ele>149</ele>
        <time>2025-04-09T11:26:26Z</time>
      </trkpt>
      <trkpt lat="43.63304" lon="1.3849">
        <ele>149</ele>
        <time>2025-04-09T11:26:27Z</time>
      </trkpt>
      <trkpt lat="43.63304" lon="1.3849">
        <ele>149</ele>
        <time>2025-04-09T11:26:28Z</time>
      </trkpt>
      <trkpt lat="43.63304" lon="1.3849">
        <ele>149</ele>
        <time>2025-04-09T11:26:29Z</time>
      </trkpt>
      <trkpt lat="43.63303" lon="1.38487">
        <ele>149</ele>
        <time>2025-04-09T11:26:30Z</time>
      </trkpt>
      <trkpt lat="43.63303" lon="1.38487">
        <ele>149</ele>
        <time>2025-04-09T11:26:31Z</time>
      </trkpt>
      <trkpt lat="43.63303" lon="1.38484">
        <ele>149</ele>
        <time>2025-04-09T11:26:32Z</time>
      </trkpt>
      <trkpt lat="43.63301" lon="1.38481">
        <ele>149</ele>
        <time>2025-04-09T11:26:33Z</time>
      </trkpt>
      <trkpt lat="43.63301" lon="1.38481">
        <ele>149</ele>
        <time>2025-04-09T11:26:34Z</time>
      </trkpt>
      <trkpt lat="43.63301" lon="1.38481">
        <ele>149</ele>
        <time>2025-04-09T11:26:35Z</time>
      </trkpt>
      <trkpt lat="43.63301" lon="1.38481">
        <ele>149</ele>
        <time>2025-04-09T11:26:36Z</time>
      </trkpt>
      <trkpt lat="43.63299" lon="1.38481">
        <ele>149</ele>
        <time>2025-04-09T11:26:37Z</time>
      </trkpt>
      <trkpt lat="43.63299" lon="1.38481">
        <ele>149</ele>
        <time>2025-04-09T11:26:38Z</time>
      </trkpt>
      <trkpt lat="43.63297" lon="1.38483">
        <ele>149</ele>
        <time>2025-04-09T11:26:39Z</time>
      </trkpt>
      <trkpt lat="43.63297" lon="1.38483">
        <ele>149</ele>
        <time>2025-04-09T11:26:40Z</time>
      </trkpt>
      <trkpt lat="43.63297" lon="1.38483">
        <ele>149</ele>
        <time>2025-04-09T11:26:41Z</time>
      </trkpt>
      <trkpt lat="43.63295" lon="1.38484">
        <ele>149</ele>
        <time>2025-04-09T11:26:42Z</time>
      </trkpt>
      <trkpt lat="43.63293" lon="1.38485">
        <ele>150</ele>
        <time>2025-04-09T11:26:44Z</time>
      </trkpt>
      <trkpt lat="43.63291" lon="1.38487">
        <ele>150</ele>
        <time>2025-04-09T11:26:45Z</time>
      </trkpt>
      <trkpt lat="43.63291" lon="1.38487">
        <ele>150</ele>
        <time>2025-04-09T11:26:46Z</time>
      </trkpt>
      <trkpt lat="43.63291" lon="1.38487">
        <ele>150</ele>
        <time>2025-04-09T11:26:47Z</time>
      </trkpt>
      <trkpt lat="43.63289" lon="1.38488">
        <ele>150</ele>
        <time>2025-04-09T11:26:48Z</time>
      </trkpt>
      <trkpt lat="43.63287" lon="1.38489">
        <ele>149</ele>
        <time>2025-04-09T11:26:49Z</time>
      </trkpt>
      <trkpt lat="43.63287" lon="1.38489">
        <ele>149</ele>
        <time>2025-04-09T11:26:50Z</time>
      </trkpt>
      <trkpt lat="43.63287" lon="1.38489">
        <ele>149</ele>
        <time>2025-04-09T11:26:51Z</time>
      </trkpt>
      <trkpt lat="43.63285" lon="1.3849">
        <ele>150</ele>
        <time>2025-04-09T11:26:52Z</time>
      </trkpt>
      <trkpt lat="43.63285" lon="1.3849">
        <ele>150</ele>
        <time>2025-04-09T11:26:53Z</time>
      </trkpt>
      <trkpt lat="43.63283" lon="1.38491">
        <ele>150</ele>
        <time>2025-04-09T11:26:54Z</time>
      </trkpt>
      <trkpt lat="43.63283" lon="1.38491">
        <ele>150</ele>
        <time>2025-04-09T11:26:55Z</time>
      </trkpt>
      <trkpt lat="43.63282" lon="1.38492">
        <ele>150</ele>
        <time>2025-04-09T11:26:56Z</time>
      </trkpt>
      <trkpt lat="43.63282" lon="1.38492">
        <ele>150</ele>
        <time>2025-04-09T11:26:57Z</time>
      </trkpt>
      <trkpt lat="43.6328" lon="1.38494">
        <ele>150</ele>
        <time>2025-04-09T11:26:58Z</time>
      </trkpt>
      <trkpt lat="43.63249" lon="1.38508">
        <ele>150</ele>
        <time>2025-04-09T11:28:24Z</time>
      </trkpt>
      <trkpt lat="43.63249" lon="1.38508">
        <ele>150</ele>
        <time>2025-04-09T11:28:25Z</time>
      </trkpt>
      <trkpt lat="43.63251" lon="1.38507">
        <ele>150</ele>
        <time>2025-04-09T11:28:26Z</time>
      </trkpt>
      <trkpt lat="43.63254" lon="1.38505">
        <ele>150</ele>
        <time>2025-04-09T11:28:27Z</time>
      </trkpt>
      <trkpt lat="43.63254" lon="1.38505">
        <ele>150</ele>
        <time>2025-04-09T11:28:28Z</time>
      </trkpt>
      <trkpt lat="43.63257" lon="1.38503">
        <ele>150</ele>
        <time>2025-04-09T11:28:29Z</time>
      </trkpt>
      <trkpt lat="43.63261" lon="1.38501">
        <ele>149</ele>
        <time>2025-04-09T11:28:30Z</time>
      </trkpt>
      <trkpt lat="43.63262" lon="1.385">
        <ele>149</ele>
        <time>2025-04-09T11:28:31Z</time>
      </trkpt>
      <trkpt lat="43.63264" lon="1.38499">
        <ele>149</ele>
        <time>2025-04-09T11:28:32Z</time>
      </trkpt>
      <trkpt lat="43.63265" lon="1.38497">
        <ele>149</ele>
        <time>2025-04-09T11:28:33Z</time>
      </trkpt>
      <trkpt lat="43.63272" lon="1.38492">
        <ele>149</ele>
        <time>2025-04-09T11:28:34Z</time>
      </trkpt>
      <trkpt lat="43.63273" lon="1.38491">
        <ele>149</ele>
        <time>2025-04-09T11:28:35Z</time>
      </trkpt>
      <trkpt lat="43.63275" lon="1.3849">
        <ele>149</ele>
        <time>2025-04-09T11:28:36Z</time>
      </trkpt>
      <trkpt lat="43.63283" lon="1.38484">
        <ele>150</ele>
        <time>2025-04-09T11:28:37Z</time>
      </trkpt>
      <trkpt lat="43.63286" lon="1.38483">
        <ele>150</ele>
        <time>2025-04-09T11:28:38Z</time>
      </trkpt>
      <trkpt lat="43.63288" lon="1.38481">
        <ele>150</ele>
        <time>2025-04-09T11:28:39Z</time>
      </trkpt>
      <trkpt lat="43.63291" lon="1.38479">
        <ele>150</ele>
        <time>2025-04-09T11:28:40Z</time>
      </trkpt>
      <trkpt lat="43.63293" lon="1.38478">
        <ele>150</ele>
        <time>2025-04-09T11:28:41Z</time>
      </trkpt>
      <trkpt lat="43.63296" lon="1.38477">
        <ele>150</ele>
        <time>2025-04-09T11:28:42Z</time>
      </trkpt>
      <trkpt lat="43.63302" lon="1.38475">
        <ele>150</ele>
        <time>2025-04-09T11:28:43Z</time>
      </trkpt>
      <trkpt lat="43.63309" lon="1.38489">
        <ele>150</ele>
        <time>2025-04-09T11:28:45Z</time>
      </trkpt>
      <trkpt lat="43.63309" lon="1.38492">
        <ele>150</ele>
        <time>2025-04-09T11:28:46Z</time>
      </trkpt>
      <trkpt lat="43.6331" lon="1.38494">
        <ele>150</ele>
        <time>2025-04-09T11:28:47Z</time>
      </trkpt>
      <trkpt lat="43.63311" lon="1.38497">
        <ele>150</ele>
        <time>2025-04-09T11:28:48Z</time>
      </trkpt>
      <trkpt lat="43.63313" lon="1.38507">
        <ele>150</ele>
        <time>2025-04-09T11:28:49Z</time>
      </trkpt>
      <trkpt lat="43.63314" lon="1.38509">
        <ele>150</ele>
        <time>2025-04-09T11:28:50Z</time>
      </trkpt>
      <trkpt lat="43.63314" lon="1.38512">
        <ele>150</ele>
        <time>2025-04-09T11:28:51Z</time>
      </trkpt>
      <trkpt lat="43.63317" lon="1.38523">
        <ele>150</ele>
        <time>2025-04-09T11:28:52Z</time>
      </trkpt>
      <trkpt lat="43.63319" lon="1.38527">
        <ele>150</ele>
        <time>2025-04-09T11:28:53Z</time>
      </trkpt>
      <trkpt lat="43.6332" lon="1.38531">
        <ele>150</ele>
        <time>2025-04-09T11:28:54Z</time>
      </trkpt>
      <trkpt lat="43.63321" lon="1.38535">
        <ele>150</ele>
        <time>2025-04-09T11:28:55Z</time>
      </trkpt>
      <trkpt lat="43.63323" lon="1.38541">
        <ele>150</ele>
        <time>2025-04-09T11:28:56Z</time>
      </trkpt>
      <trkpt lat="43.63325" lon="1.38548">
        <ele>149</ele>
        <time>2025-04-09T11:28:57Z</time>
      </trkpt>
      <trkpt lat="43.63326" lon="1.38551">
        <ele>149</ele>
        <time>2025-04-09T11:28:58Z</time>
      </trkpt>
      <trkpt lat="43.63326" lon="1.38553">
        <ele>149</ele>
        <time>2025-04-09T11:28:59Z</time>
      </trkpt>
      <trkpt lat="43.63327" lon="1.38555">
        <ele>149</ele>
        <time>2025-04-09T11:29:00Z</time>
      </trkpt>
      <trkpt lat="43.63331" lon="1.38566">
        <ele>149</ele>
        <time>2025-04-09T11:29:01Z</time>
      </trkpt>
      <trkpt lat="43.63332" lon="1.3857">
        <ele>149</ele>
        <time>2025-04-09T11:29:02Z</time>
      </trkpt>
      <trkpt lat="43.63333" lon="1.38574">
        <ele>149</ele>
        <time>2025-04-09T11:29:03Z</time>
      </trkpt>
      <trkpt lat="43.63334" lon="1.38578">
        <ele>149</ele>
        <time>2025-04-09T11:29:04Z</time>
      </trkpt>
      <trkpt lat="43.63335" lon="1.38582">
        <ele>149</ele>
        <time>2025-04-09T11:29:05Z</time>
      </trkpt>
      <trkpt lat="43.63336" lon="1.38586">
        <ele>149</ele>
        <time>2025-04-09T11:29:06Z</time>
      </trkpt>
      <trkpt lat="43.63338" lon="1.3859">
        <ele>149</ele>
        <time>2025-04-09T11:29:07Z</time>
      </trkpt>
      <trkpt lat="43.63339" lon="1.38596">
        <ele>149</ele>
        <time>2025-04-09T11:29:08Z</time>
      </trkpt>
      <trkpt lat="43.63341" lon="1.38603">
        <ele>149</ele>
        <time>2025-04-09T11:29:09Z</time>
      </trkpt>
      <trkpt lat="43.63341" lon="1.38607">
        <ele>149</ele>
        <time>2025-04-09T11:29:10Z</time>
      </trkpt>
      <trkpt lat="43.6334" lon="1.38612">
        <ele>149</ele>
        <time>2025-04-09T11:29:11Z</time>
      </trkpt>
      <trkpt lat="43.6334" lon="1.38617">
        <ele>149</ele>
        <time>2025-04-09T11:29:12Z</time>
      </trkpt>
      <trkpt lat="43.63336" lon="1.38619">
        <ele>149</ele>
        <time>2025-04-09T11:29:13Z</time>
      </trkpt>
      <trkpt lat="43.63333" lon="1.38621">
        <ele>149</ele>
        <time>2025-04-09T11:29:14Z</time>
      </trkpt>
      <trkpt lat="43.63329" lon="1.38622">
        <ele>149</ele>
        <time>2025-04-09T11:29:15Z</time>
      </trkpt>
      <trkpt lat="43.63326" lon="1.38625">
        <ele>149</ele>
        <time>2025-04-09T11:29:16Z</time>
      </trkpt>
      <trkpt lat="43.63324" lon="1.38627">
        <ele>150</ele>
        <time>2025-04-09T11:29:17Z</time>
      </trkpt>
      <trkpt lat="43.63321" lon="1.38629">
        <ele>150</ele>
        <time>2025-04-09T11:29:18Z</time>
      </trkpt>
      <trkpt lat="43.63318" lon="1.38631">
        <ele>150</ele>
        <time>2025-04-09T11:29:19Z</time>
      </trkpt>
      <trkpt lat="43.63316" lon="1.38632">
        <ele>150</ele>
        <time>2025-04-09T11:29:20Z</time>
      </trkpt>
      <trkpt lat="43.63314" lon="1.38634">
        <ele>150</ele>
        <time>2025-04-09T11:29:21Z</time>
      </trkpt>
      <trkpt lat="43.63312" lon="1.38635">
        <ele>150</ele>
        <time>2025-04-09T11:29:22Z</time>
      </trkpt>
      <trkpt lat="43.63309" lon="1.38637">
        <ele>150</ele>
        <time>2025-04-09T11:29:23Z</time>
      </trkpt>
      <trkpt lat="43.63307" lon="1.38638">
        <ele>150</ele>
        <time>2025-04-09T11:29:24Z</time>
      </trkpt>
      <trkpt lat="43.633" lon="1.38641">
        <ele>150</ele>
        <time>2025-04-09T11:29:25Z</time>
      </trkpt>
      <trkpt lat="43.63298" lon="1.38641">
        <ele>150</ele>
        <time>2025-04-09T11:29:26Z</time>
      </trkpt>
      <trkpt lat="43.63296" lon="1.38642">
        <ele>150</ele>
        <time>2025-04-09T11:29:27Z</time>
      </trkpt>
      <trkpt lat="43.6329" lon="1.38641">
        <ele>150</ele>
        <time>2025-04-09T11:29:28Z</time>
      </trkpt>
      <trkpt lat="43.63289" lon="1.38638">
        <ele>150</ele>
        <time>2025-04-09T11:29:29Z</time>
      </trkpt>
      <trkpt lat="43.63288" lon="1.38636">
        <ele>149</ele>
        <time>2025-04-09T11:29:30Z</time>
      </trkpt>
      <trkpt lat="43.63284" lon="1.38625">
        <ele>149</ele>
        <time>2025-04-09T11:29:31Z</time>
      </trkpt>
      <trkpt lat="43.63283" lon="1.38621">
        <ele>149</ele>
        <time>2025-04-09T11:29:32Z</time>
      </trkpt>
      <trkpt lat="43.63281" lon="1.38617">
        <ele>149</ele>
        <time>2025-04-09T11:29:33Z</time>
      </trkpt>
      <trkpt lat="43.6328" lon="1.38614">
        <ele>149</ele>
        <time>2025-04-09T11:29:34Z</time>
      </trkpt>
      <trkpt lat="43.63279" lon="1.3861">
        <ele>149</ele>
        <time>2025-04-09T11:29:35Z</time>
      </trkpt>
      <trkpt lat="43.63279" lon="1.38606">
        <ele>149</ele>
        <time>2025-04-09T11:29:36Z</time>
      </trkpt>
      <trkpt lat="43.63276" lon="1.38595">
        <ele>149</ele>
        <time>2025-04-09T11:29:37Z</time>
      </trkpt>
      <trkpt lat="43.63276" lon="1.38593">
        <ele>149</ele>
        <time>2025-04-09T11:29:38Z</time>
      </trkpt>
      <trkpt lat="43.63275" lon="1.38591">
        <ele>149</ele>
        <time>2025-04-09T11:29:39Z</time>
      </trkpt>
      <trkpt lat="43.63273" lon="1.38584">
        <ele>149</ele>
        <time>2025-04-09T11:29:40Z</time>
      </trkpt>
      <trkpt lat="43.63269" lon="1.3857">
        <ele>149</ele>
        <time>2025-04-09T11:29:42Z</time>
      </trkpt>
      <trkpt lat="43.63268" lon="1.38566">
        <ele>149</ele>
        <time>2025-04-09T11:29:43Z</time>
      </trkpt>
      <trkpt lat="43.63266" lon="1.38562">
        <ele>149</ele>
        <time>2025-04-09T11:29:44Z</time>
      </trkpt>
      <trkpt lat="43.63265" lon="1.38558">
        <ele>149</ele>
        <time>2025-04-09T11:29:45Z</time>
      </trkpt>
      <trkpt lat="43.63264" lon="1.38555">
        <ele>149</ele>
        <time>2025-04-09T11:29:46Z</time>
      </trkpt>
      <trkpt lat="43.63263" lon="1.38551">
        <ele>149</ele>
        <time>2025-04-09T11:29:47Z</time>
      </trkpt>
      <trkpt lat="43.63262" lon="1.38548">
        <ele>149</ele>
        <time>2025-04-09T11:29:48Z</time>
      </trkpt>
      <trkpt lat="43.63261" lon="1.38544">
        <ele>149</ele>
        <time>2025-04-09T11:29:49Z</time>
      </trkpt>
      <trkpt lat="43.6326" lon="1.38541">
        <ele>149</ele>
        <time>2025-04-09T11:29:50Z</time>
      </trkpt>
      <trkpt lat="43.63259" lon="1.38537">
        <ele>149</ele>
        <time>2025-04-09T11:29:51Z</time>
      </trkpt>
      <trkpt lat="43.63256" lon="1.38528">
        <ele>149</ele>
        <time>2025-04-09T11:29:52Z</time>
      </trkpt>
      <trkpt lat="43.63255" lon="1.38526">
        <ele>149</ele>
        <time>2025-04-09T11:29:53Z</time>
      </trkpt>
      <trkpt lat="43.63254" lon="1.38523">
        <ele>149</ele>
        <time>2025-04-09T11:29:54Z</time>
      </trkpt>
      <trkpt lat="43.63254" lon="1.38512">
        <ele>149</ele>
        <time>2025-04-09T11:29:55Z</time>
      </trkpt>
      <trkpt lat="43.63255" lon="1.38508">
        <ele>150</ele>
        <time>2025-04-09T11:29:56Z</time>
      </trkpt>
      <trkpt lat="43.63256" lon="1.38504">
        <ele>150</ele>
        <time>2025-04-09T11:29:57Z</time>
      </trkpt>
      <trkpt lat="43.63256" lon="1.38504">
        <ele>150</ele>
        <time>2025-04-09T11:29:58Z</time>
      </trkpt>
      <trkpt lat="43.63265" lon="1.38498">
        <ele>150</ele>
        <time>2025-04-09T11:29:59Z</time>
      </trkpt>
      <trkpt lat="43.63265" lon="1.38498">
        <ele>150</ele>
        <time>2025-04-09T11:30:01Z</time>
      </trkpt>
      <trkpt lat="43.63268" lon="1.38495">
        <ele>150</ele>
        <time>2025-04-09T11:30:02Z</time>
      </trkpt>
      <trkpt lat="43.63271" lon="1.38493">
        <ele>150</ele>
        <time>2025-04-09T11:30:03Z</time>
      </trkpt>
      <trkpt lat="43.63274" lon="1.38491">
        <ele>150</ele>
        <time>2025-04-09T11:30:04Z</time>
      </trkpt>
      <trkpt lat="43.63277" lon="1.38489">
        <ele>150</ele>
        <time>2025-04-09T11:30:05Z</time>
      </trkpt>
      <trkpt lat="43.63279" lon="1.38487">
        <ele>150</ele>
        <time>2025-04-09T11:30:06Z</time>
      </trkpt>
      <trkpt lat="43.63285" lon="1.38482">
        <ele>149</ele>
        <time>2025-04-09T11:30:07Z</time>
      </trkpt>
      <trkpt lat="43.63287" lon="1.38481">
        <ele>149</ele>
        <time>2025-04-09T11:30:08Z</time>
      </trkpt>
      <trkpt lat="43.63289" lon="1.3848">
        <ele>149</ele>
        <time>2025-04-09T11:30:09Z</time>
      </trkpt>
      <trkpt lat="43.63295" lon="1.38478">
        <ele>149</ele>
        <time>2025-04-09T11:30:10Z</time>
      </trkpt>
      <trkpt lat="43.63297" lon="1.38478">
        <ele>149</ele>
        <time>2025-04-09T11:30:11Z</time>
      </trkpt>
      <trkpt lat="43.63299" lon="1.38479">
        <ele>149</ele>
        <time>2025-04-09T11:30:12Z</time>
      </trkpt>
      <trkpt lat="43.63306" lon="1.38485">
        <ele>149</ele>
        <time>2025-04-09T11:30:13Z</time>
      </trkpt>
      <trkpt lat="43.63308" lon="1.3849">
        <ele>149</ele>
        <time>2025-04-09T11:30:14Z</time>
      </trkpt>
      <trkpt lat="43.63309" lon="1.38495">
        <ele>149</ele>
        <time>2025-04-09T11:30:15Z</time>
      </trkpt>
      <trkpt lat="43.63311" lon="1.38501">
        <ele>150</ele>
        <time>2025-04-09T11:30:16Z</time>
      </trkpt>
      <trkpt lat="43.63313" lon="1.38506">
        <ele>150</ele>
        <time>2025-04-09T11:30:17Z</time>
      </trkpt>
      <trkpt lat="43.63314" lon="1.38511">
        <ele>150</ele>
        <time>2025-04-09T11:30:18Z</time>
      </trkpt>
      <trkpt lat="43.63317" lon="1.3852">
        <ele>149</ele>
        <time>2025-04-09T11:30:20Z</time>
      </trkpt>
      <trkpt lat="43.63318" lon="1.38522">
        <ele>149</ele>
        <time>2025-04-09T11:30:21Z</time>
      </trkpt>
      <trkpt lat="43.63319" lon="1.38525">
        <ele>149</ele>
        <time>2025-04-09T11:30:22Z</time>
      </trkpt>
      <trkpt lat="43.63319" lon="1.38527">
        <ele>149</ele>
        <time>2025-04-09T11:30:23Z</time>
      </trkpt>
      <trkpt lat="43.63322" lon="1.38537">
        <ele>149</ele>
        <time>2025-04-09T11:30:24Z</time>
      </trkpt>
      <trkpt lat="43.63323" lon="1.38539">
        <ele>149</ele>
        <time>2025-04-09T11:30:25Z</time>
      </trkpt>
      <trkpt lat="43.63323" lon="1.38542">
        <ele>149</ele>
        <time>2025-04-09T11:30:26Z</time>
      </trkpt>
      <trkpt lat="43.63326" lon="1.38552">
        <ele>149</ele>
        <time>2025-04-09T11:30:27Z</time>
      </trkpt>
      <trkpt lat="43.63327" lon="1.38555">
        <ele>149</ele>
        <time>2025-04-09T11:30:28Z</time>
      </trkpt>
      <trkpt lat="43.63327" lon="1.38558">
        <ele>149</ele>
        <time>2025-04-09T11:30:29Z</time>
      </trkpt>
      <trkpt lat="43.63328" lon="1.38561">
        <ele>149</ele>
        <time>2025-04-09T11:30:30Z</time>
      </trkpt>
      <trkpt lat="43.6333" lon="1.38568">
        <ele>149</ele>
        <time>2025-04-09T11:30:31Z</time>
      </trkpt>
      <trkpt lat="43.63332" lon="1.38574">
        <ele>149</ele>
        <time>2025-04-09T11:30:32Z</time>
      </trkpt>
      <trkpt lat="43.63333" lon="1.38579">
        <ele>150</ele>
        <time>2025-04-09T11:30:33Z</time>
      </trkpt>
      <trkpt lat="43.63334" lon="1.38583">
        <ele>150</ele>
        <time>2025-04-09T11:30:34Z</time>
      </trkpt>
      <trkpt lat="43.63335" lon="1.38588">
        <ele>149</ele>
        <time>2025-04-09T11:30:35Z</time>
      </trkpt>
      <trkpt lat="43.63337" lon="1.38592">
        <ele>149</ele>
        <time>2025-04-09T11:30:36Z</time>
      </trkpt>
      <trkpt lat="43.63338" lon="1.38596">
        <ele>149</ele>
        <time>2025-04-09T11:30:37Z</time>
      </trkpt>
      <trkpt lat="43.63339" lon="1.38601">
        <ele>149</ele>
        <time>2025-04-09T11:30:38Z</time>
      </trkpt>
      <trkpt lat="43.6334" lon="1.38605">
        <ele>150</ele>
        <time>2025-04-09T11:30:39Z</time>
      </trkpt>
      <trkpt lat="43.63341" lon="1.38609">
        <ele>150</ele>
        <time>2025-04-09T11:30:40Z</time>
      </trkpt>
    </trkseg>
  </trk>
</gpx>